<?xml version="1.0" encoding="UTF-8" standalone="no" ?>
<gpx xmlns="http://www.topografix.com/GPX/1/1" xmlns:xsi="http://www.w3.org/2001/XMLSchema-instance" xsi:schemaLocation="http://www.topografix.com/GPX/1/1 http://www.topografix.com/GPX/1/1/gpx.xsd" version="1.1" creator="VisuGPX - https://www.visugpx.com">
  <metadata>
    <name>Rando Aveyron Lot - étape 4</name>
    <desc><![CDATA[effectuée le 19 septembre 2017]]></desc>
  </metadata>
  <trk>
    <name><![CDATA[20170926213539-KiTze]]></name>
    <trkseg>
      <trkpt lat="44.4699" lon="2.07699">
        <ele>292</ele>
        <time>2017-09-19T08:02:26Z</time>
      </trkpt>
      <trkpt lat="44.46989" lon="2.07702">
        <ele>292</ele>
        <time>2017-09-19T08:02:27Z</time>
      </trkpt>
      <trkpt lat="44.4699" lon="2.07705">
        <ele>292</ele>
        <time>2017-09-19T08:02:34Z</time>
      </trkpt>
      <trkpt lat="44.4699" lon="2.07708">
        <ele>292</ele>
        <time>2017-09-19T08:02:37Z</time>
      </trkpt>
      <trkpt lat="44.46991" lon="2.07711">
        <ele>292</ele>
        <time>2017-09-19T08:02:41Z</time>
      </trkpt>
      <trkpt lat="44.46995" lon="2.07714">
        <ele>292</ele>
        <time>2017-09-19T08:02:46Z</time>
      </trkpt>
      <trkpt lat="44.46997" lon="2.07716">
        <ele>292</ele>
        <time>2017-09-19T08:02:48Z</time>
      </trkpt>
      <trkpt lat="44.47014" lon="2.07733">
        <ele>293</ele>
        <time>2017-09-19T08:03:06Z</time>
      </trkpt>
      <trkpt lat="44.47018" lon="2.07738">
        <ele>293</ele>
        <time>2017-09-19T08:03:11Z</time>
      </trkpt>
      <trkpt lat="44.47022" lon="2.07745">
        <ele>293</ele>
        <time>2017-09-19T08:03:17Z</time>
      </trkpt>
      <trkpt lat="44.47038" lon="2.0776">
        <ele>290</ele>
        <time>2017-09-19T08:03:34Z</time>
      </trkpt>
      <trkpt lat="44.47042" lon="2.07762">
        <ele>290</ele>
        <time>2017-09-19T08:03:37Z</time>
      </trkpt>
      <trkpt lat="44.47044" lon="2.07765">
        <ele>290</ele>
        <time>2017-09-19T08:03:40Z</time>
      </trkpt>
      <trkpt lat="44.4706" lon="2.0777">
        <ele>291</ele>
        <time>2017-09-19T08:03:56Z</time>
      </trkpt>
      <trkpt lat="44.47063" lon="2.07771">
        <ele>291</ele>
        <time>2017-09-19T08:04:00Z</time>
      </trkpt>
      <trkpt lat="44.47067" lon="2.07768">
        <ele>291</ele>
        <time>2017-09-19T08:04:04Z</time>
      </trkpt>
      <trkpt lat="44.4707" lon="2.07767">
        <ele>291</ele>
        <time>2017-09-19T08:04:09Z</time>
      </trkpt>
      <trkpt lat="44.47078" lon="2.07767">
        <ele>291</ele>
        <time>2017-09-19T08:04:21Z</time>
      </trkpt>
      <trkpt lat="44.47083" lon="2.07766">
        <ele>291</ele>
        <time>2017-09-19T08:04:25Z</time>
      </trkpt>
      <trkpt lat="44.47087" lon="2.07766">
        <ele>292</ele>
        <time>2017-09-19T08:04:30Z</time>
      </trkpt>
      <trkpt lat="44.47092" lon="2.07764">
        <ele>292</ele>
        <time>2017-09-19T08:04:37Z</time>
      </trkpt>
      <trkpt lat="44.47103" lon="2.07771">
        <ele>291</ele>
        <time>2017-09-19T08:04:44Z</time>
      </trkpt>
      <trkpt lat="44.47109" lon="2.07772">
        <ele>291</ele>
        <time>2017-09-19T08:04:47Z</time>
      </trkpt>
      <trkpt lat="44.47114" lon="2.07776">
        <ele>291</ele>
        <time>2017-09-19T08:04:51Z</time>
      </trkpt>
      <trkpt lat="44.47118" lon="2.07779">
        <ele>291</ele>
        <time>2017-09-19T08:04:54Z</time>
      </trkpt>
      <trkpt lat="44.47126" lon="2.0778">
        <ele>291</ele>
        <time>2017-09-19T08:04:58Z</time>
      </trkpt>
      <trkpt lat="44.47135" lon="2.0778">
        <ele>291</ele>
        <time>2017-09-19T08:05:03Z</time>
      </trkpt>
      <trkpt lat="44.47138" lon="2.07781">
        <ele>291</ele>
        <time>2017-09-19T08:05:07Z</time>
      </trkpt>
      <trkpt lat="44.47142" lon="2.07781">
        <ele>291</ele>
        <time>2017-09-19T08:05:10Z</time>
      </trkpt>
      <trkpt lat="44.47146" lon="2.07781">
        <ele>291</ele>
        <time>2017-09-19T08:05:13Z</time>
      </trkpt>
      <trkpt lat="44.4716" lon="2.0777">
        <ele>291</ele>
        <time>2017-09-19T08:05:25Z</time>
      </trkpt>
      <trkpt lat="44.47162" lon="2.07768">
        <ele>291</ele>
        <time>2017-09-19T08:05:27Z</time>
      </trkpt>
      <trkpt lat="44.4717" lon="2.07766">
        <ele>292</ele>
        <time>2017-09-19T08:05:37Z</time>
      </trkpt>
      <trkpt lat="44.47174" lon="2.07759">
        <ele>292</ele>
        <time>2017-09-19T08:05:41Z</time>
      </trkpt>
      <trkpt lat="44.47177" lon="2.07751">
        <ele>292</ele>
        <time>2017-09-19T08:05:47Z</time>
      </trkpt>
      <trkpt lat="44.4718" lon="2.07748">
        <ele>293</ele>
        <time>2017-09-19T08:05:59Z</time>
      </trkpt>
      <trkpt lat="44.47181" lon="2.07744">
        <ele>293</ele>
        <time>2017-09-19T08:06:05Z</time>
      </trkpt>
      <trkpt lat="44.47189" lon="2.07738">
        <ele>294</ele>
        <time>2017-09-19T08:06:15Z</time>
      </trkpt>
      <trkpt lat="44.47195" lon="2.07726">
        <ele>294</ele>
        <time>2017-09-19T08:06:24Z</time>
      </trkpt>
      <trkpt lat="44.47197" lon="2.0772">
        <ele>294</ele>
        <time>2017-09-19T08:06:27Z</time>
      </trkpt>
      <trkpt lat="44.47209" lon="2.07702">
        <ele>295</ele>
        <time>2017-09-19T08:06:42Z</time>
      </trkpt>
      <trkpt lat="44.47214" lon="2.07698">
        <ele>295</ele>
        <time>2017-09-19T08:06:46Z</time>
      </trkpt>
      <trkpt lat="44.47222" lon="2.07689">
        <ele>296</ele>
        <time>2017-09-19T08:06:54Z</time>
      </trkpt>
      <trkpt lat="44.47234" lon="2.0768">
        <ele>297</ele>
        <time>2017-09-19T08:07:04Z</time>
      </trkpt>
      <trkpt lat="44.47238" lon="2.07674">
        <ele>298</ele>
        <time>2017-09-19T08:07:09Z</time>
      </trkpt>
      <trkpt lat="44.47254" lon="2.07655">
        <ele>301</ele>
        <time>2017-09-19T08:07:27Z</time>
      </trkpt>
      <trkpt lat="44.47256" lon="2.07653">
        <ele>301</ele>
        <time>2017-09-19T08:07:29Z</time>
      </trkpt>
      <trkpt lat="44.47263" lon="2.07642">
        <ele>302</ele>
        <time>2017-09-19T08:07:38Z</time>
      </trkpt>
      <trkpt lat="44.47266" lon="2.07638">
        <ele>302</ele>
        <time>2017-09-19T08:07:41Z</time>
      </trkpt>
      <trkpt lat="44.47267" lon="2.07635">
        <ele>302</ele>
        <time>2017-09-19T08:07:47Z</time>
      </trkpt>
      <trkpt lat="44.47269" lon="2.07631">
        <ele>302</ele>
        <time>2017-09-19T08:07:51Z</time>
      </trkpt>
      <trkpt lat="44.47275" lon="2.07628">
        <ele>302</ele>
        <time>2017-09-19T08:07:57Z</time>
      </trkpt>
      <trkpt lat="44.47277" lon="2.07626">
        <ele>302</ele>
        <time>2017-09-19T08:07:59Z</time>
      </trkpt>
      <trkpt lat="44.47282" lon="2.07615">
        <ele>302</ele>
        <time>2017-09-19T08:08:05Z</time>
      </trkpt>
      <trkpt lat="44.47283" lon="2.07612">
        <ele>302</ele>
        <time>2017-09-19T08:08:07Z</time>
      </trkpt>
      <trkpt lat="44.47285" lon="2.07608">
        <ele>303</ele>
        <time>2017-09-19T08:08:10Z</time>
      </trkpt>
      <trkpt lat="44.47287" lon="2.07604">
        <ele>303</ele>
        <time>2017-09-19T08:08:13Z</time>
      </trkpt>
      <trkpt lat="44.47292" lon="2.07599">
        <ele>303</ele>
        <time>2017-09-19T08:08:19Z</time>
      </trkpt>
      <trkpt lat="44.47297" lon="2.07592">
        <ele>303</ele>
        <time>2017-09-19T08:08:25Z</time>
      </trkpt>
      <trkpt lat="44.47312" lon="2.07566">
        <ele>306</ele>
        <time>2017-09-19T08:08:43Z</time>
      </trkpt>
      <trkpt lat="44.47316" lon="2.07562">
        <ele>306</ele>
        <time>2017-09-19T08:08:48Z</time>
      </trkpt>
      <trkpt lat="44.47319" lon="2.0756">
        <ele>306</ele>
        <time>2017-09-19T08:08:50Z</time>
      </trkpt>
      <trkpt lat="44.4732" lon="2.07557">
        <ele>306</ele>
        <time>2017-09-19T08:08:54Z</time>
      </trkpt>
      <trkpt lat="44.47324" lon="2.07552">
        <ele>306</ele>
        <time>2017-09-19T08:09:20Z</time>
      </trkpt>
      <trkpt lat="44.47325" lon="2.0755">
        <ele>307</ele>
        <time>2017-09-19T08:09:26Z</time>
      </trkpt>
      <trkpt lat="44.47341" lon="2.07533">
        <ele>312</ele>
        <time>2017-09-19T08:09:44Z</time>
      </trkpt>
      <trkpt lat="44.47375" lon="2.07516">
        <ele>313</ele>
        <time>2017-09-19T08:10:15Z</time>
      </trkpt>
      <trkpt lat="44.47378" lon="2.07514">
        <ele>313</ele>
        <time>2017-09-19T08:10:18Z</time>
      </trkpt>
      <trkpt lat="44.47384" lon="2.07512">
        <ele>314</ele>
        <time>2017-09-19T08:10:24Z</time>
      </trkpt>
      <trkpt lat="44.47387" lon="2.07511">
        <ele>314</ele>
        <time>2017-09-19T08:10:26Z</time>
      </trkpt>
      <trkpt lat="44.47394" lon="2.07508">
        <ele>315</ele>
        <time>2017-09-19T08:10:33Z</time>
      </trkpt>
      <trkpt lat="44.47421" lon="2.07501">
        <ele>320</ele>
        <time>2017-09-19T08:10:56Z</time>
      </trkpt>
      <trkpt lat="44.47424" lon="2.07499">
        <ele>322</ele>
        <time>2017-09-19T08:10:59Z</time>
      </trkpt>
      <trkpt lat="44.47427" lon="2.07497">
        <ele>322</ele>
        <time>2017-09-19T08:11:02Z</time>
      </trkpt>
      <trkpt lat="44.47432" lon="2.07494">
        <ele>323</ele>
        <time>2017-09-19T08:11:08Z</time>
      </trkpt>
      <trkpt lat="44.47442" lon="2.07488">
        <ele>324</ele>
        <time>2017-09-19T08:11:18Z</time>
      </trkpt>
      <trkpt lat="44.47445" lon="2.07486">
        <ele>324</ele>
        <time>2017-09-19T08:11:21Z</time>
      </trkpt>
      <trkpt lat="44.47449" lon="2.07485">
        <ele>324</ele>
        <time>2017-09-19T08:11:24Z</time>
      </trkpt>
      <trkpt lat="44.47456" lon="2.0748">
        <ele>324</ele>
        <time>2017-09-19T08:11:30Z</time>
      </trkpt>
      <trkpt lat="44.47459" lon="2.07479">
        <ele>325</ele>
        <time>2017-09-19T08:11:33Z</time>
      </trkpt>
      <trkpt lat="44.47461" lon="2.07478">
        <ele>325</ele>
        <time>2017-09-19T08:11:37Z</time>
      </trkpt>
      <trkpt lat="44.47464" lon="2.07477">
        <ele>325</ele>
        <time>2017-09-19T08:11:40Z</time>
      </trkpt>
      <trkpt lat="44.47478" lon="2.07466">
        <ele>325</ele>
        <time>2017-09-19T08:11:54Z</time>
      </trkpt>
      <trkpt lat="44.4748" lon="2.07464">
        <ele>326</ele>
        <time>2017-09-19T08:11:56Z</time>
      </trkpt>
      <trkpt lat="44.47482" lon="2.07463">
        <ele>326</ele>
        <time>2017-09-19T08:11:58Z</time>
      </trkpt>
      <trkpt lat="44.47484" lon="2.07462">
        <ele>326</ele>
        <time>2017-09-19T08:12:00Z</time>
      </trkpt>
      <trkpt lat="44.47486" lon="2.07459">
        <ele>326</ele>
        <time>2017-09-19T08:12:02Z</time>
      </trkpt>
      <trkpt lat="44.47491" lon="2.07455">
        <ele>327</ele>
        <time>2017-09-19T08:12:07Z</time>
      </trkpt>
      <trkpt lat="44.47493" lon="2.07453">
        <ele>327</ele>
        <time>2017-09-19T08:12:10Z</time>
      </trkpt>
      <trkpt lat="44.47497" lon="2.07449">
        <ele>327</ele>
        <time>2017-09-19T08:12:15Z</time>
      </trkpt>
      <trkpt lat="44.47518" lon="2.07433">
        <ele>332</ele>
        <time>2017-09-19T08:12:36Z</time>
      </trkpt>
      <trkpt lat="44.47526" lon="2.0743">
        <ele>332</ele>
        <time>2017-09-19T08:12:44Z</time>
      </trkpt>
      <trkpt lat="44.47535" lon="2.07429">
        <ele>332</ele>
        <time>2017-09-19T08:12:55Z</time>
      </trkpt>
      <trkpt lat="44.4754" lon="2.07428">
        <ele>332</ele>
        <time>2017-09-19T08:13:01Z</time>
      </trkpt>
      <trkpt lat="44.47576" lon="2.07424">
        <ele>336</ele>
        <time>2017-09-19T08:13:32Z</time>
      </trkpt>
      <trkpt lat="44.47585" lon="2.07423">
        <ele>337</ele>
        <time>2017-09-19T08:13:42Z</time>
      </trkpt>
      <trkpt lat="44.47588" lon="2.07422">
        <ele>337</ele>
        <time>2017-09-19T08:13:45Z</time>
      </trkpt>
      <trkpt lat="44.47599" lon="2.0742">
        <ele>336</ele>
        <time>2017-09-19T08:13:55Z</time>
      </trkpt>
      <trkpt lat="44.47605" lon="2.07416">
        <ele>338</ele>
        <time>2017-09-19T08:14:01Z</time>
      </trkpt>
      <trkpt lat="44.4761" lon="2.07411">
        <ele>337</ele>
        <time>2017-09-19T08:14:07Z</time>
      </trkpt>
      <trkpt lat="44.47613" lon="2.07409">
        <ele>337</ele>
        <time>2017-09-19T08:14:09Z</time>
      </trkpt>
      <trkpt lat="44.47614" lon="2.07405">
        <ele>337</ele>
        <time>2017-09-19T08:14:12Z</time>
      </trkpt>
      <trkpt lat="44.47617" lon="2.07401">
        <ele>337</ele>
        <time>2017-09-19T08:14:15Z</time>
      </trkpt>
      <trkpt lat="44.47619" lon="2.07398">
        <ele>337</ele>
        <time>2017-09-19T08:14:18Z</time>
      </trkpt>
      <trkpt lat="44.47624" lon="2.07388">
        <ele>337</ele>
        <time>2017-09-19T08:14:26Z</time>
      </trkpt>
      <trkpt lat="44.47625" lon="2.07384">
        <ele>337</ele>
        <time>2017-09-19T08:14:28Z</time>
      </trkpt>
      <trkpt lat="44.47626" lon="2.07381">
        <ele>337</ele>
        <time>2017-09-19T08:14:30Z</time>
      </trkpt>
      <trkpt lat="44.47631" lon="2.07368">
        <ele>337</ele>
        <time>2017-09-19T08:14:39Z</time>
      </trkpt>
      <trkpt lat="44.47631" lon="2.07365">
        <ele>338</ele>
        <time>2017-09-19T08:14:41Z</time>
      </trkpt>
      <trkpt lat="44.47635" lon="2.07355">
        <ele>338</ele>
        <time>2017-09-19T08:14:47Z</time>
      </trkpt>
      <trkpt lat="44.47636" lon="2.07351">
        <ele>338</ele>
        <time>2017-09-19T08:14:51Z</time>
      </trkpt>
      <trkpt lat="44.4764" lon="2.07343">
        <ele>337</ele>
        <time>2017-09-19T08:14:58Z</time>
      </trkpt>
      <trkpt lat="44.47642" lon="2.07338">
        <ele>337</ele>
        <time>2017-09-19T08:15:02Z</time>
      </trkpt>
      <trkpt lat="44.47649" lon="2.07315">
        <ele>339</ele>
        <time>2017-09-19T08:15:18Z</time>
      </trkpt>
      <trkpt lat="44.47651" lon="2.0731">
        <ele>339</ele>
        <time>2017-09-19T08:15:22Z</time>
      </trkpt>
      <trkpt lat="44.47656" lon="2.07301">
        <ele>339</ele>
        <time>2017-09-19T08:15:29Z</time>
      </trkpt>
      <trkpt lat="44.47663" lon="2.07289">
        <ele>339</ele>
        <time>2017-09-19T08:15:40Z</time>
      </trkpt>
      <trkpt lat="44.47675" lon="2.07268">
        <ele>340</ele>
        <time>2017-09-19T08:15:55Z</time>
      </trkpt>
      <trkpt lat="44.47677" lon="2.07265">
        <ele>340</ele>
        <time>2017-09-19T08:15:58Z</time>
      </trkpt>
      <trkpt lat="44.4768" lon="2.07261">
        <ele>340</ele>
        <time>2017-09-19T08:16:01Z</time>
      </trkpt>
      <trkpt lat="44.47687" lon="2.0725">
        <ele>340</ele>
        <time>2017-09-19T08:16:10Z</time>
      </trkpt>
      <trkpt lat="44.4769" lon="2.07247">
        <ele>342</ele>
        <time>2017-09-19T08:16:13Z</time>
      </trkpt>
      <trkpt lat="44.47695" lon="2.0724">
        <ele>342</ele>
        <time>2017-09-19T08:16:19Z</time>
      </trkpt>
      <trkpt lat="44.47709" lon="2.07229">
        <ele>343</ele>
        <time>2017-09-19T08:16:35Z</time>
      </trkpt>
      <trkpt lat="44.47712" lon="2.07227">
        <ele>343</ele>
        <time>2017-09-19T08:16:38Z</time>
      </trkpt>
      <trkpt lat="44.47728" lon="2.07219">
        <ele>344</ele>
        <time>2017-09-19T08:16:51Z</time>
      </trkpt>
      <trkpt lat="44.47764" lon="2.07202">
        <ele>349</ele>
        <time>2017-09-19T08:17:23Z</time>
      </trkpt>
      <trkpt lat="44.47786" lon="2.07196">
        <ele>350</ele>
        <time>2017-09-19T08:17:43Z</time>
      </trkpt>
      <trkpt lat="44.47796" lon="2.07192">
        <ele>351</ele>
        <time>2017-09-19T08:17:56Z</time>
      </trkpt>
      <trkpt lat="44.47803" lon="2.0719">
        <ele>351</ele>
        <time>2017-09-19T08:18:06Z</time>
      </trkpt>
      <trkpt lat="44.47816" lon="2.07185">
        <ele>352</ele>
        <time>2017-09-19T08:18:19Z</time>
      </trkpt>
      <trkpt lat="44.47822" lon="2.07184">
        <ele>353</ele>
        <time>2017-09-19T08:18:26Z</time>
      </trkpt>
      <trkpt lat="44.47825" lon="2.07183">
        <ele>353</ele>
        <time>2017-09-19T08:18:29Z</time>
      </trkpt>
      <trkpt lat="44.47827" lon="2.07181">
        <ele>353</ele>
        <time>2017-09-19T08:18:32Z</time>
      </trkpt>
      <trkpt lat="44.4783" lon="2.07179">
        <ele>354</ele>
        <time>2017-09-19T08:18:34Z</time>
      </trkpt>
      <trkpt lat="44.47832" lon="2.07179">
        <ele>354</ele>
        <time>2017-09-19T08:18:36Z</time>
      </trkpt>
      <trkpt lat="44.47846" lon="2.07173">
        <ele>356</ele>
        <time>2017-09-19T08:18:50Z</time>
      </trkpt>
      <trkpt lat="44.47854" lon="2.07169">
        <ele>356</ele>
        <time>2017-09-19T08:18:59Z</time>
      </trkpt>
      <trkpt lat="44.47861" lon="2.07165">
        <ele>356</ele>
        <time>2017-09-19T08:19:05Z</time>
      </trkpt>
      <trkpt lat="44.47863" lon="2.07164">
        <ele>356</ele>
        <time>2017-09-19T08:19:07Z</time>
      </trkpt>
      <trkpt lat="44.47866" lon="2.07162">
        <ele>356</ele>
        <time>2017-09-19T08:19:10Z</time>
      </trkpt>
      <trkpt lat="44.47871" lon="2.07158">
        <ele>356</ele>
        <time>2017-09-19T08:19:16Z</time>
      </trkpt>
      <trkpt lat="44.47877" lon="2.07157">
        <ele>356</ele>
        <time>2017-09-19T08:19:24Z</time>
      </trkpt>
      <trkpt lat="44.47882" lon="2.07155">
        <ele>356</ele>
        <time>2017-09-19T08:19:28Z</time>
      </trkpt>
      <trkpt lat="44.47895" lon="2.07154">
        <ele>357</ele>
        <time>2017-09-19T08:19:40Z</time>
      </trkpt>
      <trkpt lat="44.47901" lon="2.07153">
        <ele>358</ele>
        <time>2017-09-19T08:19:45Z</time>
      </trkpt>
      <trkpt lat="44.4791" lon="2.07151">
        <ele>358</ele>
        <time>2017-09-19T08:19:53Z</time>
      </trkpt>
      <trkpt lat="44.4792" lon="2.07149">
        <ele>360</ele>
        <time>2017-09-19T08:20:00Z</time>
      </trkpt>
      <trkpt lat="44.4794" lon="2.07142">
        <ele>360</ele>
        <time>2017-09-19T08:20:15Z</time>
      </trkpt>
      <trkpt lat="44.47958" lon="2.07133">
        <ele>360</ele>
        <time>2017-09-19T08:20:31Z</time>
      </trkpt>
      <trkpt lat="44.47982" lon="2.07114">
        <ele>360</ele>
        <time>2017-09-19T08:20:55Z</time>
      </trkpt>
      <trkpt lat="44.47985" lon="2.07111">
        <ele>360</ele>
        <time>2017-09-19T08:20:59Z</time>
      </trkpt>
      <trkpt lat="44.48011" lon="2.07077">
        <ele>363</ele>
        <time>2017-09-19T08:21:29Z</time>
      </trkpt>
      <trkpt lat="44.48015" lon="2.07074">
        <ele>364</ele>
        <time>2017-09-19T08:21:32Z</time>
      </trkpt>
      <trkpt lat="44.48018" lon="2.0707">
        <ele>364</ele>
        <time>2017-09-19T08:21:36Z</time>
      </trkpt>
      <trkpt lat="44.48045" lon="2.07043">
        <ele>365</ele>
        <time>2017-09-19T08:22:04Z</time>
      </trkpt>
      <trkpt lat="44.48055" lon="2.07029">
        <ele>366</ele>
        <time>2017-09-19T08:22:16Z</time>
      </trkpt>
      <trkpt lat="44.4806" lon="2.07021">
        <ele>367</ele>
        <time>2017-09-19T08:22:23Z</time>
      </trkpt>
      <trkpt lat="44.48077" lon="2.07001">
        <ele>370</ele>
        <time>2017-09-19T08:22:42Z</time>
      </trkpt>
      <trkpt lat="44.48081" lon="2.06999">
        <ele>371</ele>
        <time>2017-09-19T08:22:46Z</time>
      </trkpt>
      <trkpt lat="44.48082" lon="2.06993">
        <ele>370</ele>
        <time>2017-09-19T08:22:50Z</time>
      </trkpt>
      <trkpt lat="44.48085" lon="2.06988">
        <ele>372</ele>
        <time>2017-09-19T08:22:53Z</time>
      </trkpt>
      <trkpt lat="44.48087" lon="2.06985">
        <ele>372</ele>
        <time>2017-09-19T08:22:59Z</time>
      </trkpt>
      <trkpt lat="44.48101" lon="2.06957">
        <ele>372</ele>
        <time>2017-09-19T08:23:24Z</time>
      </trkpt>
      <trkpt lat="44.48103" lon="2.06954">
        <ele>372</ele>
        <time>2017-09-19T08:23:27Z</time>
      </trkpt>
      <trkpt lat="44.48105" lon="2.06951">
        <ele>372</ele>
        <time>2017-09-19T08:23:30Z</time>
      </trkpt>
      <trkpt lat="44.48118" lon="2.06927">
        <ele>373</ele>
        <time>2017-09-19T08:23:49Z</time>
      </trkpt>
      <trkpt lat="44.48124" lon="2.06919">
        <ele>373</ele>
        <time>2017-09-19T08:23:56Z</time>
      </trkpt>
      <trkpt lat="44.48127" lon="2.06914">
        <ele>373</ele>
        <time>2017-09-19T08:23:59Z</time>
      </trkpt>
      <trkpt lat="44.48147" lon="2.06888">
        <ele>374</ele>
        <time>2017-09-19T08:24:21Z</time>
      </trkpt>
      <trkpt lat="44.48165" lon="2.06869">
        <ele>374</ele>
        <time>2017-09-19T08:24:43Z</time>
      </trkpt>
      <trkpt lat="44.48169" lon="2.06865">
        <ele>378</ele>
        <time>2017-09-19T08:24:48Z</time>
      </trkpt>
      <trkpt lat="44.4817" lon="2.0686">
        <ele>378</ele>
        <time>2017-09-19T08:24:58Z</time>
      </trkpt>
      <trkpt lat="44.48176" lon="2.06856">
        <ele>378</ele>
        <time>2017-09-19T08:25:04Z</time>
      </trkpt>
      <trkpt lat="44.48192" lon="2.0683">
        <ele>377</ele>
        <time>2017-09-19T08:25:26Z</time>
      </trkpt>
      <trkpt lat="44.48194" lon="2.06826">
        <ele>377</ele>
        <time>2017-09-19T08:25:29Z</time>
      </trkpt>
      <trkpt lat="44.48194" lon="2.06816">
        <ele>377</ele>
        <time>2017-09-19T08:25:35Z</time>
      </trkpt>
      <trkpt lat="44.48195" lon="2.06811">
        <ele>377</ele>
        <time>2017-09-19T08:25:38Z</time>
      </trkpt>
      <trkpt lat="44.48196" lon="2.06806">
        <ele>377</ele>
        <time>2017-09-19T08:25:41Z</time>
      </trkpt>
      <trkpt lat="44.48197" lon="2.06801">
        <ele>377</ele>
        <time>2017-09-19T08:25:44Z</time>
      </trkpt>
      <trkpt lat="44.482" lon="2.06787">
        <ele>377</ele>
        <time>2017-09-19T08:25:53Z</time>
      </trkpt>
      <trkpt lat="44.48202" lon="2.06779">
        <ele>377</ele>
        <time>2017-09-19T08:25:59Z</time>
      </trkpt>
      <trkpt lat="44.48215" lon="2.06732">
        <ele>376</ele>
        <time>2017-09-19T08:26:30Z</time>
      </trkpt>
      <trkpt lat="44.48225" lon="2.06688">
        <ele>376</ele>
        <time>2017-09-19T08:26:57Z</time>
      </trkpt>
      <trkpt lat="44.48226" lon="2.06683">
        <ele>376</ele>
        <time>2017-09-19T08:27:00Z</time>
      </trkpt>
      <trkpt lat="44.48226" lon="2.06679">
        <ele>376</ele>
        <time>2017-09-19T08:27:04Z</time>
      </trkpt>
      <trkpt lat="44.48223" lon="2.06667">
        <ele>376</ele>
        <time>2017-09-19T08:27:15Z</time>
      </trkpt>
      <trkpt lat="44.48221" lon="2.06656">
        <ele>376</ele>
        <time>2017-09-19T08:27:21Z</time>
      </trkpt>
      <trkpt lat="44.48206" lon="2.06606">
        <ele>376</ele>
        <time>2017-09-19T08:27:53Z</time>
      </trkpt>
      <trkpt lat="44.48197" lon="2.06562">
        <ele>376</ele>
        <time>2017-09-19T08:28:19Z</time>
      </trkpt>
      <trkpt lat="44.48196" lon="2.06557">
        <ele>376</ele>
        <time>2017-09-19T08:28:22Z</time>
      </trkpt>
      <trkpt lat="44.48195" lon="2.06551">
        <ele>376</ele>
        <time>2017-09-19T08:28:26Z</time>
      </trkpt>
      <trkpt lat="44.48193" lon="2.06537">
        <ele>376</ele>
        <time>2017-09-19T08:28:35Z</time>
      </trkpt>
      <trkpt lat="44.48184" lon="2.06498">
        <ele>377</ele>
        <time>2017-09-19T08:28:59Z</time>
      </trkpt>
      <trkpt lat="44.48167" lon="2.06448">
        <ele>377</ele>
        <time>2017-09-19T08:29:31Z</time>
      </trkpt>
      <trkpt lat="44.48149" lon="2.06402">
        <ele>378</ele>
        <time>2017-09-19T08:30:03Z</time>
      </trkpt>
      <trkpt lat="44.48147" lon="2.06394">
        <ele>378</ele>
        <time>2017-09-19T08:30:08Z</time>
      </trkpt>
      <trkpt lat="44.48145" lon="2.0639">
        <ele>378</ele>
        <time>2017-09-19T08:30:11Z</time>
      </trkpt>
      <trkpt lat="44.48143" lon="2.06387">
        <ele>378</ele>
        <time>2017-09-19T08:30:28Z</time>
      </trkpt>
      <trkpt lat="44.48142" lon="2.06386">
        <ele>378</ele>
        <time>2017-09-19T08:30:53Z</time>
      </trkpt>
      <trkpt lat="44.4814" lon="2.06382">
        <ele>379</ele>
        <time>2017-09-19T08:31:13Z</time>
      </trkpt>
      <trkpt lat="44.48138" lon="2.0638">
        <ele>379</ele>
        <time>2017-09-19T08:31:29Z</time>
      </trkpt>
      <trkpt lat="44.48137" lon="2.06376">
        <ele>379</ele>
        <time>2017-09-19T08:31:35Z</time>
      </trkpt>
      <trkpt lat="44.48136" lon="2.06373">
        <ele>379</ele>
        <time>2017-09-19T08:31:38Z</time>
      </trkpt>
      <trkpt lat="44.48134" lon="2.0637">
        <ele>379</ele>
        <time>2017-09-19T08:31:41Z</time>
      </trkpt>
      <trkpt lat="44.48112" lon="2.0633">
        <ele>379</ele>
        <time>2017-09-19T08:32:12Z</time>
      </trkpt>
      <trkpt lat="44.48094" lon="2.06295">
        <ele>379</ele>
        <time>2017-09-19T08:32:43Z</time>
      </trkpt>
      <trkpt lat="44.48091" lon="2.06286">
        <ele>379</ele>
        <time>2017-09-19T08:32:50Z</time>
      </trkpt>
      <trkpt lat="44.48088" lon="2.06286">
        <ele>379</ele>
        <time>2017-09-19T08:33:08Z</time>
      </trkpt>
      <trkpt lat="44.48083" lon="2.06279">
        <ele>378</ele>
        <time>2017-09-19T08:33:18Z</time>
      </trkpt>
      <trkpt lat="44.48067" lon="2.06238">
        <ele>378</ele>
        <time>2017-09-19T08:33:47Z</time>
      </trkpt>
      <trkpt lat="44.48066" lon="2.06231">
        <ele>378</ele>
        <time>2017-09-19T08:33:51Z</time>
      </trkpt>
      <trkpt lat="44.48065" lon="2.06228">
        <ele>378</ele>
        <time>2017-09-19T08:33:53Z</time>
      </trkpt>
      <trkpt lat="44.48066" lon="2.06218">
        <ele>378</ele>
        <time>2017-09-19T08:34:00Z</time>
      </trkpt>
      <trkpt lat="44.4806" lon="2.06174">
        <ele>379</ele>
        <time>2017-09-19T08:34:30Z</time>
      </trkpt>
      <trkpt lat="44.48059" lon="2.06169">
        <ele>379</ele>
        <time>2017-09-19T08:34:34Z</time>
      </trkpt>
      <trkpt lat="44.48058" lon="2.06162">
        <ele>380</ele>
        <time>2017-09-19T08:34:39Z</time>
      </trkpt>
      <trkpt lat="44.48058" lon="2.06158">
        <ele>380</ele>
        <time>2017-09-19T08:34:42Z</time>
      </trkpt>
      <trkpt lat="44.48057" lon="2.06147">
        <ele>380</ele>
        <time>2017-09-19T08:34:51Z</time>
      </trkpt>
      <trkpt lat="44.48064" lon="2.061">
        <ele>380</ele>
        <time>2017-09-19T08:35:21Z</time>
      </trkpt>
      <trkpt lat="44.48064" lon="2.06095">
        <ele>381</ele>
        <time>2017-09-19T08:35:25Z</time>
      </trkpt>
      <trkpt lat="44.48067" lon="2.06081">
        <ele>381</ele>
        <time>2017-09-19T08:35:37Z</time>
      </trkpt>
      <trkpt lat="44.48068" lon="2.06075">
        <ele>381</ele>
        <time>2017-09-19T08:35:41Z</time>
      </trkpt>
      <trkpt lat="44.48077" lon="2.06029">
        <ele>380</ele>
        <time>2017-09-19T08:36:12Z</time>
      </trkpt>
      <trkpt lat="44.4808" lon="2.06015">
        <ele>380</ele>
        <time>2017-09-19T08:36:22Z</time>
      </trkpt>
      <trkpt lat="44.48081" lon="2.06011">
        <ele>381</ele>
        <time>2017-09-19T08:36:25Z</time>
      </trkpt>
      <trkpt lat="44.48082" lon="2.06005">
        <ele>381</ele>
        <time>2017-09-19T08:36:29Z</time>
      </trkpt>
      <trkpt lat="44.48087" lon="2.05957">
        <ele>381</ele>
        <time>2017-09-19T08:36:59Z</time>
      </trkpt>
      <trkpt lat="44.48091" lon="2.05937">
        <ele>381</ele>
        <time>2017-09-19T08:37:11Z</time>
      </trkpt>
      <trkpt lat="44.48092" lon="2.05931">
        <ele>381</ele>
        <time>2017-09-19T08:37:15Z</time>
      </trkpt>
      <trkpt lat="44.48091" lon="2.05926">
        <ele>381</ele>
        <time>2017-09-19T08:37:23Z</time>
      </trkpt>
      <trkpt lat="44.48099" lon="2.05877">
        <ele>381</ele>
        <time>2017-09-19T08:37:54Z</time>
      </trkpt>
      <trkpt lat="44.48101" lon="2.05867">
        <ele>380</ele>
        <time>2017-09-19T08:38:01Z</time>
      </trkpt>
      <trkpt lat="44.48102" lon="2.05857">
        <ele>380</ele>
        <time>2017-09-19T08:38:07Z</time>
      </trkpt>
      <trkpt lat="44.48111" lon="2.05814">
        <ele>380</ele>
        <time>2017-09-19T08:38:36Z</time>
      </trkpt>
      <trkpt lat="44.48112" lon="2.05808">
        <ele>380</ele>
        <time>2017-09-19T08:38:40Z</time>
      </trkpt>
      <trkpt lat="44.48112" lon="2.05802">
        <ele>380</ele>
        <time>2017-09-19T08:38:43Z</time>
      </trkpt>
      <trkpt lat="44.48112" lon="2.05797">
        <ele>380</ele>
        <time>2017-09-19T08:38:47Z</time>
      </trkpt>
      <trkpt lat="44.48122" lon="2.05746">
        <ele>379</ele>
        <time>2017-09-19T08:39:17Z</time>
      </trkpt>
      <trkpt lat="44.48122" lon="2.05741">
        <ele>379</ele>
        <time>2017-09-19T08:39:20Z</time>
      </trkpt>
      <trkpt lat="44.48123" lon="2.05735">
        <ele>379</ele>
        <time>2017-09-19T08:39:25Z</time>
      </trkpt>
      <trkpt lat="44.4813" lon="2.05695">
        <ele>379</ele>
        <time>2017-09-19T08:39:52Z</time>
      </trkpt>
      <trkpt lat="44.48132" lon="2.05683">
        <ele>379</ele>
        <time>2017-09-19T08:40:00Z</time>
      </trkpt>
      <trkpt lat="44.48136" lon="2.0566">
        <ele>377</ele>
        <time>2017-09-19T08:40:15Z</time>
      </trkpt>
      <trkpt lat="44.48138" lon="2.05648">
        <ele>377</ele>
        <time>2017-09-19T08:40:22Z</time>
      </trkpt>
      <trkpt lat="44.48139" lon="2.05627">
        <ele>376</ele>
        <time>2017-09-19T08:40:34Z</time>
      </trkpt>
      <trkpt lat="44.48141" lon="2.05622">
        <ele>376</ele>
        <time>2017-09-19T08:40:38Z</time>
      </trkpt>
      <trkpt lat="44.48141" lon="2.05617">
        <ele>376</ele>
        <time>2017-09-19T08:40:41Z</time>
      </trkpt>
      <trkpt lat="44.48148" lon="2.05581">
        <ele>375</ele>
        <time>2017-09-19T08:41:04Z</time>
      </trkpt>
      <trkpt lat="44.48149" lon="2.05569">
        <ele>375</ele>
        <time>2017-09-19T08:41:11Z</time>
      </trkpt>
      <trkpt lat="44.48153" lon="2.05535">
        <ele>374</ele>
        <time>2017-09-19T08:41:32Z</time>
      </trkpt>
      <trkpt lat="44.48154" lon="2.05527">
        <ele>374</ele>
        <time>2017-09-19T08:42:11Z</time>
      </trkpt>
      <trkpt lat="44.48158" lon="2.05505">
        <ele>374</ele>
        <time>2017-09-19T08:42:40Z</time>
      </trkpt>
      <trkpt lat="44.48159" lon="2.05499">
        <ele>374</ele>
        <time>2017-09-19T08:42:45Z</time>
      </trkpt>
      <trkpt lat="44.48162" lon="2.05487">
        <ele>373</ele>
        <time>2017-09-19T08:42:52Z</time>
      </trkpt>
      <trkpt lat="44.48162" lon="2.05468">
        <ele>373</ele>
        <time>2017-09-19T08:43:03Z</time>
      </trkpt>
      <trkpt lat="44.48164" lon="2.05463">
        <ele>373</ele>
        <time>2017-09-19T08:43:08Z</time>
      </trkpt>
      <trkpt lat="44.48166" lon="2.05458">
        <ele>373</ele>
        <time>2017-09-19T08:43:11Z</time>
      </trkpt>
      <trkpt lat="44.4817" lon="2.0541">
        <ele>372</ele>
        <time>2017-09-19T08:43:39Z</time>
      </trkpt>
      <trkpt lat="44.48171" lon="2.05403">
        <ele>371</ele>
        <time>2017-09-19T08:43:43Z</time>
      </trkpt>
      <trkpt lat="44.48173" lon="2.05397">
        <ele>371</ele>
        <time>2017-09-19T08:43:48Z</time>
      </trkpt>
      <trkpt lat="44.48176" lon="2.05385">
        <ele>371</ele>
        <time>2017-09-19T08:43:55Z</time>
      </trkpt>
      <trkpt lat="44.48176" lon="2.0538">
        <ele>371</ele>
        <time>2017-09-19T08:43:58Z</time>
      </trkpt>
      <trkpt lat="44.4818" lon="2.05358">
        <ele>371</ele>
        <time>2017-09-19T08:44:11Z</time>
      </trkpt>
      <trkpt lat="44.48184" lon="2.05329">
        <ele>370</ele>
        <time>2017-09-19T08:44:28Z</time>
      </trkpt>
      <trkpt lat="44.48185" lon="2.05324">
        <ele>370</ele>
        <time>2017-09-19T08:44:31Z</time>
      </trkpt>
      <trkpt lat="44.48189" lon="2.0529">
        <ele>371</ele>
        <time>2017-09-19T08:44:52Z</time>
      </trkpt>
      <trkpt lat="44.4819" lon="2.05284">
        <ele>371</ele>
        <time>2017-09-19T08:44:55Z</time>
      </trkpt>
      <trkpt lat="44.48192" lon="2.05276">
        <ele>371</ele>
        <time>2017-09-19T08:45:00Z</time>
      </trkpt>
      <trkpt lat="44.48194" lon="2.0527">
        <ele>371</ele>
        <time>2017-09-19T08:45:03Z</time>
      </trkpt>
      <trkpt lat="44.48196" lon="2.05263">
        <ele>371</ele>
        <time>2017-09-19T08:45:07Z</time>
      </trkpt>
      <trkpt lat="44.48196" lon="2.05255">
        <ele>371</ele>
        <time>2017-09-19T08:45:11Z</time>
      </trkpt>
      <trkpt lat="44.48197" lon="2.05235">
        <ele>372</ele>
        <time>2017-09-19T08:45:26Z</time>
      </trkpt>
      <trkpt lat="44.48199" lon="2.05229">
        <ele>372</ele>
        <time>2017-09-19T08:45:30Z</time>
      </trkpt>
      <trkpt lat="44.482" lon="2.05223">
        <ele>372</ele>
        <time>2017-09-19T08:45:33Z</time>
      </trkpt>
      <trkpt lat="44.48202" lon="2.05217">
        <ele>372</ele>
        <time>2017-09-19T08:45:36Z</time>
      </trkpt>
      <trkpt lat="44.48205" lon="2.05206">
        <ele>372</ele>
        <time>2017-09-19T08:45:42Z</time>
      </trkpt>
      <trkpt lat="44.48205" lon="2.05199">
        <ele>372</ele>
        <time>2017-09-19T08:45:45Z</time>
      </trkpt>
      <trkpt lat="44.48207" lon="2.05192">
        <ele>372</ele>
        <time>2017-09-19T08:45:49Z</time>
      </trkpt>
      <trkpt lat="44.48208" lon="2.05184">
        <ele>372</ele>
        <time>2017-09-19T08:45:53Z</time>
      </trkpt>
      <trkpt lat="44.4821" lon="2.05178">
        <ele>372</ele>
        <time>2017-09-19T08:45:57Z</time>
      </trkpt>
      <trkpt lat="44.48212" lon="2.05162">
        <ele>373</ele>
        <time>2017-09-19T08:46:07Z</time>
      </trkpt>
      <trkpt lat="44.48214" lon="2.05155">
        <ele>373</ele>
        <time>2017-09-19T08:46:12Z</time>
      </trkpt>
      <trkpt lat="44.48215" lon="2.05148">
        <ele>373</ele>
        <time>2017-09-19T08:46:16Z</time>
      </trkpt>
      <trkpt lat="44.48216" lon="2.0514">
        <ele>373</ele>
        <time>2017-09-19T08:46:20Z</time>
      </trkpt>
      <trkpt lat="44.48218" lon="2.05132">
        <ele>373</ele>
        <time>2017-09-19T08:46:24Z</time>
      </trkpt>
      <trkpt lat="44.48223" lon="2.05073">
        <ele>373</ele>
        <time>2017-09-19T08:46:54Z</time>
      </trkpt>
      <trkpt lat="44.48224" lon="2.05068">
        <ele>373</ele>
        <time>2017-09-19T08:46:58Z</time>
      </trkpt>
      <trkpt lat="44.48228" lon="2.05057">
        <ele>373</ele>
        <time>2017-09-19T08:47:07Z</time>
      </trkpt>
      <trkpt lat="44.48229" lon="2.05044">
        <ele>373</ele>
        <time>2017-09-19T08:47:15Z</time>
      </trkpt>
      <trkpt lat="44.48235" lon="2.05013">
        <ele>372</ele>
        <time>2017-09-19T08:47:33Z</time>
      </trkpt>
      <trkpt lat="44.48238" lon="2.04994">
        <ele>372</ele>
        <time>2017-09-19T08:47:43Z</time>
      </trkpt>
      <trkpt lat="44.48238" lon="2.04989">
        <ele>372</ele>
        <time>2017-09-19T08:47:47Z</time>
      </trkpt>
      <trkpt lat="44.48244" lon="2.04945">
        <ele>372</ele>
        <time>2017-09-19T08:48:12Z</time>
      </trkpt>
      <trkpt lat="44.48248" lon="2.04929">
        <ele>372</ele>
        <time>2017-09-19T08:48:21Z</time>
      </trkpt>
      <trkpt lat="44.48252" lon="2.04891">
        <ele>371</ele>
        <time>2017-09-19T08:48:43Z</time>
      </trkpt>
      <trkpt lat="44.48252" lon="2.04885">
        <ele>371</ele>
        <time>2017-09-19T08:48:46Z</time>
      </trkpt>
      <trkpt lat="44.4826" lon="2.04827">
        <ele>371</ele>
        <time>2017-09-19T08:49:17Z</time>
      </trkpt>
      <trkpt lat="44.48267" lon="2.04782">
        <ele>372</ele>
        <time>2017-09-19T08:49:45Z</time>
      </trkpt>
      <trkpt lat="44.48267" lon="2.04777">
        <ele>372</ele>
        <time>2017-09-19T08:49:47Z</time>
      </trkpt>
      <trkpt lat="44.48267" lon="2.04772">
        <ele>372</ele>
        <time>2017-09-19T08:49:50Z</time>
      </trkpt>
      <trkpt lat="44.48268" lon="2.04766">
        <ele>372</ele>
        <time>2017-09-19T08:49:53Z</time>
      </trkpt>
      <trkpt lat="44.48275" lon="2.04712">
        <ele>373</ele>
        <time>2017-09-19T08:50:23Z</time>
      </trkpt>
      <trkpt lat="44.48276" lon="2.04702">
        <ele>373</ele>
        <time>2017-09-19T08:50:29Z</time>
      </trkpt>
      <trkpt lat="44.48279" lon="2.04686">
        <ele>374</ele>
        <time>2017-09-19T08:50:38Z</time>
      </trkpt>
      <trkpt lat="44.48291" lon="2.04628">
        <ele>375</ele>
        <time>2017-09-19T08:51:10Z</time>
      </trkpt>
      <trkpt lat="44.48295" lon="2.04592">
        <ele>375</ele>
        <time>2017-09-19T08:51:30Z</time>
      </trkpt>
      <trkpt lat="44.48296" lon="2.04588">
        <ele>375</ele>
        <time>2017-09-19T08:51:33Z</time>
      </trkpt>
      <trkpt lat="44.48298" lon="2.04585">
        <ele>375</ele>
        <time>2017-09-19T08:51:41Z</time>
      </trkpt>
      <trkpt lat="44.48299" lon="2.04575">
        <ele>375</ele>
        <time>2017-09-19T08:51:47Z</time>
      </trkpt>
      <trkpt lat="44.48309" lon="2.04528">
        <ele>374</ele>
        <time>2017-09-19T08:52:15Z</time>
      </trkpt>
      <trkpt lat="44.48317" lon="2.04488">
        <ele>373</ele>
        <time>2017-09-19T08:52:39Z</time>
      </trkpt>
      <trkpt lat="44.48317" lon="2.04476">
        <ele>373</ele>
        <time>2017-09-19T08:52:46Z</time>
      </trkpt>
      <trkpt lat="44.48318" lon="2.0447">
        <ele>373</ele>
        <time>2017-09-19T08:52:49Z</time>
      </trkpt>
      <trkpt lat="44.48326" lon="2.04413">
        <ele>373</ele>
        <time>2017-09-19T08:53:21Z</time>
      </trkpt>
      <trkpt lat="44.4833" lon="2.0439">
        <ele>372</ele>
        <time>2017-09-19T08:53:34Z</time>
      </trkpt>
      <trkpt lat="44.48339" lon="2.04343">
        <ele>371</ele>
        <time>2017-09-19T08:54:02Z</time>
      </trkpt>
      <trkpt lat="44.48349" lon="2.04286">
        <ele>371</ele>
        <time>2017-09-19T08:54:33Z</time>
      </trkpt>
      <trkpt lat="44.48352" lon="2.04238">
        <ele>372</ele>
        <time>2017-09-19T08:55:00Z</time>
      </trkpt>
      <trkpt lat="44.48355" lon="2.04224">
        <ele>372</ele>
        <time>2017-09-19T08:55:09Z</time>
      </trkpt>
      <trkpt lat="44.48358" lon="2.04203">
        <ele>372</ele>
        <time>2017-09-19T08:55:21Z</time>
      </trkpt>
      <trkpt lat="44.48359" lon="2.04199">
        <ele>372</ele>
        <time>2017-09-19T08:55:24Z</time>
      </trkpt>
      <trkpt lat="44.48363" lon="2.04142">
        <ele>374</ele>
        <time>2017-09-19T08:55:56Z</time>
      </trkpt>
      <trkpt lat="44.48363" lon="2.04136">
        <ele>374</ele>
        <time>2017-09-19T08:55:59Z</time>
      </trkpt>
      <trkpt lat="44.4837" lon="2.04093">
        <ele>375</ele>
        <time>2017-09-19T08:56:25Z</time>
      </trkpt>
      <trkpt lat="44.48371" lon="2.04082">
        <ele>376</ele>
        <time>2017-09-19T08:56:31Z</time>
      </trkpt>
      <trkpt lat="44.48379" lon="2.04048">
        <ele>376</ele>
        <time>2017-09-19T08:56:51Z</time>
      </trkpt>
      <trkpt lat="44.4838" lon="2.04043">
        <ele>376</ele>
        <time>2017-09-19T08:56:54Z</time>
      </trkpt>
      <trkpt lat="44.48382" lon="2.04024">
        <ele>375</ele>
        <time>2017-09-19T08:57:04Z</time>
      </trkpt>
      <trkpt lat="44.48383" lon="2.04019">
        <ele>375</ele>
        <time>2017-09-19T08:57:07Z</time>
      </trkpt>
      <trkpt lat="44.48383" lon="2.04014">
        <ele>375</ele>
        <time>2017-09-19T08:57:10Z</time>
      </trkpt>
      <trkpt lat="44.48386" lon="2.04002">
        <ele>375</ele>
        <time>2017-09-19T08:57:17Z</time>
      </trkpt>
      <trkpt lat="44.48388" lon="2.03983">
        <ele>374</ele>
        <time>2017-09-19T08:57:28Z</time>
      </trkpt>
      <trkpt lat="44.48389" lon="2.03977">
        <ele>374</ele>
        <time>2017-09-19T08:57:31Z</time>
      </trkpt>
      <trkpt lat="44.48396" lon="2.03952">
        <ele>373</ele>
        <time>2017-09-19T08:57:48Z</time>
      </trkpt>
      <trkpt lat="44.48396" lon="2.03945">
        <ele>373</ele>
        <time>2017-09-19T08:57:52Z</time>
      </trkpt>
      <trkpt lat="44.48397" lon="2.03939">
        <ele>373</ele>
        <time>2017-09-19T08:57:55Z</time>
      </trkpt>
      <trkpt lat="44.48398" lon="2.03926">
        <ele>373</ele>
        <time>2017-09-19T08:58:02Z</time>
      </trkpt>
      <trkpt lat="44.48398" lon="2.03921">
        <ele>373</ele>
        <time>2017-09-19T08:58:09Z</time>
      </trkpt>
      <trkpt lat="44.48396" lon="2.03915">
        <ele>371</ele>
        <time>2017-09-19T08:58:14Z</time>
      </trkpt>
      <trkpt lat="44.48397" lon="2.0391">
        <ele>371</ele>
        <time>2017-09-19T08:58:19Z</time>
      </trkpt>
      <trkpt lat="44.48396" lon="2.03904">
        <ele>371</ele>
        <time>2017-09-19T08:58:23Z</time>
      </trkpt>
      <trkpt lat="44.484" lon="2.03883">
        <ele>371</ele>
        <time>2017-09-19T08:58:35Z</time>
      </trkpt>
      <trkpt lat="44.48401" lon="2.03877">
        <ele>370</ele>
        <time>2017-09-19T08:58:38Z</time>
      </trkpt>
      <trkpt lat="44.48404" lon="2.03853">
        <ele>370</ele>
        <time>2017-09-19T08:58:54Z</time>
      </trkpt>
      <trkpt lat="44.48411" lon="2.03799">
        <ele>368</ele>
        <time>2017-09-19T08:59:26Z</time>
      </trkpt>
      <trkpt lat="44.48413" lon="2.03772">
        <ele>367</ele>
        <time>2017-09-19T08:59:43Z</time>
      </trkpt>
      <trkpt lat="44.48414" lon="2.03766">
        <ele>367</ele>
        <time>2017-09-19T08:59:47Z</time>
      </trkpt>
      <trkpt lat="44.48415" lon="2.0376">
        <ele>367</ele>
        <time>2017-09-19T08:59:51Z</time>
      </trkpt>
      <trkpt lat="44.48416" lon="2.03752">
        <ele>366</ele>
        <time>2017-09-19T08:59:55Z</time>
      </trkpt>
      <trkpt lat="44.48419" lon="2.03747">
        <ele>366</ele>
        <time>2017-09-19T08:59:59Z</time>
      </trkpt>
      <trkpt lat="44.4842" lon="2.03742">
        <ele>365</ele>
        <time>2017-09-19T09:00:04Z</time>
      </trkpt>
      <trkpt lat="44.4842" lon="2.03736">
        <ele>365</ele>
        <time>2017-09-19T09:00:08Z</time>
      </trkpt>
      <trkpt lat="44.48419" lon="2.03732">
        <ele>364</ele>
        <time>2017-09-19T09:00:11Z</time>
      </trkpt>
      <trkpt lat="44.4842" lon="2.03728">
        <ele>364</ele>
        <time>2017-09-19T09:00:14Z</time>
      </trkpt>
      <trkpt lat="44.48421" lon="2.03722">
        <ele>364</ele>
        <time>2017-09-19T09:00:18Z</time>
      </trkpt>
      <trkpt lat="44.48423" lon="2.03717">
        <ele>364</ele>
        <time>2017-09-19T09:00:22Z</time>
      </trkpt>
      <trkpt lat="44.48423" lon="2.03712">
        <ele>363</ele>
        <time>2017-09-19T09:00:25Z</time>
      </trkpt>
      <trkpt lat="44.48422" lon="2.03708">
        <ele>363</ele>
        <time>2017-09-19T09:00:28Z</time>
      </trkpt>
      <trkpt lat="44.48424" lon="2.03684">
        <ele>363</ele>
        <time>2017-09-19T09:00:43Z</time>
      </trkpt>
      <trkpt lat="44.48426" lon="2.03674">
        <ele>362</ele>
        <time>2017-09-19T09:00:49Z</time>
      </trkpt>
      <trkpt lat="44.48429" lon="2.0365">
        <ele>361</ele>
        <time>2017-09-19T09:01:05Z</time>
      </trkpt>
      <trkpt lat="44.4843" lon="2.03628">
        <ele>360</ele>
        <time>2017-09-19T09:01:17Z</time>
      </trkpt>
      <trkpt lat="44.48431" lon="2.03623">
        <ele>360</ele>
        <time>2017-09-19T09:01:20Z</time>
      </trkpt>
      <trkpt lat="44.48436" lon="2.0358">
        <ele>358</ele>
        <time>2017-09-19T09:01:44Z</time>
      </trkpt>
      <trkpt lat="44.48437" lon="2.03576">
        <ele>358</ele>
        <time>2017-09-19T09:01:47Z</time>
      </trkpt>
      <trkpt lat="44.48437" lon="2.03571">
        <ele>358</ele>
        <time>2017-09-19T09:01:51Z</time>
      </trkpt>
      <trkpt lat="44.48438" lon="2.03556">
        <ele>358</ele>
        <time>2017-09-19T09:02:00Z</time>
      </trkpt>
      <trkpt lat="44.48441" lon="2.03536">
        <ele>358</ele>
        <time>2017-09-19T09:02:11Z</time>
      </trkpt>
      <trkpt lat="44.48445" lon="2.03509">
        <ele>357</ele>
        <time>2017-09-19T09:02:28Z</time>
      </trkpt>
      <trkpt lat="44.48445" lon="2.03503">
        <ele>357</ele>
        <time>2017-09-19T09:02:31Z</time>
      </trkpt>
      <trkpt lat="44.48446" lon="2.03492">
        <ele>356</ele>
        <time>2017-09-19T09:02:38Z</time>
      </trkpt>
      <trkpt lat="44.48446" lon="2.03488">
        <ele>356</ele>
        <time>2017-09-19T09:02:41Z</time>
      </trkpt>
      <trkpt lat="44.48447" lon="2.03466">
        <ele>356</ele>
        <time>2017-09-19T09:02:53Z</time>
      </trkpt>
      <trkpt lat="44.48447" lon="2.03431">
        <ele>355</ele>
        <time>2017-09-19T09:03:12Z</time>
      </trkpt>
      <trkpt lat="44.4845" lon="2.03399">
        <ele>353</ele>
        <time>2017-09-19T09:03:31Z</time>
      </trkpt>
      <trkpt lat="44.48451" lon="2.03393">
        <ele>353</ele>
        <time>2017-09-19T09:03:35Z</time>
      </trkpt>
      <trkpt lat="44.48453" lon="2.03375">
        <ele>352</ele>
        <time>2017-09-19T09:03:47Z</time>
      </trkpt>
      <trkpt lat="44.48455" lon="2.03368">
        <ele>352</ele>
        <time>2017-09-19T09:03:51Z</time>
      </trkpt>
      <trkpt lat="44.48457" lon="2.03364">
        <ele>352</ele>
        <time>2017-09-19T09:03:55Z</time>
      </trkpt>
      <trkpt lat="44.48462" lon="2.03353">
        <ele>352</ele>
        <time>2017-09-19T09:04:02Z</time>
      </trkpt>
      <trkpt lat="44.48463" lon="2.03348">
        <ele>352</ele>
        <time>2017-09-19T09:04:05Z</time>
      </trkpt>
      <trkpt lat="44.48478" lon="2.03311">
        <ele>350</ele>
        <time>2017-09-19T09:04:30Z</time>
      </trkpt>
      <trkpt lat="44.48481" lon="2.03305">
        <ele>350</ele>
        <time>2017-09-19T09:04:33Z</time>
      </trkpt>
      <trkpt lat="44.48487" lon="2.03291">
        <ele>350</ele>
        <time>2017-09-19T09:04:42Z</time>
      </trkpt>
      <trkpt lat="44.48499" lon="2.03243">
        <ele>349</ele>
        <time>2017-09-19T09:05:12Z</time>
      </trkpt>
      <trkpt lat="44.48508" lon="2.03197">
        <ele>347</ele>
        <time>2017-09-19T09:05:40Z</time>
      </trkpt>
      <trkpt lat="44.48513" lon="2.03191">
        <ele>347</ele>
        <time>2017-09-19T09:05:46Z</time>
      </trkpt>
      <trkpt lat="44.48514" lon="2.03189">
        <ele>347</ele>
        <time>2017-09-19T09:05:49Z</time>
      </trkpt>
      <trkpt lat="44.4852" lon="2.03163">
        <ele>346</ele>
        <time>2017-09-19T09:06:14Z</time>
      </trkpt>
      <trkpt lat="44.48532" lon="2.03134">
        <ele>345</ele>
        <time>2017-09-19T09:06:34Z</time>
      </trkpt>
      <trkpt lat="44.48533" lon="2.03132">
        <ele>345</ele>
        <time>2017-09-19T09:06:36Z</time>
      </trkpt>
      <trkpt lat="44.48535" lon="2.0313">
        <ele>345</ele>
        <time>2017-09-19T09:06:40Z</time>
      </trkpt>
      <trkpt lat="44.48543" lon="2.03117">
        <ele>344</ele>
        <time>2017-09-19T09:06:49Z</time>
      </trkpt>
      <trkpt lat="44.48544" lon="2.03115">
        <ele>344</ele>
        <time>2017-09-19T09:06:51Z</time>
      </trkpt>
      <trkpt lat="44.48545" lon="2.03112">
        <ele>344</ele>
        <time>2017-09-19T09:06:53Z</time>
      </trkpt>
      <trkpt lat="44.48547" lon="2.0311">
        <ele>344</ele>
        <time>2017-09-19T09:06:57Z</time>
      </trkpt>
      <trkpt lat="44.48548" lon="2.03108">
        <ele>344</ele>
        <time>2017-09-19T09:07:01Z</time>
      </trkpt>
      <trkpt lat="44.48549" lon="2.0311">
        <ele>344</ele>
        <time>2017-09-19T09:07:07Z</time>
      </trkpt>
      <trkpt lat="44.48549" lon="2.03109">
        <ele>344</ele>
        <time>2017-09-19T09:07:51Z</time>
      </trkpt>
      <trkpt lat="44.48553" lon="2.03105">
        <ele>344</ele>
        <time>2017-09-19T09:08:00Z</time>
      </trkpt>
      <trkpt lat="44.48562" lon="2.031">
        <ele>344</ele>
        <time>2017-09-19T09:08:09Z</time>
      </trkpt>
      <trkpt lat="44.48569" lon="2.03097">
        <ele>344</ele>
        <time>2017-09-19T09:08:16Z</time>
      </trkpt>
      <trkpt lat="44.48573" lon="2.03095">
        <ele>344</ele>
        <time>2017-09-19T09:08:20Z</time>
      </trkpt>
      <trkpt lat="44.48576" lon="2.03093">
        <ele>344</ele>
        <time>2017-09-19T09:08:23Z</time>
      </trkpt>
      <trkpt lat="44.48578" lon="2.0309">
        <ele>344</ele>
        <time>2017-09-19T09:08:25Z</time>
      </trkpt>
      <trkpt lat="44.48591" lon="2.03078">
        <ele>343</ele>
        <time>2017-09-19T09:08:41Z</time>
      </trkpt>
      <trkpt lat="44.48595" lon="2.03074">
        <ele>343</ele>
        <time>2017-09-19T09:08:46Z</time>
      </trkpt>
      <trkpt lat="44.48597" lon="2.03073">
        <ele>343</ele>
        <time>2017-09-19T09:08:48Z</time>
      </trkpt>
      <trkpt lat="44.48606" lon="2.03076">
        <ele>342</ele>
        <time>2017-09-19T09:08:55Z</time>
      </trkpt>
      <trkpt lat="44.48625" lon="2.03078">
        <ele>342</ele>
        <time>2017-09-19T09:09:15Z</time>
      </trkpt>
      <trkpt lat="44.48632" lon="2.03079">
        <ele>342</ele>
        <time>2017-09-19T09:09:20Z</time>
      </trkpt>
      <trkpt lat="44.48635" lon="2.03081">
        <ele>342</ele>
        <time>2017-09-19T09:09:23Z</time>
      </trkpt>
      <trkpt lat="44.48647" lon="2.03086">
        <ele>342</ele>
        <time>2017-09-19T09:09:33Z</time>
      </trkpt>
      <trkpt lat="44.48659" lon="2.03096">
        <ele>342</ele>
        <time>2017-09-19T09:09:45Z</time>
      </trkpt>
      <trkpt lat="44.48661" lon="2.03099">
        <ele>342</ele>
        <time>2017-09-19T09:09:49Z</time>
      </trkpt>
      <trkpt lat="44.4867" lon="2.03103">
        <ele>341</ele>
        <time>2017-09-19T09:09:59Z</time>
      </trkpt>
      <trkpt lat="44.48677" lon="2.03109">
        <ele>341</ele>
        <time>2017-09-19T09:10:06Z</time>
      </trkpt>
      <trkpt lat="44.48693" lon="2.03115">
        <ele>341</ele>
        <time>2017-09-19T09:10:17Z</time>
      </trkpt>
      <trkpt lat="44.48696" lon="2.03116">
        <ele>341</ele>
        <time>2017-09-19T09:10:20Z</time>
      </trkpt>
      <trkpt lat="44.48699" lon="2.03118">
        <ele>341</ele>
        <time>2017-09-19T09:10:24Z</time>
      </trkpt>
      <trkpt lat="44.48706" lon="2.03121">
        <ele>341</ele>
        <time>2017-09-19T09:10:30Z</time>
      </trkpt>
      <trkpt lat="44.48709" lon="2.03121">
        <ele>341</ele>
        <time>2017-09-19T09:10:32Z</time>
      </trkpt>
      <trkpt lat="44.48714" lon="2.03122">
        <ele>341</ele>
        <time>2017-09-19T09:10:37Z</time>
      </trkpt>
      <trkpt lat="44.48718" lon="2.03124">
        <ele>341</ele>
        <time>2017-09-19T09:10:42Z</time>
      </trkpt>
      <trkpt lat="44.48723" lon="2.03124">
        <ele>341</ele>
        <time>2017-09-19T09:10:47Z</time>
      </trkpt>
      <trkpt lat="44.48733" lon="2.03126">
        <ele>341</ele>
        <time>2017-09-19T09:10:57Z</time>
      </trkpt>
      <trkpt lat="44.48736" lon="2.03127">
        <ele>341</ele>
        <time>2017-09-19T09:11:00Z</time>
      </trkpt>
      <trkpt lat="44.48745" lon="2.03131">
        <ele>341</ele>
        <time>2017-09-19T09:11:17Z</time>
      </trkpt>
      <trkpt lat="44.48778" lon="2.03147">
        <ele>341</ele>
        <time>2017-09-19T09:11:47Z</time>
      </trkpt>
      <trkpt lat="44.4881" lon="2.03177">
        <ele>343</ele>
        <time>2017-09-19T09:12:18Z</time>
      </trkpt>
      <trkpt lat="44.48828" lon="2.03209">
        <ele>344</ele>
        <time>2017-09-19T09:12:43Z</time>
      </trkpt>
      <trkpt lat="44.48832" lon="2.03214">
        <ele>344</ele>
        <time>2017-09-19T09:12:48Z</time>
      </trkpt>
      <trkpt lat="44.48835" lon="2.03214">
        <ele>344</ele>
        <time>2017-09-19T09:12:53Z</time>
      </trkpt>
      <trkpt lat="44.48838" lon="2.03214">
        <ele>344</ele>
        <time>2017-09-19T09:12:57Z</time>
      </trkpt>
      <trkpt lat="44.48851" lon="2.03213">
        <ele>344</ele>
        <time>2017-09-19T09:13:09Z</time>
      </trkpt>
      <trkpt lat="44.48854" lon="2.03213">
        <ele>344</ele>
        <time>2017-09-19T09:13:11Z</time>
      </trkpt>
      <trkpt lat="44.48861" lon="2.03212">
        <ele>344</ele>
        <time>2017-09-19T09:13:16Z</time>
      </trkpt>
      <trkpt lat="44.48868" lon="2.03205">
        <ele>343</ele>
        <time>2017-09-19T09:13:23Z</time>
      </trkpt>
      <trkpt lat="44.48876" lon="2.0319">
        <ele>343</ele>
        <time>2017-09-19T09:13:36Z</time>
      </trkpt>
      <trkpt lat="44.4888" lon="2.03187">
        <ele>343</ele>
        <time>2017-09-19T09:13:39Z</time>
      </trkpt>
      <trkpt lat="44.48883" lon="2.03185">
        <ele>343</ele>
        <time>2017-09-19T09:13:42Z</time>
      </trkpt>
      <trkpt lat="44.48887" lon="2.03175">
        <ele>342</ele>
        <time>2017-09-19T09:13:49Z</time>
      </trkpt>
      <trkpt lat="44.48888" lon="2.03171">
        <ele>342</ele>
        <time>2017-09-19T09:13:52Z</time>
      </trkpt>
      <trkpt lat="44.48894" lon="2.03163">
        <ele>340</ele>
        <time>2017-09-19T09:13:59Z</time>
      </trkpt>
      <trkpt lat="44.48897" lon="2.0316">
        <ele>340</ele>
        <time>2017-09-19T09:14:02Z</time>
      </trkpt>
      <trkpt lat="44.48899" lon="2.03155">
        <ele>340</ele>
        <time>2017-09-19T09:14:07Z</time>
      </trkpt>
      <trkpt lat="44.48903" lon="2.0315">
        <ele>340</ele>
        <time>2017-09-19T09:14:10Z</time>
      </trkpt>
      <trkpt lat="44.48911" lon="2.03134">
        <ele>340</ele>
        <time>2017-09-19T09:14:24Z</time>
      </trkpt>
      <trkpt lat="44.48913" lon="2.03131">
        <ele>340</ele>
        <time>2017-09-19T09:14:30Z</time>
      </trkpt>
      <trkpt lat="44.48918" lon="2.03121">
        <ele>338</ele>
        <time>2017-09-19T09:14:35Z</time>
      </trkpt>
      <trkpt lat="44.48921" lon="2.03116">
        <ele>338</ele>
        <time>2017-09-19T09:14:39Z</time>
      </trkpt>
      <trkpt lat="44.48925" lon="2.03112">
        <ele>338</ele>
        <time>2017-09-19T09:14:43Z</time>
      </trkpt>
      <trkpt lat="44.48932" lon="2.03102">
        <ele>338</ele>
        <time>2017-09-19T09:14:53Z</time>
      </trkpt>
      <trkpt lat="44.48935" lon="2.03098">
        <ele>338</ele>
        <time>2017-09-19T09:14:57Z</time>
      </trkpt>
      <trkpt lat="44.48939" lon="2.03092">
        <ele>338</ele>
        <time>2017-09-19T09:15:04Z</time>
      </trkpt>
      <trkpt lat="44.48944" lon="2.03087">
        <ele>338</ele>
        <time>2017-09-19T09:15:13Z</time>
      </trkpt>
      <trkpt lat="44.48949" lon="2.03083">
        <ele>337</ele>
        <time>2017-09-19T09:15:18Z</time>
      </trkpt>
      <trkpt lat="44.48955" lon="2.03072">
        <ele>337</ele>
        <time>2017-09-19T09:15:27Z</time>
      </trkpt>
      <trkpt lat="44.48959" lon="2.03059">
        <ele>336</ele>
        <time>2017-09-19T09:15:38Z</time>
      </trkpt>
      <trkpt lat="44.48963" lon="2.03053">
        <ele>336</ele>
        <time>2017-09-19T09:15:43Z</time>
      </trkpt>
      <trkpt lat="44.48967" lon="2.03047">
        <ele>336</ele>
        <time>2017-09-19T09:15:48Z</time>
      </trkpt>
      <trkpt lat="44.4897" lon="2.0304">
        <ele>336</ele>
        <time>2017-09-19T09:15:53Z</time>
      </trkpt>
      <trkpt lat="44.48973" lon="2.03034">
        <ele>336</ele>
        <time>2017-09-19T09:15:57Z</time>
      </trkpt>
      <trkpt lat="44.48976" lon="2.0303">
        <ele>336</ele>
        <time>2017-09-19T09:16:01Z</time>
      </trkpt>
      <trkpt lat="44.48979" lon="2.03023">
        <ele>336</ele>
        <time>2017-09-19T09:16:17Z</time>
      </trkpt>
      <trkpt lat="44.48989" lon="2.03">
        <ele>336</ele>
        <time>2017-09-19T09:16:33Z</time>
      </trkpt>
      <trkpt lat="44.48991" lon="2.02996">
        <ele>336</ele>
        <time>2017-09-19T09:16:37Z</time>
      </trkpt>
      <trkpt lat="44.48994" lon="2.02989">
        <ele>336</ele>
        <time>2017-09-19T09:16:42Z</time>
      </trkpt>
      <trkpt lat="44.49005" lon="2.02964">
        <ele>338</ele>
        <time>2017-09-19T09:16:58Z</time>
      </trkpt>
      <trkpt lat="44.49007" lon="2.02959">
        <ele>338</ele>
        <time>2017-09-19T09:17:02Z</time>
      </trkpt>
      <trkpt lat="44.49011" lon="2.02953">
        <ele>338</ele>
        <time>2017-09-19T09:17:07Z</time>
      </trkpt>
      <trkpt lat="44.49019" lon="2.02926">
        <ele>338</ele>
        <time>2017-09-19T09:17:24Z</time>
      </trkpt>
      <trkpt lat="44.49021" lon="2.02919">
        <ele>338</ele>
        <time>2017-09-19T09:17:29Z</time>
      </trkpt>
      <trkpt lat="44.49027" lon="2.02909">
        <ele>339</ele>
        <time>2017-09-19T09:17:37Z</time>
      </trkpt>
      <trkpt lat="44.49028" lon="2.02901">
        <ele>339</ele>
        <time>2017-09-19T09:17:42Z</time>
      </trkpt>
      <trkpt lat="44.49031" lon="2.02888">
        <ele>339</ele>
        <time>2017-09-19T09:17:50Z</time>
      </trkpt>
      <trkpt lat="44.49033" lon="2.02882">
        <ele>339</ele>
        <time>2017-09-19T09:17:53Z</time>
      </trkpt>
      <trkpt lat="44.49036" lon="2.02878">
        <ele>339</ele>
        <time>2017-09-19T09:17:57Z</time>
      </trkpt>
      <trkpt lat="44.49038" lon="2.02872">
        <ele>339</ele>
        <time>2017-09-19T09:18:03Z</time>
      </trkpt>
      <trkpt lat="44.49042" lon="2.02867">
        <ele>339</ele>
        <time>2017-09-19T09:18:06Z</time>
      </trkpt>
      <trkpt lat="44.49047" lon="2.02863">
        <ele>339</ele>
        <time>2017-09-19T09:18:11Z</time>
      </trkpt>
      <trkpt lat="44.4905" lon="2.02861">
        <ele>339</ele>
        <time>2017-09-19T09:18:14Z</time>
      </trkpt>
      <trkpt lat="44.49054" lon="2.02856">
        <ele>339</ele>
        <time>2017-09-19T09:18:20Z</time>
      </trkpt>
      <trkpt lat="44.49058" lon="2.02856">
        <ele>339</ele>
        <time>2017-09-19T09:18:24Z</time>
      </trkpt>
      <trkpt lat="44.4905" lon="2.02836">
        <ele>339</ele>
        <time>2017-09-19T09:18:47Z</time>
      </trkpt>
      <trkpt lat="44.49057" lon="2.0283">
        <ele>339</ele>
        <time>2017-09-19T09:18:52Z</time>
      </trkpt>
      <trkpt lat="44.49058" lon="2.02822">
        <ele>339</ele>
        <time>2017-09-19T09:18:57Z</time>
      </trkpt>
      <trkpt lat="44.49064" lon="2.02807">
        <ele>339</ele>
        <time>2017-09-19T09:19:21Z</time>
      </trkpt>
      <trkpt lat="44.49066" lon="2.02804">
        <ele>339</ele>
        <time>2017-09-19T09:19:23Z</time>
      </trkpt>
      <trkpt lat="44.49067" lon="2.028">
        <ele>339</ele>
        <time>2017-09-19T09:19:26Z</time>
      </trkpt>
      <trkpt lat="44.49065" lon="2.02798">
        <ele>339</ele>
        <time>2017-09-19T09:19:29Z</time>
      </trkpt>
      <trkpt lat="44.49063" lon="2.02799">
        <ele>339</ele>
        <time>2017-09-19T09:19:32Z</time>
      </trkpt>
      <trkpt lat="44.4906" lon="2.028">
        <ele>339</ele>
        <time>2017-09-19T09:19:35Z</time>
      </trkpt>
      <trkpt lat="44.49074" lon="2.02805">
        <ele>339</ele>
        <time>2017-09-19T09:21:33Z</time>
      </trkpt>
      <trkpt lat="44.49071" lon="2.02805">
        <ele>339</ele>
        <time>2017-09-19T09:20:27Z</time>
      </trkpt>
      <trkpt lat="44.49071" lon="2.02804">
        <ele>339</ele>
        <time>2017-09-19T09:21:06Z</time>
      </trkpt>
      <trkpt lat="44.49074" lon="2.02806">
        <ele>339</ele>
        <time>2017-09-19T09:21:33Z</time>
      </trkpt>
      <trkpt lat="44.49077" lon="2.02804">
        <ele>339</ele>
        <time>2017-09-19T09:21:36Z</time>
      </trkpt>
      <trkpt lat="44.49086" lon="2.02798">
        <ele>340</ele>
        <time>2017-09-19T09:21:48Z</time>
      </trkpt>
      <trkpt lat="44.4909" lon="2.02795">
        <ele>340</ele>
        <time>2017-09-19T09:21:51Z</time>
      </trkpt>
      <trkpt lat="44.49094" lon="2.02793">
        <ele>340</ele>
        <time>2017-09-19T09:22:11Z</time>
      </trkpt>
      <trkpt lat="44.49099" lon="2.02792">
        <ele>340</ele>
        <time>2017-09-19T09:22:15Z</time>
      </trkpt>
      <trkpt lat="44.49105" lon="2.02789">
        <ele>340</ele>
        <time>2017-09-19T09:22:22Z</time>
      </trkpt>
      <trkpt lat="44.49111" lon="2.02785">
        <ele>340</ele>
        <time>2017-09-19T09:22:30Z</time>
      </trkpt>
      <trkpt lat="44.49131" lon="2.02779">
        <ele>340</ele>
        <time>2017-09-19T09:22:43Z</time>
      </trkpt>
      <trkpt lat="44.49143" lon="2.02773">
        <ele>340</ele>
        <time>2017-09-19T09:22:49Z</time>
      </trkpt>
      <trkpt lat="44.49147" lon="2.02771">
        <ele>340</ele>
        <time>2017-09-19T09:22:53Z</time>
      </trkpt>
      <trkpt lat="44.4915" lon="2.02769">
        <ele>340</ele>
        <time>2017-09-19T09:22:55Z</time>
      </trkpt>
      <trkpt lat="44.49152" lon="2.02767">
        <ele>340</ele>
        <time>2017-09-19T09:22:57Z</time>
      </trkpt>
      <trkpt lat="44.49153" lon="2.02765">
        <ele>340</ele>
        <time>2017-09-19T09:22:59Z</time>
      </trkpt>
      <trkpt lat="44.49153" lon="2.02762">
        <ele>340</ele>
        <time>2017-09-19T09:23:01Z</time>
      </trkpt>
      <trkpt lat="44.49154" lon="2.02759">
        <ele>340</ele>
        <time>2017-09-19T09:23:03Z</time>
      </trkpt>
      <trkpt lat="44.49143" lon="2.02706">
        <ele>339</ele>
        <time>2017-09-19T09:23:34Z</time>
      </trkpt>
      <trkpt lat="44.49143" lon="2.02704">
        <ele>339</ele>
        <time>2017-09-19T09:23:35Z</time>
      </trkpt>
      <trkpt lat="44.49142" lon="2.02695">
        <ele>339</ele>
        <time>2017-09-19T09:23:40Z</time>
      </trkpt>
      <trkpt lat="44.49135" lon="2.02661">
        <ele>337</ele>
        <time>2017-09-19T09:23:59Z</time>
      </trkpt>
      <trkpt lat="44.49134" lon="2.02657">
        <ele>337</ele>
        <time>2017-09-19T09:24:01Z</time>
      </trkpt>
      <trkpt lat="44.49131" lon="2.02651">
        <ele>337</ele>
        <time>2017-09-19T09:24:13Z</time>
      </trkpt>
      <trkpt lat="44.49129" lon="2.02647">
        <ele>337</ele>
        <time>2017-09-19T09:24:17Z</time>
      </trkpt>
      <trkpt lat="44.49123" lon="2.02644">
        <ele>337</ele>
        <time>2017-09-19T09:24:22Z</time>
      </trkpt>
      <trkpt lat="44.49119" lon="2.02635">
        <ele>337</ele>
        <time>2017-09-19T09:24:35Z</time>
      </trkpt>
      <trkpt lat="44.49118" lon="2.02633">
        <ele>337</ele>
        <time>2017-09-19T09:24:55Z</time>
      </trkpt>
      <trkpt lat="44.49116" lon="2.02633">
        <ele>337</ele>
        <time>2017-09-19T09:25:27Z</time>
      </trkpt>
      <trkpt lat="44.49118" lon="2.02636">
        <ele>337</ele>
        <time>2017-09-19T09:25:33Z</time>
      </trkpt>
      <trkpt lat="44.4912" lon="2.0264">
        <ele>337</ele>
        <time>2017-09-19T09:25:37Z</time>
      </trkpt>
      <trkpt lat="44.49126" lon="2.02644">
        <ele>337</ele>
        <time>2017-09-19T09:25:42Z</time>
      </trkpt>
      <trkpt lat="44.49129" lon="2.02642">
        <ele>337</ele>
        <time>2017-09-19T09:25:46Z</time>
      </trkpt>
      <trkpt lat="44.49129" lon="2.02637">
        <ele>337</ele>
        <time>2017-09-19T09:25:49Z</time>
      </trkpt>
      <trkpt lat="44.49123" lon="2.02608">
        <ele>337</ele>
        <time>2017-09-19T09:26:08Z</time>
      </trkpt>
      <trkpt lat="44.49119" lon="2.02597">
        <ele>337</ele>
        <time>2017-09-19T09:26:20Z</time>
      </trkpt>
      <trkpt lat="44.49117" lon="2.0258">
        <ele>336</ele>
        <time>2017-09-19T09:26:30Z</time>
      </trkpt>
      <trkpt lat="44.49117" lon="2.02575">
        <ele>336</ele>
        <time>2017-09-19T09:26:33Z</time>
      </trkpt>
      <trkpt lat="44.49123" lon="2.02548">
        <ele>336</ele>
        <time>2017-09-19T09:26:54Z</time>
      </trkpt>
      <trkpt lat="44.49128" lon="2.02537">
        <ele>336</ele>
        <time>2017-09-19T09:27:02Z</time>
      </trkpt>
      <trkpt lat="44.4913" lon="2.02531">
        <ele>336</ele>
        <time>2017-09-19T09:27:06Z</time>
      </trkpt>
      <trkpt lat="44.49145" lon="2.0249">
        <ele>335</ele>
        <time>2017-09-19T09:27:38Z</time>
      </trkpt>
      <trkpt lat="44.49147" lon="2.02485">
        <ele>335</ele>
        <time>2017-09-19T09:27:42Z</time>
      </trkpt>
      <trkpt lat="44.49159" lon="2.02449">
        <ele>335</ele>
        <time>2017-09-19T09:28:07Z</time>
      </trkpt>
      <trkpt lat="44.49162" lon="2.02442">
        <ele>335</ele>
        <time>2017-09-19T09:28:12Z</time>
      </trkpt>
      <trkpt lat="44.49165" lon="2.02437">
        <ele>335</ele>
        <time>2017-09-19T09:28:16Z</time>
      </trkpt>
      <trkpt lat="44.49166" lon="2.0243">
        <ele>335</ele>
        <time>2017-09-19T09:28:19Z</time>
      </trkpt>
      <trkpt lat="44.49167" lon="2.02424">
        <ele>335</ele>
        <time>2017-09-19T09:28:23Z</time>
      </trkpt>
      <trkpt lat="44.49174" lon="2.02401">
        <ele>334</ele>
        <time>2017-09-19T09:28:37Z</time>
      </trkpt>
      <trkpt lat="44.49173" lon="2.02383">
        <ele>334</ele>
        <time>2017-09-19T09:28:47Z</time>
      </trkpt>
      <trkpt lat="44.49168" lon="2.02366">
        <ele>334</ele>
        <time>2017-09-19T09:28:56Z</time>
      </trkpt>
      <trkpt lat="44.49159" lon="2.02332">
        <ele>336</ele>
        <time>2017-09-19T09:29:16Z</time>
      </trkpt>
      <trkpt lat="44.49157" lon="2.02328">
        <ele>336</ele>
        <time>2017-09-19T09:29:19Z</time>
      </trkpt>
      <trkpt lat="44.49151" lon="2.02275">
        <ele>336</ele>
        <time>2017-09-19T09:29:50Z</time>
      </trkpt>
      <trkpt lat="44.4915" lon="2.02269">
        <ele>336</ele>
        <time>2017-09-19T09:29:53Z</time>
      </trkpt>
      <trkpt lat="44.4915" lon="2.02263">
        <ele>336</ele>
        <time>2017-09-19T09:29:57Z</time>
      </trkpt>
      <trkpt lat="44.49144" lon="2.02245">
        <ele>336</ele>
        <time>2017-09-19T09:30:06Z</time>
      </trkpt>
      <trkpt lat="44.49118" lon="2.02226">
        <ele>335</ele>
        <time>2017-09-19T09:30:29Z</time>
      </trkpt>
      <trkpt lat="44.49113" lon="2.02224">
        <ele>335</ele>
        <time>2017-09-19T09:30:33Z</time>
      </trkpt>
      <trkpt lat="44.491" lon="2.02216">
        <ele>335</ele>
        <time>2017-09-19T09:30:43Z</time>
      </trkpt>
      <trkpt lat="44.49094" lon="2.02215">
        <ele>335</ele>
        <time>2017-09-19T09:30:46Z</time>
      </trkpt>
      <trkpt lat="44.49091" lon="2.02215">
        <ele>335</ele>
        <time>2017-09-19T09:32:33Z</time>
      </trkpt>
      <trkpt lat="44.49089" lon="2.02211">
        <ele>335</ele>
        <time>2017-09-19T09:32:38Z</time>
      </trkpt>
      <trkpt lat="44.49086" lon="2.02207">
        <ele>335</ele>
        <time>2017-09-19T09:32:41Z</time>
      </trkpt>
      <trkpt lat="44.49082" lon="2.02205">
        <ele>333</ele>
        <time>2017-09-19T09:32:46Z</time>
      </trkpt>
      <trkpt lat="44.49078" lon="2.022">
        <ele>333</ele>
        <time>2017-09-19T09:32:50Z</time>
      </trkpt>
      <trkpt lat="44.49075" lon="2.02196">
        <ele>333</ele>
        <time>2017-09-19T09:32:54Z</time>
      </trkpt>
      <trkpt lat="44.49071" lon="2.02191">
        <ele>333</ele>
        <time>2017-09-19T09:32:59Z</time>
      </trkpt>
      <trkpt lat="44.49068" lon="2.02186">
        <ele>333</ele>
        <time>2017-09-19T09:33:03Z</time>
      </trkpt>
      <trkpt lat="44.49061" lon="2.02174">
        <ele>333</ele>
        <time>2017-09-19T09:33:10Z</time>
      </trkpt>
      <trkpt lat="44.49057" lon="2.02167">
        <ele>332</ele>
        <time>2017-09-19T09:33:14Z</time>
      </trkpt>
      <trkpt lat="44.49056" lon="2.02162">
        <ele>331</ele>
        <time>2017-09-19T09:33:17Z</time>
      </trkpt>
      <trkpt lat="44.49031" lon="2.02116">
        <ele>330</ele>
        <time>2017-09-19T09:33:47Z</time>
      </trkpt>
      <trkpt lat="44.49022" lon="2.021">
        <ele>329</ele>
        <time>2017-09-19T09:33:58Z</time>
      </trkpt>
      <trkpt lat="44.49021" lon="2.02099">
        <ele>329</ele>
        <time>2017-09-19T09:33:59Z</time>
      </trkpt>
      <trkpt lat="44.49017" lon="2.02091">
        <ele>329</ele>
        <time>2017-09-19T09:34:05Z</time>
      </trkpt>
      <trkpt lat="44.49013" lon="2.02083">
        <ele>327</ele>
        <time>2017-09-19T09:34:10Z</time>
      </trkpt>
      <trkpt lat="44.49012" lon="2.02081">
        <ele>327</ele>
        <time>2017-09-19T09:34:11Z</time>
      </trkpt>
      <trkpt lat="44.49012" lon="2.02078">
        <ele>327</ele>
        <time>2017-09-19T09:34:13Z</time>
      </trkpt>
      <trkpt lat="44.49013" lon="2.02076">
        <ele>327</ele>
        <time>2017-09-19T09:34:16Z</time>
      </trkpt>
      <trkpt lat="44.49013" lon="2.02074">
        <ele>327</ele>
        <time>2017-09-19T09:34:18Z</time>
      </trkpt>
      <trkpt lat="44.49013" lon="2.02071">
        <ele>327</ele>
        <time>2017-09-19T09:34:20Z</time>
      </trkpt>
      <trkpt lat="44.49021" lon="2.02053">
        <ele>327</ele>
        <time>2017-09-19T09:34:32Z</time>
      </trkpt>
      <trkpt lat="44.49029" lon="2.02045">
        <ele>327</ele>
        <time>2017-09-19T09:34:40Z</time>
      </trkpt>
      <trkpt lat="44.49037" lon="2.02033">
        <ele>327</ele>
        <time>2017-09-19T09:34:50Z</time>
      </trkpt>
      <trkpt lat="44.49051" lon="2.02014">
        <ele>327</ele>
        <time>2017-09-19T09:35:08Z</time>
      </trkpt>
      <trkpt lat="44.49058" lon="2.02004">
        <ele>327</ele>
        <time>2017-09-19T09:35:18Z</time>
      </trkpt>
      <trkpt lat="44.49064" lon="2.01996">
        <ele>326</ele>
        <time>2017-09-19T09:35:24Z</time>
      </trkpt>
      <trkpt lat="44.49066" lon="2.01993">
        <ele>326</ele>
        <time>2017-09-19T09:35:26Z</time>
      </trkpt>
      <trkpt lat="44.49069" lon="2.01989">
        <ele>326</ele>
        <time>2017-09-19T09:35:29Z</time>
      </trkpt>
      <trkpt lat="44.49077" lon="2.01974">
        <ele>325</ele>
        <time>2017-09-19T09:35:40Z</time>
      </trkpt>
      <trkpt lat="44.4908" lon="2.01971">
        <ele>325</ele>
        <time>2017-09-19T09:35:43Z</time>
      </trkpt>
      <trkpt lat="44.4909" lon="2.01955">
        <ele>327</ele>
        <time>2017-09-19T09:35:57Z</time>
      </trkpt>
      <trkpt lat="44.49109" lon="2.01909">
        <ele>324</ele>
        <time>2017-09-19T09:36:25Z</time>
      </trkpt>
      <trkpt lat="44.49113" lon="2.01895">
        <ele>324</ele>
        <time>2017-09-19T09:36:33Z</time>
      </trkpt>
      <trkpt lat="44.4912" lon="2.01876">
        <ele>324</ele>
        <time>2017-09-19T09:36:52Z</time>
      </trkpt>
      <trkpt lat="44.49124" lon="2.01868">
        <ele>324</ele>
        <time>2017-09-19T09:36:58Z</time>
      </trkpt>
      <trkpt lat="44.49132" lon="2.01852">
        <ele>324</ele>
        <time>2017-09-19T09:37:47Z</time>
      </trkpt>
      <trkpt lat="44.49137" lon="2.0184">
        <ele>324</ele>
        <time>2017-09-19T09:37:57Z</time>
      </trkpt>
      <trkpt lat="44.49142" lon="2.01834">
        <ele>324</ele>
        <time>2017-09-19T09:38:53Z</time>
      </trkpt>
      <trkpt lat="44.49145" lon="2.0183">
        <ele>323</ele>
        <time>2017-09-19T09:38:56Z</time>
      </trkpt>
      <trkpt lat="44.49149" lon="2.01826">
        <ele>323</ele>
        <time>2017-09-19T09:39:00Z</time>
      </trkpt>
      <trkpt lat="44.49153" lon="2.01815">
        <ele>323</ele>
        <time>2017-09-19T09:39:06Z</time>
      </trkpt>
      <trkpt lat="44.49156" lon="2.01811">
        <ele>323</ele>
        <time>2017-09-19T09:39:09Z</time>
      </trkpt>
      <trkpt lat="44.49157" lon="2.01806">
        <ele>323</ele>
        <time>2017-09-19T09:39:12Z</time>
      </trkpt>
      <trkpt lat="44.49166" lon="2.0179">
        <ele>323</ele>
        <time>2017-09-19T09:39:24Z</time>
      </trkpt>
      <trkpt lat="44.4917" lon="2.01784">
        <ele>324</ele>
        <time>2017-09-19T09:39:29Z</time>
      </trkpt>
      <trkpt lat="44.49175" lon="2.01773">
        <ele>324</ele>
        <time>2017-09-19T09:39:36Z</time>
      </trkpt>
      <trkpt lat="44.49178" lon="2.0177">
        <ele>324</ele>
        <time>2017-09-19T09:39:39Z</time>
      </trkpt>
      <trkpt lat="44.49185" lon="2.01756">
        <ele>324</ele>
        <time>2017-09-19T09:39:51Z</time>
      </trkpt>
      <trkpt lat="44.49192" lon="2.01744">
        <ele>325</ele>
        <time>2017-09-19T09:40:00Z</time>
      </trkpt>
      <trkpt lat="44.49194" lon="2.01739">
        <ele>325</ele>
        <time>2017-09-19T09:40:03Z</time>
      </trkpt>
      <trkpt lat="44.492" lon="2.0173">
        <ele>325</ele>
        <time>2017-09-19T09:40:10Z</time>
      </trkpt>
      <trkpt lat="44.49203" lon="2.01724">
        <ele>325</ele>
        <time>2017-09-19T09:40:15Z</time>
      </trkpt>
      <trkpt lat="44.49212" lon="2.01714">
        <ele>326</ele>
        <time>2017-09-19T09:40:24Z</time>
      </trkpt>
      <trkpt lat="44.49217" lon="2.01709">
        <ele>326</ele>
        <time>2017-09-19T09:40:28Z</time>
      </trkpt>
      <trkpt lat="44.4922" lon="2.01704">
        <ele>326</ele>
        <time>2017-09-19T09:40:32Z</time>
      </trkpt>
      <trkpt lat="44.49229" lon="2.01694">
        <ele>326</ele>
        <time>2017-09-19T09:40:41Z</time>
      </trkpt>
      <trkpt lat="44.49238" lon="2.01685">
        <ele>327</ele>
        <time>2017-09-19T09:40:48Z</time>
      </trkpt>
      <trkpt lat="44.49242" lon="2.01681">
        <ele>328</ele>
        <time>2017-09-19T09:40:52Z</time>
      </trkpt>
      <trkpt lat="44.49245" lon="2.01676">
        <ele>328</ele>
        <time>2017-09-19T09:40:55Z</time>
      </trkpt>
      <trkpt lat="44.49249" lon="2.01672">
        <ele>329</ele>
        <time>2017-09-19T09:40:58Z</time>
      </trkpt>
      <trkpt lat="44.49256" lon="2.01659">
        <ele>331</ele>
        <time>2017-09-19T09:41:08Z</time>
      </trkpt>
      <trkpt lat="44.49265" lon="2.01649">
        <ele>332</ele>
        <time>2017-09-19T09:41:18Z</time>
      </trkpt>
      <trkpt lat="44.49267" lon="2.01646">
        <ele>332</ele>
        <time>2017-09-19T09:41:21Z</time>
      </trkpt>
      <trkpt lat="44.49269" lon="2.01642">
        <ele>332</ele>
        <time>2017-09-19T09:41:24Z</time>
      </trkpt>
      <trkpt lat="44.49274" lon="2.01635">
        <ele>332</ele>
        <time>2017-09-19T09:41:30Z</time>
      </trkpt>
      <trkpt lat="44.49276" lon="2.01631">
        <ele>333</ele>
        <time>2017-09-19T09:41:47Z</time>
      </trkpt>
      <trkpt lat="44.49278" lon="2.01628">
        <ele>333</ele>
        <time>2017-09-19T09:42:11Z</time>
      </trkpt>
      <trkpt lat="44.49282" lon="2.01623">
        <ele>333</ele>
        <time>2017-09-19T09:42:16Z</time>
      </trkpt>
      <trkpt lat="44.49285" lon="2.01618">
        <ele>333</ele>
        <time>2017-09-19T09:42:20Z</time>
      </trkpt>
      <trkpt lat="44.49302" lon="2.01595">
        <ele>333</ele>
        <time>2017-09-19T09:42:40Z</time>
      </trkpt>
      <trkpt lat="44.49304" lon="2.01595">
        <ele>333</ele>
        <time>2017-09-19T09:44:30Z</time>
      </trkpt>
      <trkpt lat="44.49309" lon="2.01588">
        <ele>334</ele>
        <time>2017-09-19T09:44:36Z</time>
      </trkpt>
      <trkpt lat="44.49313" lon="2.0158">
        <ele>333</ele>
        <time>2017-09-19T09:44:42Z</time>
      </trkpt>
      <trkpt lat="44.49315" lon="2.01573">
        <ele>333</ele>
        <time>2017-09-19T09:44:48Z</time>
      </trkpt>
      <trkpt lat="44.49336" lon="2.01527">
        <ele>335</ele>
        <time>2017-09-19T09:45:18Z</time>
      </trkpt>
      <trkpt lat="44.4934" lon="2.01522">
        <ele>335</ele>
        <time>2017-09-19T09:45:23Z</time>
      </trkpt>
      <trkpt lat="44.49342" lon="2.01515">
        <ele>335</ele>
        <time>2017-09-19T09:45:28Z</time>
      </trkpt>
      <trkpt lat="44.49347" lon="2.01512">
        <ele>335</ele>
        <time>2017-09-19T09:45:32Z</time>
      </trkpt>
      <trkpt lat="44.4935" lon="2.01506">
        <ele>335</ele>
        <time>2017-09-19T09:45:35Z</time>
      </trkpt>
      <trkpt lat="44.49351" lon="2.015">
        <ele>335</ele>
        <time>2017-09-19T09:45:38Z</time>
      </trkpt>
      <trkpt lat="44.49355" lon="2.01493">
        <ele>335</ele>
        <time>2017-09-19T09:45:43Z</time>
      </trkpt>
      <trkpt lat="44.49362" lon="2.01472">
        <ele>335</ele>
        <time>2017-09-19T09:45:55Z</time>
      </trkpt>
      <trkpt lat="44.49365" lon="2.01467">
        <ele>335</ele>
        <time>2017-09-19T09:45:59Z</time>
      </trkpt>
      <trkpt lat="44.49385" lon="2.01418">
        <ele>335</ele>
        <time>2017-09-19T09:46:29Z</time>
      </trkpt>
      <trkpt lat="44.49387" lon="2.01365">
        <ele>335</ele>
        <time>2017-09-19T09:47:02Z</time>
      </trkpt>
      <trkpt lat="44.49389" lon="2.01348">
        <ele>335</ele>
        <time>2017-09-19T09:47:10Z</time>
      </trkpt>
      <trkpt lat="44.4939" lon="2.01341">
        <ele>335</ele>
        <time>2017-09-19T09:47:13Z</time>
      </trkpt>
      <trkpt lat="44.4939" lon="2.01337">
        <ele>335</ele>
        <time>2017-09-19T09:47:15Z</time>
      </trkpt>
      <trkpt lat="44.4939" lon="2.01331">
        <ele>334</ele>
        <time>2017-09-19T09:47:18Z</time>
      </trkpt>
      <trkpt lat="44.49393" lon="2.01326">
        <ele>334</ele>
        <time>2017-09-19T09:47:22Z</time>
      </trkpt>
      <trkpt lat="44.49396" lon="2.01321">
        <ele>334</ele>
        <time>2017-09-19T09:47:25Z</time>
      </trkpt>
      <trkpt lat="44.49398" lon="2.01302">
        <ele>333</ele>
        <time>2017-09-19T09:47:35Z</time>
      </trkpt>
      <trkpt lat="44.49398" lon="2.01296">
        <ele>333</ele>
        <time>2017-09-19T09:47:38Z</time>
      </trkpt>
      <trkpt lat="44.49409" lon="2.01238">
        <ele>334</ele>
        <time>2017-09-19T09:48:11Z</time>
      </trkpt>
      <trkpt lat="44.49418" lon="2.01191">
        <ele>335</ele>
        <time>2017-09-19T09:48:36Z</time>
      </trkpt>
      <trkpt lat="44.49419" lon="2.01186">
        <ele>335</ele>
        <time>2017-09-19T09:48:39Z</time>
      </trkpt>
      <trkpt lat="44.49422" lon="2.01168">
        <ele>334</ele>
        <time>2017-09-19T09:48:50Z</time>
      </trkpt>
      <trkpt lat="44.49424" lon="2.01155">
        <ele>334</ele>
        <time>2017-09-19T09:48:58Z</time>
      </trkpt>
      <trkpt lat="44.49437" lon="2.01102">
        <ele>335</ele>
        <time>2017-09-19T09:49:29Z</time>
      </trkpt>
      <trkpt lat="44.49438" lon="2.0109">
        <ele>335</ele>
        <time>2017-09-19T09:49:36Z</time>
      </trkpt>
      <trkpt lat="44.49447" lon="2.01051">
        <ele>334</ele>
        <time>2017-09-19T09:49:59Z</time>
      </trkpt>
      <trkpt lat="44.4945" lon="2.01047">
        <ele>334</ele>
        <time>2017-09-19T09:50:04Z</time>
      </trkpt>
      <trkpt lat="44.49453" lon="2.01043">
        <ele>335</ele>
        <time>2017-09-19T09:50:08Z</time>
      </trkpt>
      <trkpt lat="44.49462" lon="2.01032">
        <ele>335</ele>
        <time>2017-09-19T09:50:20Z</time>
      </trkpt>
      <trkpt lat="44.49465" lon="2.01027">
        <ele>335</ele>
        <time>2017-09-19T09:50:24Z</time>
      </trkpt>
      <trkpt lat="44.49467" lon="2.01021">
        <ele>335</ele>
        <time>2017-09-19T09:50:28Z</time>
      </trkpt>
      <trkpt lat="44.49472" lon="2.01016">
        <ele>335</ele>
        <time>2017-09-19T09:50:33Z</time>
      </trkpt>
      <trkpt lat="44.49486" lon="2.00989">
        <ele>335</ele>
        <time>2017-09-19T09:50:53Z</time>
      </trkpt>
      <trkpt lat="44.49489" lon="2.00985">
        <ele>335</ele>
        <time>2017-09-19T09:50:56Z</time>
      </trkpt>
      <trkpt lat="44.49492" lon="2.00981">
        <ele>335</ele>
        <time>2017-09-19T09:50:59Z</time>
      </trkpt>
      <trkpt lat="44.49497" lon="2.00976">
        <ele>335</ele>
        <time>2017-09-19T09:51:03Z</time>
      </trkpt>
      <trkpt lat="44.49501" lon="2.00972">
        <ele>338</ele>
        <time>2017-09-19T09:51:06Z</time>
      </trkpt>
      <trkpt lat="44.49517" lon="2.00949">
        <ele>337</ele>
        <time>2017-09-19T09:51:22Z</time>
      </trkpt>
      <trkpt lat="44.49519" lon="2.00944">
        <ele>337</ele>
        <time>2017-09-19T09:51:25Z</time>
      </trkpt>
      <trkpt lat="44.49521" lon="2.00933">
        <ele>337</ele>
        <time>2017-09-19T09:51:32Z</time>
      </trkpt>
      <trkpt lat="44.49528" lon="2.00924">
        <ele>337</ele>
        <time>2017-09-19T09:51:39Z</time>
      </trkpt>
      <trkpt lat="44.4953" lon="2.0092">
        <ele>337</ele>
        <time>2017-09-19T09:51:42Z</time>
      </trkpt>
      <trkpt lat="44.49532" lon="2.00915">
        <ele>335</ele>
        <time>2017-09-19T09:51:45Z</time>
      </trkpt>
      <trkpt lat="44.49541" lon="2.00907">
        <ele>335</ele>
        <time>2017-09-19T09:51:53Z</time>
      </trkpt>
      <trkpt lat="44.49547" lon="2.009">
        <ele>335</ele>
        <time>2017-09-19T09:51:59Z</time>
      </trkpt>
      <trkpt lat="44.4955" lon="2.00898">
        <ele>335</ele>
        <time>2017-09-19T09:52:03Z</time>
      </trkpt>
      <trkpt lat="44.49554" lon="2.00894">
        <ele>335</ele>
        <time>2017-09-19T09:52:07Z</time>
      </trkpt>
      <trkpt lat="44.49564" lon="2.00887">
        <ele>336</ele>
        <time>2017-09-19T09:52:17Z</time>
      </trkpt>
      <trkpt lat="44.49605" lon="2.0087">
        <ele>337</ele>
        <time>2017-09-19T09:52:47Z</time>
      </trkpt>
      <trkpt lat="44.49613" lon="2.00866">
        <ele>337</ele>
        <time>2017-09-19T09:52:53Z</time>
      </trkpt>
      <trkpt lat="44.49617" lon="2.00864">
        <ele>337</ele>
        <time>2017-09-19T09:52:57Z</time>
      </trkpt>
      <trkpt lat="44.49621" lon="2.00862">
        <ele>337</ele>
        <time>2017-09-19T09:53:01Z</time>
      </trkpt>
      <trkpt lat="44.49625" lon="2.00861">
        <ele>337</ele>
        <time>2017-09-19T09:53:04Z</time>
      </trkpt>
      <trkpt lat="44.49631" lon="2.00854">
        <ele>337</ele>
        <time>2017-09-19T09:53:10Z</time>
      </trkpt>
      <trkpt lat="44.49634" lon="2.0085">
        <ele>337</ele>
        <time>2017-09-19T09:53:13Z</time>
      </trkpt>
      <trkpt lat="44.49633" lon="2.00792">
        <ele>336</ele>
        <time>2017-09-19T09:53:43Z</time>
      </trkpt>
      <trkpt lat="44.4963" lon="2.00734">
        <ele>335</ele>
        <time>2017-09-19T09:54:12Z</time>
      </trkpt>
      <trkpt lat="44.4963" lon="2.00732">
        <ele>335</ele>
        <time>2017-09-19T09:54:13Z</time>
      </trkpt>
      <trkpt lat="44.49632" lon="2.00728">
        <ele>334</ele>
        <time>2017-09-19T09:54:15Z</time>
      </trkpt>
      <trkpt lat="44.49631" lon="2.00668">
        <ele>334</ele>
        <time>2017-09-19T09:54:46Z</time>
      </trkpt>
      <trkpt lat="44.49631" lon="2.00646">
        <ele>332</ele>
        <time>2017-09-19T09:54:57Z</time>
      </trkpt>
      <trkpt lat="44.49631" lon="2.00629">
        <ele>332</ele>
        <time>2017-09-19T09:55:07Z</time>
      </trkpt>
      <trkpt lat="44.49632" lon="2.00618">
        <ele>332</ele>
        <time>2017-09-19T09:55:13Z</time>
      </trkpt>
      <trkpt lat="44.49631" lon="2.00604">
        <ele>332</ele>
        <time>2017-09-19T09:55:21Z</time>
      </trkpt>
      <trkpt lat="44.4963" lon="2.00586">
        <ele>332</ele>
        <time>2017-09-19T09:55:31Z</time>
      </trkpt>
      <trkpt lat="44.4963" lon="2.00583">
        <ele>330</ele>
        <time>2017-09-19T09:55:33Z</time>
      </trkpt>
      <trkpt lat="44.49632" lon="2.00549">
        <ele>329</ele>
        <time>2017-09-19T09:55:52Z</time>
      </trkpt>
      <trkpt lat="44.49631" lon="2.00543">
        <ele>329</ele>
        <time>2017-09-19T09:55:55Z</time>
      </trkpt>
      <trkpt lat="44.49631" lon="2.00538">
        <ele>329</ele>
        <time>2017-09-19T09:55:58Z</time>
      </trkpt>
      <trkpt lat="44.49624" lon="2.00484">
        <ele>326</ele>
        <time>2017-09-19T09:56:28Z</time>
      </trkpt>
      <trkpt lat="44.49616" lon="2.00441">
        <ele>326</ele>
        <time>2017-09-19T09:56:51Z</time>
      </trkpt>
      <trkpt lat="44.49616" lon="2.00437">
        <ele>325</ele>
        <time>2017-09-19T09:56:53Z</time>
      </trkpt>
      <trkpt lat="44.49617" lon="2.00431">
        <ele>325</ele>
        <time>2017-09-19T09:56:56Z</time>
      </trkpt>
      <trkpt lat="44.49617" lon="2.00426">
        <ele>325</ele>
        <time>2017-09-19T09:56:59Z</time>
      </trkpt>
      <trkpt lat="44.49609" lon="2.00371">
        <ele>325</ele>
        <time>2017-09-19T09:57:32Z</time>
      </trkpt>
      <trkpt lat="44.49608" lon="2.00356">
        <ele>324</ele>
        <time>2017-09-19T09:57:40Z</time>
      </trkpt>
      <trkpt lat="44.49607" lon="2.00344">
        <ele>324</ele>
        <time>2017-09-19T09:57:46Z</time>
      </trkpt>
      <trkpt lat="44.49603" lon="2.0033">
        <ele>324</ele>
        <time>2017-09-19T09:57:52Z</time>
      </trkpt>
      <trkpt lat="44.49602" lon="2.00324">
        <ele>324</ele>
        <time>2017-09-19T09:57:55Z</time>
      </trkpt>
      <trkpt lat="44.49597" lon="2.00296">
        <ele>324</ele>
        <time>2017-09-19T09:58:10Z</time>
      </trkpt>
      <trkpt lat="44.49597" lon="2.0029">
        <ele>324</ele>
        <time>2017-09-19T09:58:13Z</time>
      </trkpt>
      <trkpt lat="44.49593" lon="2.00256">
        <ele>322</ele>
        <time>2017-09-19T09:58:30Z</time>
      </trkpt>
      <trkpt lat="44.49589" lon="2.00241">
        <ele>322</ele>
        <time>2017-09-19T09:58:39Z</time>
      </trkpt>
      <trkpt lat="44.49589" lon="2.00236">
        <ele>323</ele>
        <time>2017-09-19T09:58:43Z</time>
      </trkpt>
      <trkpt lat="44.49588" lon="2.00229">
        <ele>324</ele>
        <time>2017-09-19T09:58:46Z</time>
      </trkpt>
      <trkpt lat="44.49583" lon="2.0022">
        <ele>320</ele>
        <time>2017-09-19T09:58:52Z</time>
      </trkpt>
      <trkpt lat="44.49563" lon="2.00171">
        <ele>322</ele>
        <time>2017-09-19T09:59:21Z</time>
      </trkpt>
      <trkpt lat="44.49548" lon="2.00144">
        <ele>322</ele>
        <time>2017-09-19T09:59:38Z</time>
      </trkpt>
      <trkpt lat="44.49547" lon="2.0014">
        <ele>322</ele>
        <time>2017-09-19T09:59:41Z</time>
      </trkpt>
      <trkpt lat="44.49545" lon="2.00136">
        <ele>322</ele>
        <time>2017-09-19T09:59:44Z</time>
      </trkpt>
      <trkpt lat="44.49543" lon="2.00127">
        <ele>322</ele>
        <time>2017-09-19T09:59:50Z</time>
      </trkpt>
      <trkpt lat="44.49542" lon="2.00111">
        <ele>322</ele>
        <time>2017-09-19T09:59:59Z</time>
      </trkpt>
      <trkpt lat="44.49544" lon="2.00101">
        <ele>322</ele>
        <time>2017-09-19T10:00:05Z</time>
      </trkpt>
      <trkpt lat="44.49545" lon="2.00089">
        <ele>322</ele>
        <time>2017-09-19T10:00:12Z</time>
      </trkpt>
      <trkpt lat="44.49543" lon="2.00069">
        <ele>323</ele>
        <time>2017-09-19T10:00:24Z</time>
      </trkpt>
      <trkpt lat="44.49539" lon="2.00058">
        <ele>322</ele>
        <time>2017-09-19T10:00:30Z</time>
      </trkpt>
      <trkpt lat="44.49539" lon="2.00051">
        <ele>322</ele>
        <time>2017-09-19T10:00:34Z</time>
      </trkpt>
      <trkpt lat="44.4954" lon="2.00045">
        <ele>322</ele>
        <time>2017-09-19T10:00:38Z</time>
      </trkpt>
      <trkpt lat="44.49541" lon="2.00034">
        <ele>322</ele>
        <time>2017-09-19T10:00:45Z</time>
      </trkpt>
      <trkpt lat="44.49544" lon="1.99979">
        <ele>322</ele>
        <time>2017-09-19T10:01:16Z</time>
      </trkpt>
      <trkpt lat="44.49544" lon="1.99975">
        <ele>322</ele>
        <time>2017-09-19T10:01:19Z</time>
      </trkpt>
      <trkpt lat="44.49544" lon="1.99967">
        <ele>322</ele>
        <time>2017-09-19T10:01:24Z</time>
      </trkpt>
      <trkpt lat="44.49545" lon="1.9996">
        <ele>322</ele>
        <time>2017-09-19T10:01:27Z</time>
      </trkpt>
      <trkpt lat="44.49544" lon="1.99948">
        <ele>322</ele>
        <time>2017-09-19T10:01:33Z</time>
      </trkpt>
      <trkpt lat="44.49545" lon="1.99942">
        <ele>322</ele>
        <time>2017-09-19T10:01:36Z</time>
      </trkpt>
      <trkpt lat="44.49546" lon="1.99928">
        <ele>322</ele>
        <time>2017-09-19T10:01:43Z</time>
      </trkpt>
      <trkpt lat="44.49547" lon="1.99921">
        <ele>322</ele>
        <time>2017-09-19T10:01:47Z</time>
      </trkpt>
      <trkpt lat="44.4955" lon="1.99909">
        <ele>321</ele>
        <time>2017-09-19T10:01:55Z</time>
      </trkpt>
      <trkpt lat="44.49549" lon="1.99903">
        <ele>321</ele>
        <time>2017-09-19T10:01:59Z</time>
      </trkpt>
      <trkpt lat="44.49549" lon="1.99899">
        <ele>321</ele>
        <time>2017-09-19T10:02:02Z</time>
      </trkpt>
      <trkpt lat="44.4955" lon="1.99893">
        <ele>321</ele>
        <time>2017-09-19T10:02:06Z</time>
      </trkpt>
      <trkpt lat="44.49553" lon="1.99883">
        <ele>321</ele>
        <time>2017-09-19T10:02:16Z</time>
      </trkpt>
      <trkpt lat="44.49554" lon="1.99868">
        <ele>321</ele>
        <time>2017-09-19T10:02:26Z</time>
      </trkpt>
      <trkpt lat="44.49555" lon="1.99863">
        <ele>321</ele>
        <time>2017-09-19T10:02:29Z</time>
      </trkpt>
      <trkpt lat="44.49558" lon="1.99845">
        <ele>320</ele>
        <time>2017-09-19T10:02:39Z</time>
      </trkpt>
      <trkpt lat="44.49565" lon="1.99829">
        <ele>319</ele>
        <time>2017-09-19T10:02:50Z</time>
      </trkpt>
      <trkpt lat="44.49567" lon="1.99816">
        <ele>319</ele>
        <time>2017-09-19T10:02:57Z</time>
      </trkpt>
      <trkpt lat="44.49569" lon="1.9981">
        <ele>319</ele>
        <time>2017-09-19T10:03:00Z</time>
      </trkpt>
      <trkpt lat="44.49571" lon="1.99799">
        <ele>319</ele>
        <time>2017-09-19T10:03:08Z</time>
      </trkpt>
      <trkpt lat="44.49574" lon="1.99789">
        <ele>319</ele>
        <time>2017-09-19T10:03:14Z</time>
      </trkpt>
      <trkpt lat="44.49581" lon="1.99762">
        <ele>319</ele>
        <time>2017-09-19T10:03:29Z</time>
      </trkpt>
      <trkpt lat="44.49582" lon="1.99757">
        <ele>319</ele>
        <time>2017-09-19T10:03:32Z</time>
      </trkpt>
      <trkpt lat="44.49584" lon="1.99751">
        <ele>319</ele>
        <time>2017-09-19T10:03:36Z</time>
      </trkpt>
      <trkpt lat="44.4959" lon="1.99734">
        <ele>320</ele>
        <time>2017-09-19T10:03:47Z</time>
      </trkpt>
      <trkpt lat="44.49592" lon="1.99727">
        <ele>320</ele>
        <time>2017-09-19T10:03:51Z</time>
      </trkpt>
      <trkpt lat="44.49607" lon="1.99703">
        <ele>320</ele>
        <time>2017-09-19T10:04:09Z</time>
      </trkpt>
      <trkpt lat="44.49612" lon="1.99689">
        <ele>320</ele>
        <time>2017-09-19T10:04:19Z</time>
      </trkpt>
      <trkpt lat="44.49612" lon="1.99682">
        <ele>320</ele>
        <time>2017-09-19T10:04:23Z</time>
      </trkpt>
      <trkpt lat="44.49615" lon="1.99677">
        <ele>320</ele>
        <time>2017-09-19T10:04:26Z</time>
      </trkpt>
      <trkpt lat="44.49619" lon="1.99667">
        <ele>320</ele>
        <time>2017-09-19T10:04:33Z</time>
      </trkpt>
      <trkpt lat="44.49622" lon="1.99661">
        <ele>321</ele>
        <time>2017-09-19T10:04:37Z</time>
      </trkpt>
      <trkpt lat="44.49625" lon="1.9965">
        <ele>321</ele>
        <time>2017-09-19T10:04:43Z</time>
      </trkpt>
      <trkpt lat="44.49633" lon="1.99613">
        <ele>322</ele>
        <time>2017-09-19T10:05:04Z</time>
      </trkpt>
      <trkpt lat="44.49637" lon="1.99601">
        <ele>322</ele>
        <time>2017-09-19T10:05:11Z</time>
      </trkpt>
      <trkpt lat="44.49637" lon="1.99594">
        <ele>322</ele>
        <time>2017-09-19T10:05:16Z</time>
      </trkpt>
      <trkpt lat="44.49642" lon="1.99581">
        <ele>322</ele>
        <time>2017-09-19T10:05:24Z</time>
      </trkpt>
      <trkpt lat="44.49644" lon="1.99575">
        <ele>322</ele>
        <time>2017-09-19T10:05:27Z</time>
      </trkpt>
      <trkpt lat="44.49648" lon="1.99565">
        <ele>322</ele>
        <time>2017-09-19T10:05:33Z</time>
      </trkpt>
      <trkpt lat="44.49652" lon="1.99561">
        <ele>322</ele>
        <time>2017-09-19T10:05:36Z</time>
      </trkpt>
      <trkpt lat="44.49653" lon="1.99554">
        <ele>322</ele>
        <time>2017-09-19T10:05:40Z</time>
      </trkpt>
      <trkpt lat="44.49655" lon="1.99548">
        <ele>322</ele>
        <time>2017-09-19T10:05:43Z</time>
      </trkpt>
      <trkpt lat="44.49658" lon="1.99542">
        <ele>322</ele>
        <time>2017-09-19T10:05:47Z</time>
      </trkpt>
      <trkpt lat="44.49662" lon="1.99537">
        <ele>322</ele>
        <time>2017-09-19T10:05:52Z</time>
      </trkpt>
      <trkpt lat="44.49663" lon="1.99531">
        <ele>321</ele>
        <time>2017-09-19T10:05:56Z</time>
      </trkpt>
      <trkpt lat="44.49666" lon="1.99512">
        <ele>321</ele>
        <time>2017-09-19T10:06:05Z</time>
      </trkpt>
      <trkpt lat="44.49667" lon="1.99507">
        <ele>322</ele>
        <time>2017-09-19T10:06:08Z</time>
      </trkpt>
      <trkpt lat="44.49674" lon="1.99499">
        <ele>321</ele>
        <time>2017-09-19T10:06:23Z</time>
      </trkpt>
      <trkpt lat="44.49676" lon="1.99495">
        <ele>322</ele>
        <time>2017-09-19T10:06:26Z</time>
      </trkpt>
      <trkpt lat="44.4968" lon="1.99484">
        <ele>322</ele>
        <time>2017-09-19T10:06:33Z</time>
      </trkpt>
      <trkpt lat="44.49682" lon="1.99472">
        <ele>322</ele>
        <time>2017-09-19T10:06:41Z</time>
      </trkpt>
      <trkpt lat="44.49684" lon="1.99466">
        <ele>322</ele>
        <time>2017-09-19T10:06:44Z</time>
      </trkpt>
      <trkpt lat="44.49691" lon="1.99456">
        <ele>322</ele>
        <time>2017-09-19T10:06:51Z</time>
      </trkpt>
      <trkpt lat="44.49694" lon="1.9945">
        <ele>322</ele>
        <time>2017-09-19T10:06:56Z</time>
      </trkpt>
      <trkpt lat="44.49705" lon="1.99417">
        <ele>322</ele>
        <time>2017-09-19T10:07:15Z</time>
      </trkpt>
      <trkpt lat="44.4971" lon="1.99398">
        <ele>320</ele>
        <time>2017-09-19T10:07:26Z</time>
      </trkpt>
      <trkpt lat="44.49712" lon="1.99392">
        <ele>320</ele>
        <time>2017-09-19T10:07:31Z</time>
      </trkpt>
      <trkpt lat="44.49714" lon="1.99384">
        <ele>320</ele>
        <time>2017-09-19T10:07:36Z</time>
      </trkpt>
      <trkpt lat="44.49722" lon="1.99373">
        <ele>320</ele>
        <time>2017-09-19T10:07:44Z</time>
      </trkpt>
      <trkpt lat="44.49725" lon="1.99366">
        <ele>320</ele>
        <time>2017-09-19T10:07:47Z</time>
      </trkpt>
      <trkpt lat="44.4973" lon="1.99355">
        <ele>320</ele>
        <time>2017-09-19T10:07:53Z</time>
      </trkpt>
      <trkpt lat="44.49732" lon="1.99341">
        <ele>320</ele>
        <time>2017-09-19T10:07:59Z</time>
      </trkpt>
      <trkpt lat="44.49733" lon="1.99336">
        <ele>320</ele>
        <time>2017-09-19T10:08:01Z</time>
      </trkpt>
      <trkpt lat="44.49735" lon="1.99329">
        <ele>319</ele>
        <time>2017-09-19T10:08:05Z</time>
      </trkpt>
      <trkpt lat="44.49739" lon="1.99312">
        <ele>319</ele>
        <time>2017-09-19T10:08:14Z</time>
      </trkpt>
      <trkpt lat="44.49741" lon="1.99305">
        <ele>318</ele>
        <time>2017-09-19T10:08:18Z</time>
      </trkpt>
      <trkpt lat="44.49742" lon="1.99293">
        <ele>318</ele>
        <time>2017-09-19T10:08:24Z</time>
      </trkpt>
      <trkpt lat="44.49741" lon="1.99284">
        <ele>318</ele>
        <time>2017-09-19T10:08:28Z</time>
      </trkpt>
      <trkpt lat="44.49738" lon="1.99276">
        <ele>318</ele>
        <time>2017-09-19T10:08:34Z</time>
      </trkpt>
      <trkpt lat="44.49737" lon="1.99275">
        <ele>318</ele>
        <time>2017-09-19T10:08:36Z</time>
      </trkpt>
      <trkpt lat="44.49734" lon="1.99275">
        <ele>318</ele>
        <time>2017-09-19T10:08:38Z</time>
      </trkpt>
      <trkpt lat="44.49726" lon="1.99267">
        <ele>318</ele>
        <time>2017-09-19T10:08:47Z</time>
      </trkpt>
      <trkpt lat="44.49724" lon="1.99264">
        <ele>318</ele>
        <time>2017-09-19T10:08:49Z</time>
      </trkpt>
      <trkpt lat="44.49722" lon="1.99262">
        <ele>318</ele>
        <time>2017-09-19T10:08:52Z</time>
      </trkpt>
      <trkpt lat="44.4972" lon="1.99258">
        <ele>318</ele>
        <time>2017-09-19T10:08:54Z</time>
      </trkpt>
      <trkpt lat="44.49719" lon="1.99249">
        <ele>317</ele>
        <time>2017-09-19T10:09:00Z</time>
      </trkpt>
      <trkpt lat="44.49721" lon="1.99226">
        <ele>317</ele>
        <time>2017-09-19T10:09:11Z</time>
      </trkpt>
      <trkpt lat="44.49722" lon="1.99202">
        <ele>317</ele>
        <time>2017-09-19T10:09:24Z</time>
      </trkpt>
      <trkpt lat="44.49723" lon="1.99197">
        <ele>317</ele>
        <time>2017-09-19T10:09:27Z</time>
      </trkpt>
      <trkpt lat="44.49724" lon="1.99191">
        <ele>317</ele>
        <time>2017-09-19T10:09:31Z</time>
      </trkpt>
      <trkpt lat="44.49726" lon="1.99186">
        <ele>317</ele>
        <time>2017-09-19T10:09:35Z</time>
      </trkpt>
      <trkpt lat="44.49727" lon="1.99179">
        <ele>317</ele>
        <time>2017-09-19T10:09:40Z</time>
      </trkpt>
      <trkpt lat="44.49728" lon="1.99173">
        <ele>317</ele>
        <time>2017-09-19T10:09:43Z</time>
      </trkpt>
      <trkpt lat="44.49732" lon="1.99149">
        <ele>317</ele>
        <time>2017-09-19T10:09:55Z</time>
      </trkpt>
      <trkpt lat="44.49732" lon="1.99136">
        <ele>317</ele>
        <time>2017-09-19T10:10:01Z</time>
      </trkpt>
      <trkpt lat="44.49735" lon="1.99122">
        <ele>316</ele>
        <time>2017-09-19T10:10:07Z</time>
      </trkpt>
      <trkpt lat="44.49743" lon="1.99064">
        <ele>315</ele>
        <time>2017-09-19T10:10:37Z</time>
      </trkpt>
      <trkpt lat="44.49746" lon="1.99052">
        <ele>315</ele>
        <time>2017-09-19T10:10:43Z</time>
      </trkpt>
      <trkpt lat="44.49746" lon="1.99041">
        <ele>315</ele>
        <time>2017-09-19T10:10:50Z</time>
      </trkpt>
      <trkpt lat="44.49747" lon="1.9903">
        <ele>315</ele>
        <time>2017-09-19T10:10:56Z</time>
      </trkpt>
      <trkpt lat="44.49748" lon="1.99024">
        <ele>315</ele>
        <time>2017-09-19T10:11:00Z</time>
      </trkpt>
      <trkpt lat="44.49748" lon="1.99018">
        <ele>315</ele>
        <time>2017-09-19T10:11:03Z</time>
      </trkpt>
      <trkpt lat="44.4975" lon="1.99004">
        <ele>315</ele>
        <time>2017-09-19T10:11:11Z</time>
      </trkpt>
      <trkpt lat="44.49748" lon="1.98945">
        <ele>313</ele>
        <time>2017-09-19T10:11:41Z</time>
      </trkpt>
      <trkpt lat="44.49746" lon="1.98931">
        <ele>312</ele>
        <time>2017-09-19T10:11:49Z</time>
      </trkpt>
      <trkpt lat="44.49745" lon="1.9892">
        <ele>312</ele>
        <time>2017-09-19T10:11:55Z</time>
      </trkpt>
      <trkpt lat="44.49744" lon="1.98916">
        <ele>311</ele>
        <time>2017-09-19T10:11:57Z</time>
      </trkpt>
      <trkpt lat="44.49742" lon="1.98907">
        <ele>311</ele>
        <time>2017-09-19T10:12:02Z</time>
      </trkpt>
      <trkpt lat="44.49743" lon="1.98893">
        <ele>311</ele>
        <time>2017-09-19T10:12:09Z</time>
      </trkpt>
      <trkpt lat="44.49743" lon="1.98854">
        <ele>311</ele>
        <time>2017-09-19T10:12:31Z</time>
      </trkpt>
      <trkpt lat="44.49744" lon="1.98837">
        <ele>310</ele>
        <time>2017-09-19T10:12:41Z</time>
      </trkpt>
      <trkpt lat="44.49743" lon="1.98825">
        <ele>310</ele>
        <time>2017-09-19T10:12:47Z</time>
      </trkpt>
      <trkpt lat="44.49741" lon="1.98777">
        <ele>310</ele>
        <time>2017-09-19T10:13:12Z</time>
      </trkpt>
      <trkpt lat="44.4974" lon="1.98762">
        <ele>309</ele>
        <time>2017-09-19T10:13:19Z</time>
      </trkpt>
      <trkpt lat="44.49741" lon="1.98752">
        <ele>309</ele>
        <time>2017-09-19T10:13:25Z</time>
      </trkpt>
      <trkpt lat="44.49739" lon="1.98737">
        <ele>309</ele>
        <time>2017-09-19T10:13:33Z</time>
      </trkpt>
      <trkpt lat="44.49735" lon="1.98695">
        <ele>309</ele>
        <time>2017-09-19T10:13:55Z</time>
      </trkpt>
      <trkpt lat="44.49734" lon="1.9869">
        <ele>309</ele>
        <time>2017-09-19T10:13:58Z</time>
      </trkpt>
      <trkpt lat="44.49731" lon="1.98638">
        <ele>311</ele>
        <time>2017-09-19T10:14:28Z</time>
      </trkpt>
      <trkpt lat="44.49728" lon="1.98629">
        <ele>311</ele>
        <time>2017-09-19T10:14:32Z</time>
      </trkpt>
      <trkpt lat="44.49727" lon="1.98621">
        <ele>311</ele>
        <time>2017-09-19T10:14:36Z</time>
      </trkpt>
      <trkpt lat="44.49727" lon="1.98618">
        <ele>311</ele>
        <time>2017-09-19T10:14:39Z</time>
      </trkpt>
      <trkpt lat="44.49726" lon="1.98614">
        <ele>311</ele>
        <time>2017-09-19T10:14:41Z</time>
      </trkpt>
      <trkpt lat="44.49725" lon="1.9861">
        <ele>311</ele>
        <time>2017-09-19T10:14:44Z</time>
      </trkpt>
      <trkpt lat="44.49722" lon="1.98595">
        <ele>311</ele>
        <time>2017-09-19T10:14:51Z</time>
      </trkpt>
      <trkpt lat="44.49719" lon="1.98585">
        <ele>312</ele>
        <time>2017-09-19T10:14:58Z</time>
      </trkpt>
      <trkpt lat="44.49718" lon="1.98579">
        <ele>314</ele>
        <time>2017-09-19T10:15:01Z</time>
      </trkpt>
      <trkpt lat="44.49715" lon="1.98562">
        <ele>314</ele>
        <time>2017-09-19T10:15:14Z</time>
      </trkpt>
      <trkpt lat="44.49713" lon="1.98557">
        <ele>314</ele>
        <time>2017-09-19T10:15:17Z</time>
      </trkpt>
      <trkpt lat="44.49711" lon="1.98546">
        <ele>314</ele>
        <time>2017-09-19T10:15:23Z</time>
      </trkpt>
      <trkpt lat="44.49708" lon="1.98536">
        <ele>314</ele>
        <time>2017-09-19T10:15:29Z</time>
      </trkpt>
      <trkpt lat="44.49704" lon="1.98503">
        <ele>314</ele>
        <time>2017-09-19T10:15:48Z</time>
      </trkpt>
      <trkpt lat="44.49699" lon="1.98489">
        <ele>317</ele>
        <time>2017-09-19T10:15:56Z</time>
      </trkpt>
      <trkpt lat="44.49697" lon="1.98484">
        <ele>317</ele>
        <time>2017-09-19T10:15:59Z</time>
      </trkpt>
      <trkpt lat="44.49686" lon="1.98444">
        <ele>317</ele>
        <time>2017-09-19T10:16:21Z</time>
      </trkpt>
      <trkpt lat="44.49684" lon="1.98438">
        <ele>317</ele>
        <time>2017-09-19T10:16:24Z</time>
      </trkpt>
      <trkpt lat="44.49684" lon="1.98432">
        <ele>317</ele>
        <time>2017-09-19T10:16:28Z</time>
      </trkpt>
      <trkpt lat="44.49684" lon="1.98393">
        <ele>318</ele>
        <time>2017-09-19T10:16:52Z</time>
      </trkpt>
      <trkpt lat="44.49691" lon="1.98349">
        <ele>317</ele>
        <time>2017-09-19T10:17:15Z</time>
      </trkpt>
      <trkpt lat="44.49693" lon="1.98344">
        <ele>317</ele>
        <time>2017-09-19T10:17:18Z</time>
      </trkpt>
      <trkpt lat="44.49696" lon="1.98341">
        <ele>318</ele>
        <time>2017-09-19T10:17:21Z</time>
      </trkpt>
      <trkpt lat="44.49698" lon="1.98339">
        <ele>318</ele>
        <time>2017-09-19T10:17:23Z</time>
      </trkpt>
      <trkpt lat="44.49706" lon="1.98339">
        <ele>318</ele>
        <time>2017-09-19T10:17:30Z</time>
      </trkpt>
      <trkpt lat="44.49709" lon="1.98338">
        <ele>319</ele>
        <time>2017-09-19T10:18:41Z</time>
      </trkpt>
      <trkpt lat="44.49709" lon="1.98339">
        <ele>319</ele>
        <time>2017-09-19T10:19:44Z</time>
      </trkpt>
      <trkpt lat="44.49712" lon="1.98343">
        <ele>319</ele>
        <time>2017-09-19T10:20:47Z</time>
      </trkpt>
      <trkpt lat="44.49715" lon="1.98341">
        <ele>319</ele>
        <time>2017-09-19T10:21:05Z</time>
      </trkpt>
      <trkpt lat="44.49731" lon="1.98343">
        <ele>320</ele>
        <time>2017-09-19T10:21:19Z</time>
      </trkpt>
      <trkpt lat="44.49734" lon="1.98342">
        <ele>320</ele>
        <time>2017-09-19T10:21:22Z</time>
      </trkpt>
      <trkpt lat="44.49743" lon="1.98338">
        <ele>321</ele>
        <time>2017-09-19T10:21:30Z</time>
      </trkpt>
      <trkpt lat="44.49751" lon="1.98333">
        <ele>322</ele>
        <time>2017-09-19T10:21:38Z</time>
      </trkpt>
      <trkpt lat="44.49765" lon="1.98305">
        <ele>325</ele>
        <time>2017-09-19T10:22:02Z</time>
      </trkpt>
      <trkpt lat="44.4978" lon="1.98272">
        <ele>325</ele>
        <time>2017-09-19T10:22:30Z</time>
      </trkpt>
      <trkpt lat="44.49782" lon="1.98262">
        <ele>325</ele>
        <time>2017-09-19T10:22:37Z</time>
      </trkpt>
      <trkpt lat="44.49786" lon="1.98252">
        <ele>326</ele>
        <time>2017-09-19T10:22:44Z</time>
      </trkpt>
      <trkpt lat="44.49787" lon="1.98245">
        <ele>326</ele>
        <time>2017-09-19T10:22:49Z</time>
      </trkpt>
      <trkpt lat="44.49791" lon="1.9822">
        <ele>327</ele>
        <time>2017-09-19T10:23:06Z</time>
      </trkpt>
      <trkpt lat="44.49793" lon="1.98214">
        <ele>327</ele>
        <time>2017-09-19T10:23:10Z</time>
      </trkpt>
      <trkpt lat="44.49796" lon="1.98199">
        <ele>327</ele>
        <time>2017-09-19T10:23:20Z</time>
      </trkpt>
      <trkpt lat="44.49797" lon="1.98193">
        <ele>327</ele>
        <time>2017-09-19T10:23:24Z</time>
      </trkpt>
      <trkpt lat="44.49798" lon="1.98187">
        <ele>328</ele>
        <time>2017-09-19T10:23:27Z</time>
      </trkpt>
      <trkpt lat="44.49799" lon="1.9818">
        <ele>328</ele>
        <time>2017-09-19T10:23:33Z</time>
      </trkpt>
      <trkpt lat="44.498" lon="1.98172">
        <ele>328</ele>
        <time>2017-09-19T10:23:38Z</time>
      </trkpt>
      <trkpt lat="44.49801" lon="1.98164">
        <ele>329</ele>
        <time>2017-09-19T10:23:42Z</time>
      </trkpt>
      <trkpt lat="44.49803" lon="1.9815">
        <ele>329</ele>
        <time>2017-09-19T10:23:50Z</time>
      </trkpt>
      <trkpt lat="44.49806" lon="1.98144">
        <ele>329</ele>
        <time>2017-09-19T10:23:54Z</time>
      </trkpt>
      <trkpt lat="44.49809" lon="1.98138">
        <ele>330</ele>
        <time>2017-09-19T10:23:58Z</time>
      </trkpt>
      <trkpt lat="44.49816" lon="1.98125">
        <ele>330</ele>
        <time>2017-09-19T10:24:08Z</time>
      </trkpt>
      <trkpt lat="44.49821" lon="1.9812">
        <ele>330</ele>
        <time>2017-09-19T10:24:12Z</time>
      </trkpt>
      <trkpt lat="44.4983" lon="1.98107">
        <ele>332</ele>
        <time>2017-09-19T10:24:24Z</time>
      </trkpt>
      <trkpt lat="44.49837" lon="1.98093">
        <ele>338</ele>
        <time>2017-09-19T10:24:35Z</time>
      </trkpt>
      <trkpt lat="44.49842" lon="1.98088">
        <ele>338</ele>
        <time>2017-09-19T10:24:39Z</time>
      </trkpt>
      <trkpt lat="44.49848" lon="1.98077">
        <ele>339</ele>
        <time>2017-09-19T10:24:48Z</time>
      </trkpt>
      <trkpt lat="44.49848" lon="1.98072">
        <ele>339</ele>
        <time>2017-09-19T10:25:05Z</time>
      </trkpt>
      <trkpt lat="44.4985" lon="1.98065">
        <ele>339</ele>
        <time>2017-09-19T10:25:12Z</time>
      </trkpt>
      <trkpt lat="44.49853" lon="1.98057">
        <ele>339</ele>
        <time>2017-09-19T10:25:18Z</time>
      </trkpt>
      <trkpt lat="44.49857" lon="1.98047">
        <ele>340</ele>
        <time>2017-09-19T10:25:25Z</time>
      </trkpt>
      <trkpt lat="44.4986" lon="1.9804">
        <ele>340</ele>
        <time>2017-09-19T10:25:29Z</time>
      </trkpt>
      <trkpt lat="44.49863" lon="1.98032">
        <ele>340</ele>
        <time>2017-09-19T10:25:35Z</time>
      </trkpt>
      <trkpt lat="44.49871" lon="1.98015">
        <ele>340</ele>
        <time>2017-09-19T10:25:47Z</time>
      </trkpt>
      <trkpt lat="44.49872" lon="1.98008">
        <ele>340</ele>
        <time>2017-09-19T10:25:52Z</time>
      </trkpt>
      <trkpt lat="44.49874" lon="1.98">
        <ele>340</ele>
        <time>2017-09-19T10:25:56Z</time>
      </trkpt>
      <trkpt lat="44.49878" lon="1.97992">
        <ele>340</ele>
        <time>2017-09-19T10:26:00Z</time>
      </trkpt>
      <trkpt lat="44.49879" lon="1.97984">
        <ele>340</ele>
        <time>2017-09-19T10:26:04Z</time>
      </trkpt>
      <trkpt lat="44.49883" lon="1.97964">
        <ele>340</ele>
        <time>2017-09-19T10:26:14Z</time>
      </trkpt>
      <trkpt lat="44.49882" lon="1.97948">
        <ele>340</ele>
        <time>2017-09-19T10:26:22Z</time>
      </trkpt>
      <trkpt lat="44.49883" lon="1.97941">
        <ele>340</ele>
        <time>2017-09-19T10:26:27Z</time>
      </trkpt>
      <trkpt lat="44.49885" lon="1.97933">
        <ele>340</ele>
        <time>2017-09-19T10:26:31Z</time>
      </trkpt>
      <trkpt lat="44.49886" lon="1.97927">
        <ele>340</ele>
        <time>2017-09-19T10:26:34Z</time>
      </trkpt>
      <trkpt lat="44.49886" lon="1.97919">
        <ele>340</ele>
        <time>2017-09-19T10:26:38Z</time>
      </trkpt>
      <trkpt lat="44.49889" lon="1.97906">
        <ele>339</ele>
        <time>2017-09-19T10:26:45Z</time>
      </trkpt>
      <trkpt lat="44.49894" lon="1.97893">
        <ele>339</ele>
        <time>2017-09-19T10:26:53Z</time>
      </trkpt>
      <trkpt lat="44.49901" lon="1.97861">
        <ele>339</ele>
        <time>2017-09-19T10:27:13Z</time>
      </trkpt>
      <trkpt lat="44.4991" lon="1.97835">
        <ele>339</ele>
        <time>2017-09-19T10:27:31Z</time>
      </trkpt>
      <trkpt lat="44.49912" lon="1.97827">
        <ele>339</ele>
        <time>2017-09-19T10:27:35Z</time>
      </trkpt>
      <trkpt lat="44.49917" lon="1.97805">
        <ele>340</ele>
        <time>2017-09-19T10:27:49Z</time>
      </trkpt>
      <trkpt lat="44.49919" lon="1.978">
        <ele>340</ele>
        <time>2017-09-19T10:27:52Z</time>
      </trkpt>
      <trkpt lat="44.49922" lon="1.97793">
        <ele>340</ele>
        <time>2017-09-19T10:27:56Z</time>
      </trkpt>
      <trkpt lat="44.49924" lon="1.97788">
        <ele>339</ele>
        <time>2017-09-19T10:28:00Z</time>
      </trkpt>
      <trkpt lat="44.49927" lon="1.97773">
        <ele>339</ele>
        <time>2017-09-19T10:28:08Z</time>
      </trkpt>
      <trkpt lat="44.49929" lon="1.97767">
        <ele>339</ele>
        <time>2017-09-19T10:28:11Z</time>
      </trkpt>
      <trkpt lat="44.4993" lon="1.97761">
        <ele>338</ele>
        <time>2017-09-19T10:28:14Z</time>
      </trkpt>
      <trkpt lat="44.49932" lon="1.97756">
        <ele>338</ele>
        <time>2017-09-19T10:28:18Z</time>
      </trkpt>
      <trkpt lat="44.49936" lon="1.97744">
        <ele>337</ele>
        <time>2017-09-19T10:28:25Z</time>
      </trkpt>
      <trkpt lat="44.49938" lon="1.97739">
        <ele>337</ele>
        <time>2017-09-19T10:28:28Z</time>
      </trkpt>
      <trkpt lat="44.49944" lon="1.97722">
        <ele>337</ele>
        <time>2017-09-19T10:28:38Z</time>
      </trkpt>
      <trkpt lat="44.49946" lon="1.97718">
        <ele>337</ele>
        <time>2017-09-19T10:28:41Z</time>
      </trkpt>
      <trkpt lat="44.49948" lon="1.97712">
        <ele>336</ele>
        <time>2017-09-19T10:28:45Z</time>
      </trkpt>
      <trkpt lat="44.4995" lon="1.97706">
        <ele>336</ele>
        <time>2017-09-19T10:28:49Z</time>
      </trkpt>
      <trkpt lat="44.4996" lon="1.97674">
        <ele>336</ele>
        <time>2017-09-19T10:29:09Z</time>
      </trkpt>
      <trkpt lat="44.49964" lon="1.97663">
        <ele>334</ele>
        <time>2017-09-19T10:29:17Z</time>
      </trkpt>
      <trkpt lat="44.49965" lon="1.97657">
        <ele>334</ele>
        <time>2017-09-19T10:29:21Z</time>
      </trkpt>
      <trkpt lat="44.49972" lon="1.97636">
        <ele>334</ele>
        <time>2017-09-19T10:29:35Z</time>
      </trkpt>
      <trkpt lat="44.49977" lon="1.97609">
        <ele>334</ele>
        <time>2017-09-19T10:29:52Z</time>
      </trkpt>
      <trkpt lat="44.49981" lon="1.97594">
        <ele>333</ele>
        <time>2017-09-19T10:30:01Z</time>
      </trkpt>
      <trkpt lat="44.49987" lon="1.97582">
        <ele>332</ele>
        <time>2017-09-19T10:30:10Z</time>
      </trkpt>
      <trkpt lat="44.49993" lon="1.97563">
        <ele>332</ele>
        <time>2017-09-19T10:30:24Z</time>
      </trkpt>
      <trkpt lat="44.49993" lon="1.9756">
        <ele>332</ele>
        <time>2017-09-19T10:30:26Z</time>
      </trkpt>
      <trkpt lat="44.49997" lon="1.97547">
        <ele>332</ele>
        <time>2017-09-19T10:30:35Z</time>
      </trkpt>
      <trkpt lat="44.5" lon="1.97533">
        <ele>332</ele>
        <time>2017-09-19T10:30:43Z</time>
      </trkpt>
      <trkpt lat="44.50002" lon="1.97519">
        <ele>332</ele>
        <time>2017-09-19T10:30:52Z</time>
      </trkpt>
      <trkpt lat="44.50012" lon="1.97476">
        <ele>332</ele>
        <time>2017-09-19T10:31:18Z</time>
      </trkpt>
      <trkpt lat="44.50016" lon="1.97468">
        <ele>333</ele>
        <time>2017-09-19T10:31:24Z</time>
      </trkpt>
      <trkpt lat="44.50048" lon="1.97446">
        <ele>333</ele>
        <time>2017-09-19T10:31:54Z</time>
      </trkpt>
      <trkpt lat="44.50052" lon="1.97445">
        <ele>333</ele>
        <time>2017-09-19T10:31:58Z</time>
      </trkpt>
      <trkpt lat="44.50054" lon="1.97443">
        <ele>333</ele>
        <time>2017-09-19T10:32:03Z</time>
      </trkpt>
      <trkpt lat="44.50078" lon="1.97443">
        <ele>333</ele>
        <time>2017-09-19T10:32:28Z</time>
      </trkpt>
      <trkpt lat="44.5008" lon="1.97442">
        <ele>333</ele>
        <time>2017-09-19T10:32:30Z</time>
      </trkpt>
      <trkpt lat="44.50104" lon="1.9743">
        <ele>336</ele>
        <time>2017-09-19T10:32:52Z</time>
      </trkpt>
      <trkpt lat="44.50133" lon="1.9741">
        <ele>337</ele>
        <time>2017-09-19T10:33:21Z</time>
      </trkpt>
      <trkpt lat="44.50138" lon="1.97407">
        <ele>338</ele>
        <time>2017-09-19T10:33:25Z</time>
      </trkpt>
      <trkpt lat="44.50141" lon="1.97405">
        <ele>338</ele>
        <time>2017-09-19T10:33:28Z</time>
      </trkpt>
      <trkpt lat="44.50148" lon="1.97397">
        <ele>338</ele>
        <time>2017-09-19T10:33:36Z</time>
      </trkpt>
      <trkpt lat="44.50169" lon="1.97378">
        <ele>342</ele>
        <time>2017-09-19T10:33:57Z</time>
      </trkpt>
      <trkpt lat="44.5018" lon="1.97363">
        <ele>342</ele>
        <time>2017-09-19T10:34:10Z</time>
      </trkpt>
      <trkpt lat="44.50183" lon="1.97359">
        <ele>342</ele>
        <time>2017-09-19T10:34:14Z</time>
      </trkpt>
      <trkpt lat="44.50192" lon="1.97348">
        <ele>342</ele>
        <time>2017-09-19T10:34:23Z</time>
      </trkpt>
      <trkpt lat="44.50195" lon="1.97344">
        <ele>342</ele>
        <time>2017-09-19T10:34:26Z</time>
      </trkpt>
      <trkpt lat="44.50218" lon="1.97308">
        <ele>341</ele>
        <time>2017-09-19T10:34:58Z</time>
      </trkpt>
      <trkpt lat="44.50222" lon="1.97305">
        <ele>341</ele>
        <time>2017-09-19T10:35:01Z</time>
      </trkpt>
      <trkpt lat="44.50225" lon="1.97301">
        <ele>341</ele>
        <time>2017-09-19T10:35:04Z</time>
      </trkpt>
      <trkpt lat="44.50229" lon="1.97296">
        <ele>341</ele>
        <time>2017-09-19T10:35:08Z</time>
      </trkpt>
      <trkpt lat="44.50235" lon="1.97287">
        <ele>341</ele>
        <time>2017-09-19T10:35:14Z</time>
      </trkpt>
      <trkpt lat="44.50244" lon="1.97274">
        <ele>341</ele>
        <time>2017-09-19T10:35:24Z</time>
      </trkpt>
      <trkpt lat="44.50247" lon="1.97269">
        <ele>341</ele>
        <time>2017-09-19T10:35:28Z</time>
      </trkpt>
      <trkpt lat="44.50253" lon="1.97261">
        <ele>344</ele>
        <time>2017-09-19T10:35:34Z</time>
      </trkpt>
      <trkpt lat="44.50271" lon="1.97245">
        <ele>343</ele>
        <time>2017-09-19T10:35:50Z</time>
      </trkpt>
      <trkpt lat="44.50275" lon="1.9724">
        <ele>343</ele>
        <time>2017-09-19T10:35:54Z</time>
      </trkpt>
      <trkpt lat="44.50281" lon="1.97229">
        <ele>344</ele>
        <time>2017-09-19T10:36:02Z</time>
      </trkpt>
      <trkpt lat="44.50285" lon="1.97227">
        <ele>344</ele>
        <time>2017-09-19T10:36:06Z</time>
      </trkpt>
      <trkpt lat="44.50289" lon="1.97223">
        <ele>344</ele>
        <time>2017-09-19T10:36:09Z</time>
      </trkpt>
      <trkpt lat="44.50324" lon="1.97196">
        <ele>345</ele>
        <time>2017-09-19T10:36:39Z</time>
      </trkpt>
      <trkpt lat="44.50327" lon="1.97193">
        <ele>345</ele>
        <time>2017-09-19T10:36:43Z</time>
      </trkpt>
      <trkpt lat="44.5033" lon="1.97191">
        <ele>345</ele>
        <time>2017-09-19T10:36:46Z</time>
      </trkpt>
      <trkpt lat="44.50332" lon="1.97188">
        <ele>345</ele>
        <time>2017-09-19T10:36:49Z</time>
      </trkpt>
      <trkpt lat="44.50357" lon="1.97164">
        <ele>343</ele>
        <time>2017-09-19T10:37:14Z</time>
      </trkpt>
      <trkpt lat="44.5036" lon="1.97161">
        <ele>343</ele>
        <time>2017-09-19T10:37:17Z</time>
      </trkpt>
      <trkpt lat="44.50395" lon="1.97134">
        <ele>342</ele>
        <time>2017-09-19T10:37:48Z</time>
      </trkpt>
      <trkpt lat="44.50424" lon="1.97117">
        <ele>340</ele>
        <time>2017-09-19T10:38:17Z</time>
      </trkpt>
      <trkpt lat="44.5046" lon="1.97109">
        <ele>339</ele>
        <time>2017-09-19T10:38:48Z</time>
      </trkpt>
      <trkpt lat="44.50473" lon="1.97108">
        <ele>339</ele>
        <time>2017-09-19T10:38:58Z</time>
      </trkpt>
      <trkpt lat="44.50476" lon="1.97108">
        <ele>339</ele>
        <time>2017-09-19T10:39:01Z</time>
      </trkpt>
      <trkpt lat="44.50491" lon="1.97107">
        <ele>338</ele>
        <time>2017-09-19T10:39:14Z</time>
      </trkpt>
      <trkpt lat="44.50494" lon="1.97108">
        <ele>338</ele>
        <time>2017-09-19T10:39:17Z</time>
      </trkpt>
      <trkpt lat="44.505" lon="1.97109">
        <ele>338</ele>
        <time>2017-09-19T10:39:23Z</time>
      </trkpt>
      <trkpt lat="44.50537" lon="1.97109">
        <ele>339</ele>
        <time>2017-09-19T10:39:54Z</time>
      </trkpt>
      <trkpt lat="44.50552" lon="1.9711">
        <ele>339</ele>
        <time>2017-09-19T10:40:07Z</time>
      </trkpt>
      <trkpt lat="44.50556" lon="1.97111">
        <ele>339</ele>
        <time>2017-09-19T10:40:11Z</time>
      </trkpt>
      <trkpt lat="44.5056" lon="1.97112">
        <ele>339</ele>
        <time>2017-09-19T10:40:15Z</time>
      </trkpt>
      <trkpt lat="44.50568" lon="1.97114">
        <ele>339</ele>
        <time>2017-09-19T10:40:23Z</time>
      </trkpt>
      <trkpt lat="44.50575" lon="1.97114">
        <ele>340</ele>
        <time>2017-09-19T10:40:31Z</time>
      </trkpt>
      <trkpt lat="44.50578" lon="1.97113">
        <ele>340</ele>
        <time>2017-09-19T10:40:34Z</time>
      </trkpt>
      <trkpt lat="44.50582" lon="1.97112">
        <ele>340</ele>
        <time>2017-09-19T10:40:37Z</time>
      </trkpt>
      <trkpt lat="44.50607" lon="1.97105">
        <ele>341</ele>
        <time>2017-09-19T10:40:58Z</time>
      </trkpt>
      <trkpt lat="44.5061" lon="1.97104">
        <ele>341</ele>
        <time>2017-09-19T10:41:02Z</time>
      </trkpt>
      <trkpt lat="44.50642" lon="1.971">
        <ele>340</ele>
        <time>2017-09-19T10:41:29Z</time>
      </trkpt>
      <trkpt lat="44.50651" lon="1.97098">
        <ele>340</ele>
        <time>2017-09-19T10:41:38Z</time>
      </trkpt>
      <trkpt lat="44.50655" lon="1.97097">
        <ele>340</ele>
        <time>2017-09-19T10:41:41Z</time>
      </trkpt>
      <trkpt lat="44.50659" lon="1.97096">
        <ele>340</ele>
        <time>2017-09-19T10:41:44Z</time>
      </trkpt>
      <trkpt lat="44.50681" lon="1.97088">
        <ele>339</ele>
        <time>2017-09-19T10:42:04Z</time>
      </trkpt>
      <trkpt lat="44.50693" lon="1.97083">
        <ele>339</ele>
        <time>2017-09-19T10:42:16Z</time>
      </trkpt>
      <trkpt lat="44.50701" lon="1.9708">
        <ele>339</ele>
        <time>2017-09-19T10:42:24Z</time>
      </trkpt>
      <trkpt lat="44.50713" lon="1.97073">
        <ele>338</ele>
        <time>2017-09-19T10:42:36Z</time>
      </trkpt>
      <trkpt lat="44.50718" lon="1.97071">
        <ele>338</ele>
        <time>2017-09-19T10:42:40Z</time>
      </trkpt>
      <trkpt lat="44.50727" lon="1.97066">
        <ele>338</ele>
        <time>2017-09-19T10:42:48Z</time>
      </trkpt>
      <trkpt lat="44.50731" lon="1.97064">
        <ele>338</ele>
        <time>2017-09-19T10:42:52Z</time>
      </trkpt>
      <trkpt lat="44.50736" lon="1.97062">
        <ele>338</ele>
        <time>2017-09-19T10:42:56Z</time>
      </trkpt>
      <trkpt lat="44.5074" lon="1.97061">
        <ele>338</ele>
        <time>2017-09-19T10:43:00Z</time>
      </trkpt>
      <trkpt lat="44.50753" lon="1.97054">
        <ele>336</ele>
        <time>2017-09-19T10:43:12Z</time>
      </trkpt>
      <trkpt lat="44.50761" lon="1.97049">
        <ele>335</ele>
        <time>2017-09-19T10:43:20Z</time>
      </trkpt>
      <trkpt lat="44.50769" lon="1.97046">
        <ele>335</ele>
        <time>2017-09-19T10:43:26Z</time>
      </trkpt>
      <trkpt lat="44.50785" lon="1.97039">
        <ele>335</ele>
        <time>2017-09-19T10:43:37Z</time>
      </trkpt>
      <trkpt lat="44.50788" lon="1.97037">
        <ele>335</ele>
        <time>2017-09-19T10:43:41Z</time>
      </trkpt>
      <trkpt lat="44.50804" lon="1.97028">
        <ele>334</ele>
        <time>2017-09-19T10:43:52Z</time>
      </trkpt>
      <trkpt lat="44.50807" lon="1.97027">
        <ele>334</ele>
        <time>2017-09-19T10:43:56Z</time>
      </trkpt>
      <trkpt lat="44.5081" lon="1.97023">
        <ele>334</ele>
        <time>2017-09-19T10:43:59Z</time>
      </trkpt>
      <trkpt lat="44.50822" lon="1.97011">
        <ele>333</ele>
        <time>2017-09-19T10:44:12Z</time>
      </trkpt>
      <trkpt lat="44.50831" lon="1.97006">
        <ele>332</ele>
        <time>2017-09-19T10:44:17Z</time>
      </trkpt>
      <trkpt lat="44.50843" lon="1.96994">
        <ele>331</ele>
        <time>2017-09-19T10:44:29Z</time>
      </trkpt>
      <trkpt lat="44.50846" lon="1.96992">
        <ele>330</ele>
        <time>2017-09-19T10:44:32Z</time>
      </trkpt>
      <trkpt lat="44.5085" lon="1.96989">
        <ele>330</ele>
        <time>2017-09-19T10:44:37Z</time>
      </trkpt>
      <trkpt lat="44.50853" lon="1.96984">
        <ele>330</ele>
        <time>2017-09-19T10:44:43Z</time>
      </trkpt>
      <trkpt lat="44.50857" lon="1.9698">
        <ele>330</ele>
        <time>2017-09-19T10:44:48Z</time>
      </trkpt>
      <trkpt lat="44.50861" lon="1.96975">
        <ele>330</ele>
        <time>2017-09-19T10:44:53Z</time>
      </trkpt>
      <trkpt lat="44.50871" lon="1.96967">
        <ele>330</ele>
        <time>2017-09-19T10:45:00Z</time>
      </trkpt>
      <trkpt lat="44.50887" lon="1.96959">
        <ele>330</ele>
        <time>2017-09-19T10:45:16Z</time>
      </trkpt>
      <trkpt lat="44.50909" lon="1.96957">
        <ele>330</ele>
        <time>2017-09-19T10:45:34Z</time>
      </trkpt>
      <trkpt lat="44.50914" lon="1.96956">
        <ele>330</ele>
        <time>2017-09-19T10:45:38Z</time>
      </trkpt>
      <trkpt lat="44.50918" lon="1.96951">
        <ele>329</ele>
        <time>2017-09-19T10:45:42Z</time>
      </trkpt>
      <trkpt lat="44.50921" lon="1.96946">
        <ele>329</ele>
        <time>2017-09-19T10:45:46Z</time>
      </trkpt>
      <trkpt lat="44.50921" lon="1.96938">
        <ele>329</ele>
        <time>2017-09-19T10:45:52Z</time>
      </trkpt>
      <trkpt lat="44.50915" lon="1.9692">
        <ele>328</ele>
        <time>2017-09-19T10:46:03Z</time>
      </trkpt>
      <trkpt lat="44.50913" lon="1.96916">
        <ele>328</ele>
        <time>2017-09-19T10:46:06Z</time>
      </trkpt>
      <trkpt lat="44.50901" lon="1.96886">
        <ele>327</ele>
        <time>2017-09-19T10:46:24Z</time>
      </trkpt>
      <trkpt lat="44.509" lon="1.96882">
        <ele>327</ele>
        <time>2017-09-19T10:46:27Z</time>
      </trkpt>
      <trkpt lat="44.50898" lon="1.96883">
        <ele>327</ele>
        <time>2017-09-19T10:47:35Z</time>
      </trkpt>
      <trkpt lat="44.50898" lon="1.96888">
        <ele>327</ele>
        <time>2017-09-19T10:48:10Z</time>
      </trkpt>
      <trkpt lat="44.50898" lon="1.96892">
        <ele>328</ele>
        <time>2017-09-19T10:48:14Z</time>
      </trkpt>
      <trkpt lat="44.509" lon="1.96896">
        <ele>328</ele>
        <time>2017-09-19T10:48:27Z</time>
      </trkpt>
      <trkpt lat="44.50901" lon="1.969">
        <ele>328</ele>
        <time>2017-09-19T10:48:30Z</time>
      </trkpt>
      <trkpt lat="44.50899" lon="1.96903">
        <ele>328</ele>
        <time>2017-09-19T10:48:32Z</time>
      </trkpt>
      <trkpt lat="44.50896" lon="1.96912">
        <ele>328</ele>
        <time>2017-09-19T10:48:41Z</time>
      </trkpt>
      <trkpt lat="44.50894" lon="1.96916">
        <ele>328</ele>
        <time>2017-09-19T10:48:47Z</time>
      </trkpt>
      <trkpt lat="44.50893" lon="1.96923">
        <ele>329</ele>
        <time>2017-09-19T10:52:45Z</time>
      </trkpt>
      <trkpt lat="44.50892" lon="1.96927">
        <ele>329</ele>
        <time>2017-09-19T10:49:25Z</time>
      </trkpt>
      <trkpt lat="44.50892" lon="1.96928">
        <ele>329</ele>
        <time>2017-09-19T10:50:33Z</time>
      </trkpt>
      <trkpt lat="44.50896" lon="1.9693">
        <ele>329</ele>
        <time>2017-09-19T10:51:07Z</time>
      </trkpt>
      <trkpt lat="44.50894" lon="1.96929">
        <ele>329</ele>
        <time>2017-09-19T10:51:47Z</time>
      </trkpt>
      <trkpt lat="44.50892" lon="1.96931">
        <ele>329</ele>
        <time>2017-09-19T10:52:08Z</time>
      </trkpt>
      <trkpt lat="44.50891" lon="1.96934">
        <ele>329</ele>
        <time>2017-09-19T10:52:14Z</time>
      </trkpt>
      <trkpt lat="44.50895" lon="1.96933">
        <ele>329</ele>
        <time>2017-09-19T10:52:34Z</time>
      </trkpt>
      <trkpt lat="44.50895" lon="1.9693">
        <ele>329</ele>
        <time>2017-09-19T10:52:37Z</time>
      </trkpt>
      <trkpt lat="44.50893" lon="1.96926">
        <ele>329</ele>
        <time>2017-09-19T10:54:52Z</time>
      </trkpt>
      <trkpt lat="44.50893" lon="1.96923">
        <ele>329</ele>
        <time>2017-09-19T10:52:45Z</time>
      </trkpt>
      <trkpt lat="44.50893" lon="1.96917">
        <ele>329</ele>
        <time>2017-09-19T10:53:47Z</time>
      </trkpt>
      <trkpt lat="44.50897" lon="1.96906">
        <ele>328</ele>
        <time>2017-09-19T10:53:57Z</time>
      </trkpt>
      <trkpt lat="44.50897" lon="1.96902">
        <ele>328</ele>
        <time>2017-09-19T10:54:14Z</time>
      </trkpt>
      <trkpt lat="44.50889" lon="1.96901">
        <ele>328</ele>
        <time>2017-09-19T10:54:22Z</time>
      </trkpt>
      <trkpt lat="44.50891" lon="1.96903">
        <ele>328</ele>
        <time>2017-09-19T10:54:35Z</time>
      </trkpt>
      <trkpt lat="44.50893" lon="1.96906">
        <ele>328</ele>
        <time>2017-09-19T10:54:38Z</time>
      </trkpt>
      <trkpt lat="44.50893" lon="1.96916">
        <ele>328</ele>
        <time>2017-09-19T10:54:45Z</time>
      </trkpt>
      <trkpt lat="44.50892" lon="1.96921">
        <ele>329</ele>
        <time>2017-09-19T10:54:48Z</time>
      </trkpt>
      <trkpt lat="44.50893" lon="1.96926">
        <ele>329</ele>
        <time>2017-09-19T10:54:52Z</time>
      </trkpt>
      <trkpt lat="44.50891" lon="1.96923">
        <ele>329</ele>
        <time>2017-09-19T10:55:49Z</time>
      </trkpt>
      <trkpt lat="44.50891" lon="1.96919">
        <ele>329</ele>
        <time>2017-09-19T10:55:53Z</time>
      </trkpt>
      <trkpt lat="44.50892" lon="1.96914">
        <ele>328</ele>
        <time>2017-09-19T11:21:45Z</time>
      </trkpt>
      <trkpt lat="44.50896" lon="1.96905">
        <ele>328</ele>
        <time>2017-09-19T10:56:05Z</time>
      </trkpt>
      <trkpt lat="44.50895" lon="1.969">
        <ele>328</ele>
        <time>2017-09-19T10:56:09Z</time>
      </trkpt>
      <trkpt lat="44.50891" lon="1.96901">
        <ele>328</ele>
        <time>2017-09-19T10:56:13Z</time>
      </trkpt>
      <trkpt lat="44.50887" lon="1.969">
        <ele>328</ele>
        <time>2017-09-19T10:56:17Z</time>
      </trkpt>
      <trkpt lat="44.50888" lon="1.96898">
        <ele>328</ele>
        <time>2017-09-19T10:56:34Z</time>
      </trkpt>
      <trkpt lat="44.50892" lon="1.969">
        <ele>328</ele>
        <time>2017-09-19T10:56:38Z</time>
      </trkpt>
      <trkpt lat="44.50894" lon="1.96903">
        <ele>328</ele>
        <time>2017-09-19T10:56:41Z</time>
      </trkpt>
      <trkpt lat="44.50895" lon="1.96908">
        <ele>328</ele>
        <time>2017-09-19T10:56:45Z</time>
      </trkpt>
      <trkpt lat="44.50893" lon="1.96912">
        <ele>328</ele>
        <time>2017-09-19T10:56:50Z</time>
      </trkpt>
      <trkpt lat="44.50892" lon="1.96916">
        <ele>328</ele>
        <time>2017-09-19T11:39:17Z</time>
      </trkpt>
      <trkpt lat="44.5089" lon="1.96918">
        <ele>329</ele>
        <time>2017-09-19T10:57:35Z</time>
      </trkpt>
      <trkpt lat="44.50894" lon="1.96913">
        <ele>328</ele>
        <time>2017-09-19T10:57:46Z</time>
      </trkpt>
      <trkpt lat="44.50896" lon="1.96907">
        <ele>328</ele>
        <time>2017-09-19T10:57:50Z</time>
      </trkpt>
      <trkpt lat="44.50893" lon="1.96902">
        <ele>328</ele>
        <time>2017-09-19T10:57:55Z</time>
      </trkpt>
      <trkpt lat="44.50889" lon="1.96899">
        <ele>328</ele>
        <time>2017-09-19T10:58:00Z</time>
      </trkpt>
      <trkpt lat="44.50887" lon="1.96895">
        <ele>328</ele>
        <time>2017-09-19T10:58:14Z</time>
      </trkpt>
      <trkpt lat="44.50886" lon="1.96895">
        <ele>328</ele>
        <time>2017-09-19T11:11:12Z</time>
      </trkpt>
      <trkpt lat="44.50885" lon="1.96893">
        <ele>328</ele>
        <time>2017-09-19T11:17:00Z</time>
      </trkpt>
      <trkpt lat="44.5089" lon="1.96898">
        <ele>328</ele>
        <time>2017-09-19T11:20:36Z</time>
      </trkpt>
      <trkpt lat="44.50887" lon="1.96899">
        <ele>328</ele>
        <time>2017-09-19T11:21:28Z</time>
      </trkpt>
      <trkpt lat="44.5089" lon="1.96902">
        <ele>328</ele>
        <time>2017-09-19T11:21:32Z</time>
      </trkpt>
      <trkpt lat="44.50893" lon="1.96903">
        <ele>328</ele>
        <time>2017-09-19T11:21:35Z</time>
      </trkpt>
      <trkpt lat="44.50895" lon="1.96906">
        <ele>328</ele>
        <time>2017-09-19T11:21:39Z</time>
      </trkpt>
      <trkpt lat="44.50894" lon="1.9691">
        <ele>328</ele>
        <time>2017-09-19T11:21:42Z</time>
      </trkpt>
      <trkpt lat="44.50892" lon="1.96914">
        <ele>328</ele>
        <time>2017-09-19T11:21:45Z</time>
      </trkpt>
      <trkpt lat="44.5089" lon="1.96916">
        <ele>328</ele>
        <time>2017-09-19T11:21:47Z</time>
      </trkpt>
      <trkpt lat="44.50889" lon="1.96918">
        <ele>329</ele>
        <time>2017-09-19T11:22:50Z</time>
      </trkpt>
      <trkpt lat="44.50892" lon="1.96916">
        <ele>328</ele>
        <time>2017-09-19T11:39:17Z</time>
      </trkpt>
      <trkpt lat="44.50893" lon="1.96913">
        <ele>328</ele>
        <time>2017-09-19T11:39:23Z</time>
      </trkpt>
      <trkpt lat="44.50894" lon="1.96908">
        <ele>328</ele>
        <time>2017-09-19T11:39:43Z</time>
      </trkpt>
      <trkpt lat="44.50896" lon="1.96903">
        <ele>328</ele>
        <time>2017-09-19T11:39:49Z</time>
      </trkpt>
      <trkpt lat="44.50898" lon="1.96898">
        <ele>328</ele>
        <time>2017-09-19T11:39:57Z</time>
      </trkpt>
      <trkpt lat="44.509" lon="1.96893">
        <ele>328</ele>
        <time>2017-09-19T11:40:03Z</time>
      </trkpt>
      <trkpt lat="44.50902" lon="1.96887">
        <ele>327</ele>
        <time>2017-09-19T11:40:09Z</time>
      </trkpt>
      <trkpt lat="44.50901" lon="1.96881">
        <ele>327</ele>
        <time>2017-09-19T11:40:13Z</time>
      </trkpt>
      <trkpt lat="44.50898" lon="1.96878">
        <ele>327</ele>
        <time>2017-09-19T11:40:16Z</time>
      </trkpt>
      <trkpt lat="44.50895" lon="1.96868">
        <ele>327</ele>
        <time>2017-09-19T11:40:25Z</time>
      </trkpt>
      <trkpt lat="44.50893" lon="1.96862">
        <ele>327</ele>
        <time>2017-09-19T11:40:31Z</time>
      </trkpt>
      <trkpt lat="44.50893" lon="1.96858">
        <ele>327</ele>
        <time>2017-09-19T11:40:34Z</time>
      </trkpt>
      <trkpt lat="44.50891" lon="1.96853">
        <ele>327</ele>
        <time>2017-09-19T11:40:37Z</time>
      </trkpt>
      <trkpt lat="44.5089" lon="1.9685">
        <ele>327</ele>
        <time>2017-09-19T11:40:41Z</time>
      </trkpt>
      <trkpt lat="44.5089" lon="1.96845">
        <ele>327</ele>
        <time>2017-09-19T11:40:44Z</time>
      </trkpt>
      <trkpt lat="44.50886" lon="1.96833">
        <ele>325</ele>
        <time>2017-09-19T11:40:55Z</time>
      </trkpt>
      <trkpt lat="44.50885" lon="1.96828">
        <ele>325</ele>
        <time>2017-09-19T11:40:58Z</time>
      </trkpt>
      <trkpt lat="44.50883" lon="1.96817">
        <ele>325</ele>
        <time>2017-09-19T11:41:07Z</time>
      </trkpt>
      <trkpt lat="44.50882" lon="1.96813">
        <ele>325</ele>
        <time>2017-09-19T11:41:10Z</time>
      </trkpt>
      <trkpt lat="44.5088" lon="1.96805">
        <ele>325</ele>
        <time>2017-09-19T11:41:15Z</time>
      </trkpt>
      <trkpt lat="44.5088" lon="1.96802">
        <ele>325</ele>
        <time>2017-09-19T11:41:17Z</time>
      </trkpt>
      <trkpt lat="44.50879" lon="1.96796">
        <ele>325</ele>
        <time>2017-09-19T11:41:20Z</time>
      </trkpt>
      <trkpt lat="44.50878" lon="1.96792">
        <ele>325</ele>
        <time>2017-09-19T11:41:23Z</time>
      </trkpt>
      <trkpt lat="44.50877" lon="1.96789">
        <ele>325</ele>
        <time>2017-09-19T11:41:26Z</time>
      </trkpt>
      <trkpt lat="44.50876" lon="1.96784">
        <ele>325</ele>
        <time>2017-09-19T11:41:28Z</time>
      </trkpt>
      <trkpt lat="44.50876" lon="1.9678">
        <ele>325</ele>
        <time>2017-09-19T11:41:31Z</time>
      </trkpt>
      <trkpt lat="44.50873" lon="1.96768">
        <ele>325</ele>
        <time>2017-09-19T11:41:40Z</time>
      </trkpt>
      <trkpt lat="44.50872" lon="1.96763">
        <ele>325</ele>
        <time>2017-09-19T11:41:43Z</time>
      </trkpt>
      <trkpt lat="44.50871" lon="1.96758">
        <ele>325</ele>
        <time>2017-09-19T11:41:48Z</time>
      </trkpt>
      <trkpt lat="44.5087" lon="1.96752">
        <ele>325</ele>
        <time>2017-09-19T11:41:52Z</time>
      </trkpt>
      <trkpt lat="44.50869" lon="1.96748">
        <ele>323</ele>
        <time>2017-09-19T11:41:55Z</time>
      </trkpt>
      <trkpt lat="44.50868" lon="1.96745">
        <ele>323</ele>
        <time>2017-09-19T11:41:58Z</time>
      </trkpt>
      <trkpt lat="44.50867" lon="1.96741">
        <ele>323</ele>
        <time>2017-09-19T11:42:01Z</time>
      </trkpt>
      <trkpt lat="44.50866" lon="1.96731">
        <ele>323</ele>
        <time>2017-09-19T11:42:10Z</time>
      </trkpt>
      <trkpt lat="44.50864" lon="1.96726">
        <ele>323</ele>
        <time>2017-09-19T11:42:13Z</time>
      </trkpt>
      <trkpt lat="44.50863" lon="1.96721">
        <ele>323</ele>
        <time>2017-09-19T11:42:17Z</time>
      </trkpt>
      <trkpt lat="44.50862" lon="1.96717">
        <ele>323</ele>
        <time>2017-09-19T11:42:22Z</time>
      </trkpt>
      <trkpt lat="44.5086" lon="1.96708">
        <ele>323</ele>
        <time>2017-09-19T11:42:28Z</time>
      </trkpt>
      <trkpt lat="44.50858" lon="1.96706">
        <ele>323</ele>
        <time>2017-09-19T11:42:33Z</time>
      </trkpt>
      <trkpt lat="44.50858" lon="1.96702">
        <ele>322</ele>
        <time>2017-09-19T11:42:34Z</time>
      </trkpt>
      <trkpt lat="44.50857" lon="1.96699">
        <ele>322</ele>
        <time>2017-09-19T11:42:36Z</time>
      </trkpt>
      <trkpt lat="44.50856" lon="1.96695">
        <ele>322</ele>
        <time>2017-09-19T11:42:40Z</time>
      </trkpt>
      <trkpt lat="44.50856" lon="1.96692">
        <ele>322</ele>
        <time>2017-09-19T11:42:43Z</time>
      </trkpt>
      <trkpt lat="44.50854" lon="1.96688">
        <ele>322</ele>
        <time>2017-09-19T11:42:46Z</time>
      </trkpt>
      <trkpt lat="44.50853" lon="1.96684">
        <ele>322</ele>
        <time>2017-09-19T11:42:49Z</time>
      </trkpt>
      <trkpt lat="44.50853" lon="1.9668">
        <ele>322</ele>
        <time>2017-09-19T11:42:52Z</time>
      </trkpt>
      <trkpt lat="44.50851" lon="1.96676">
        <ele>322</ele>
        <time>2017-09-19T11:42:55Z</time>
      </trkpt>
      <trkpt lat="44.50851" lon="1.96672">
        <ele>322</ele>
        <time>2017-09-19T11:42:58Z</time>
      </trkpt>
      <trkpt lat="44.5085" lon="1.96668">
        <ele>322</ele>
        <time>2017-09-19T11:43:01Z</time>
      </trkpt>
      <trkpt lat="44.50848" lon="1.96651">
        <ele>321</ele>
        <time>2017-09-19T11:43:16Z</time>
      </trkpt>
      <trkpt lat="44.50848" lon="1.96646">
        <ele>321</ele>
        <time>2017-09-19T11:43:19Z</time>
      </trkpt>
      <trkpt lat="44.50848" lon="1.96641">
        <ele>320</ele>
        <time>2017-09-19T11:43:22Z</time>
      </trkpt>
      <trkpt lat="44.50847" lon="1.96637">
        <ele>320</ele>
        <time>2017-09-19T11:43:25Z</time>
      </trkpt>
      <trkpt lat="44.50846" lon="1.96633">
        <ele>320</ele>
        <time>2017-09-19T11:43:28Z</time>
      </trkpt>
      <trkpt lat="44.50845" lon="1.96628">
        <ele>320</ele>
        <time>2017-09-19T11:43:31Z</time>
      </trkpt>
      <trkpt lat="44.50845" lon="1.96624">
        <ele>320</ele>
        <time>2017-09-19T11:43:35Z</time>
      </trkpt>
      <trkpt lat="44.50845" lon="1.96616">
        <ele>320</ele>
        <time>2017-09-19T11:43:40Z</time>
      </trkpt>
      <trkpt lat="44.50845" lon="1.96611">
        <ele>320</ele>
        <time>2017-09-19T11:43:43Z</time>
      </trkpt>
      <trkpt lat="44.50845" lon="1.96601">
        <ele>319</ele>
        <time>2017-09-19T11:43:49Z</time>
      </trkpt>
      <trkpt lat="44.50846" lon="1.96597">
        <ele>319</ele>
        <time>2017-09-19T11:43:52Z</time>
      </trkpt>
      <trkpt lat="44.50846" lon="1.96592">
        <ele>319</ele>
        <time>2017-09-19T11:43:56Z</time>
      </trkpt>
      <trkpt lat="44.50847" lon="1.96587">
        <ele>319</ele>
        <time>2017-09-19T11:44:02Z</time>
      </trkpt>
      <trkpt lat="44.50848" lon="1.96584">
        <ele>319</ele>
        <time>2017-09-19T11:44:04Z</time>
      </trkpt>
      <trkpt lat="44.5085" lon="1.96575">
        <ele>318</ele>
        <time>2017-09-19T11:44:11Z</time>
      </trkpt>
      <trkpt lat="44.5085" lon="1.96571">
        <ele>318</ele>
        <time>2017-09-19T11:44:14Z</time>
      </trkpt>
      <trkpt lat="44.50853" lon="1.96564">
        <ele>318</ele>
        <time>2017-09-19T11:44:19Z</time>
      </trkpt>
      <trkpt lat="44.50854" lon="1.9656">
        <ele>318</ele>
        <time>2017-09-19T11:44:21Z</time>
      </trkpt>
      <trkpt lat="44.50856" lon="1.96558">
        <ele>318</ele>
        <time>2017-09-19T11:44:24Z</time>
      </trkpt>
      <trkpt lat="44.50865" lon="1.96549">
        <ele>318</ele>
        <time>2017-09-19T11:44:33Z</time>
      </trkpt>
      <trkpt lat="44.50868" lon="1.96548">
        <ele>318</ele>
        <time>2017-09-19T11:44:36Z</time>
      </trkpt>
      <trkpt lat="44.50871" lon="1.96545">
        <ele>318</ele>
        <time>2017-09-19T11:44:40Z</time>
      </trkpt>
      <trkpt lat="44.50873" lon="1.96544">
        <ele>318</ele>
        <time>2017-09-19T11:44:43Z</time>
      </trkpt>
      <trkpt lat="44.50877" lon="1.96542">
        <ele>317</ele>
        <time>2017-09-19T11:44:46Z</time>
      </trkpt>
      <trkpt lat="44.50881" lon="1.96539">
        <ele>317</ele>
        <time>2017-09-19T11:44:49Z</time>
      </trkpt>
      <trkpt lat="44.50885" lon="1.96536">
        <ele>317</ele>
        <time>2017-09-19T11:44:53Z</time>
      </trkpt>
      <trkpt lat="44.50893" lon="1.96532">
        <ele>317</ele>
        <time>2017-09-19T11:44:59Z</time>
      </trkpt>
      <trkpt lat="44.50897" lon="1.9653">
        <ele>317</ele>
        <time>2017-09-19T11:45:07Z</time>
      </trkpt>
      <trkpt lat="44.50901" lon="1.96528">
        <ele>317</ele>
        <time>2017-09-19T11:45:19Z</time>
      </trkpt>
      <trkpt lat="44.50905" lon="1.96526">
        <ele>317</ele>
        <time>2017-09-19T11:45:23Z</time>
      </trkpt>
      <trkpt lat="44.50916" lon="1.96517">
        <ele>317</ele>
        <time>2017-09-19T11:45:33Z</time>
      </trkpt>
      <trkpt lat="44.50929" lon="1.96508">
        <ele>317</ele>
        <time>2017-09-19T11:45:48Z</time>
      </trkpt>
      <trkpt lat="44.50933" lon="1.96503">
        <ele>317</ele>
        <time>2017-09-19T11:45:55Z</time>
      </trkpt>
      <trkpt lat="44.50936" lon="1.96499">
        <ele>317</ele>
        <time>2017-09-19T11:45:58Z</time>
      </trkpt>
      <trkpt lat="44.50941" lon="1.96489">
        <ele>317</ele>
        <time>2017-09-19T11:46:04Z</time>
      </trkpt>
      <trkpt lat="44.50943" lon="1.96482">
        <ele>317</ele>
        <time>2017-09-19T11:46:09Z</time>
      </trkpt>
      <trkpt lat="44.50943" lon="1.96477">
        <ele>317</ele>
        <time>2017-09-19T11:46:12Z</time>
      </trkpt>
      <trkpt lat="44.50943" lon="1.96471">
        <ele>318</ele>
        <time>2017-09-19T11:46:16Z</time>
      </trkpt>
      <trkpt lat="44.50943" lon="1.96465">
        <ele>318</ele>
        <time>2017-09-19T11:46:21Z</time>
      </trkpt>
      <trkpt lat="44.50942" lon="1.96458">
        <ele>318</ele>
        <time>2017-09-19T11:46:27Z</time>
      </trkpt>
      <trkpt lat="44.5094" lon="1.96451">
        <ele>318</ele>
        <time>2017-09-19T11:46:33Z</time>
      </trkpt>
      <trkpt lat="44.50938" lon="1.96446">
        <ele>318</ele>
        <time>2017-09-19T11:46:36Z</time>
      </trkpt>
      <trkpt lat="44.50935" lon="1.96441">
        <ele>317</ele>
        <time>2017-09-19T11:46:41Z</time>
      </trkpt>
      <trkpt lat="44.5093" lon="1.96428">
        <ele>317</ele>
        <time>2017-09-19T11:46:51Z</time>
      </trkpt>
      <trkpt lat="44.50925" lon="1.96409">
        <ele>318</ele>
        <time>2017-09-19T11:47:02Z</time>
      </trkpt>
      <trkpt lat="44.50925" lon="1.96406">
        <ele>318</ele>
        <time>2017-09-19T11:47:04Z</time>
      </trkpt>
      <trkpt lat="44.50919" lon="1.96387">
        <ele>319</ele>
        <time>2017-09-19T11:47:17Z</time>
      </trkpt>
      <trkpt lat="44.50917" lon="1.96378">
        <ele>320</ele>
        <time>2017-09-19T11:47:26Z</time>
      </trkpt>
      <trkpt lat="44.50911" lon="1.96366">
        <ele>318</ele>
        <time>2017-09-19T11:47:31Z</time>
      </trkpt>
      <trkpt lat="44.5091" lon="1.96361">
        <ele>318</ele>
        <time>2017-09-19T11:47:35Z</time>
      </trkpt>
      <trkpt lat="44.50894" lon="1.96319">
        <ele>318</ele>
        <time>2017-09-19T11:48:05Z</time>
      </trkpt>
      <trkpt lat="44.50889" lon="1.96301">
        <ele>318</ele>
        <time>2017-09-19T11:48:17Z</time>
      </trkpt>
      <trkpt lat="44.50887" lon="1.96292">
        <ele>318</ele>
        <time>2017-09-19T11:48:22Z</time>
      </trkpt>
      <trkpt lat="44.5088" lon="1.96268">
        <ele>318</ele>
        <time>2017-09-19T11:48:37Z</time>
      </trkpt>
      <trkpt lat="44.50879" lon="1.96264">
        <ele>318</ele>
        <time>2017-09-19T11:48:40Z</time>
      </trkpt>
      <trkpt lat="44.50878" lon="1.96261">
        <ele>318</ele>
        <time>2017-09-19T11:48:43Z</time>
      </trkpt>
      <trkpt lat="44.50877" lon="1.96257">
        <ele>318</ele>
        <time>2017-09-19T11:48:46Z</time>
      </trkpt>
      <trkpt lat="44.50876" lon="1.96252">
        <ele>318</ele>
        <time>2017-09-19T11:48:50Z</time>
      </trkpt>
      <trkpt lat="44.50874" lon="1.96246">
        <ele>317</ele>
        <time>2017-09-19T11:48:55Z</time>
      </trkpt>
      <trkpt lat="44.50872" lon="1.9624">
        <ele>317</ele>
        <time>2017-09-19T11:48:58Z</time>
      </trkpt>
      <trkpt lat="44.50872" lon="1.96235">
        <ele>317</ele>
        <time>2017-09-19T11:49:02Z</time>
      </trkpt>
      <trkpt lat="44.50871" lon="1.96229">
        <ele>317</ele>
        <time>2017-09-19T11:49:05Z</time>
      </trkpt>
      <trkpt lat="44.5087" lon="1.96223">
        <ele>317</ele>
        <time>2017-09-19T11:49:08Z</time>
      </trkpt>
      <trkpt lat="44.50867" lon="1.96215">
        <ele>317</ele>
        <time>2017-09-19T11:49:14Z</time>
      </trkpt>
      <trkpt lat="44.50866" lon="1.96209">
        <ele>317</ele>
        <time>2017-09-19T11:49:18Z</time>
      </trkpt>
      <trkpt lat="44.50862" lon="1.96198">
        <ele>316</ele>
        <time>2017-09-19T11:49:25Z</time>
      </trkpt>
      <trkpt lat="44.50861" lon="1.96193">
        <ele>316</ele>
        <time>2017-09-19T11:49:28Z</time>
      </trkpt>
      <trkpt lat="44.5086" lon="1.96191">
        <ele>316</ele>
        <time>2017-09-19T11:49:30Z</time>
      </trkpt>
      <trkpt lat="44.50858" lon="1.96185">
        <ele>316</ele>
        <time>2017-09-19T11:49:34Z</time>
      </trkpt>
      <trkpt lat="44.50855" lon="1.96169">
        <ele>316</ele>
        <time>2017-09-19T11:49:43Z</time>
      </trkpt>
      <trkpt lat="44.50854" lon="1.96166">
        <ele>316</ele>
        <time>2017-09-19T11:49:45Z</time>
      </trkpt>
      <trkpt lat="44.50853" lon="1.96162">
        <ele>316</ele>
        <time>2017-09-19T11:49:48Z</time>
      </trkpt>
      <trkpt lat="44.50853" lon="1.96159">
        <ele>316</ele>
        <time>2017-09-19T11:49:50Z</time>
      </trkpt>
      <trkpt lat="44.50852" lon="1.96153">
        <ele>316</ele>
        <time>2017-09-19T11:49:55Z</time>
      </trkpt>
      <trkpt lat="44.50847" lon="1.96138">
        <ele>316</ele>
        <time>2017-09-19T11:50:05Z</time>
      </trkpt>
      <trkpt lat="44.50846" lon="1.96134">
        <ele>317</ele>
        <time>2017-09-19T11:50:08Z</time>
      </trkpt>
      <trkpt lat="44.50845" lon="1.9613">
        <ele>317</ele>
        <time>2017-09-19T11:50:11Z</time>
      </trkpt>
      <trkpt lat="44.50841" lon="1.96119">
        <ele>317</ele>
        <time>2017-09-19T11:50:18Z</time>
      </trkpt>
      <trkpt lat="44.5084" lon="1.96114">
        <ele>317</ele>
        <time>2017-09-19T11:50:21Z</time>
      </trkpt>
      <trkpt lat="44.50839" lon="1.96109">
        <ele>317</ele>
        <time>2017-09-19T11:50:24Z</time>
      </trkpt>
      <trkpt lat="44.50837" lon="1.96103">
        <ele>317</ele>
        <time>2017-09-19T11:50:29Z</time>
      </trkpt>
      <trkpt lat="44.50835" lon="1.96099">
        <ele>317</ele>
        <time>2017-09-19T11:50:32Z</time>
      </trkpt>
      <trkpt lat="44.50833" lon="1.96095">
        <ele>316</ele>
        <time>2017-09-19T11:50:35Z</time>
      </trkpt>
      <trkpt lat="44.50828" lon="1.96079">
        <ele>317</ele>
        <time>2017-09-19T11:50:44Z</time>
      </trkpt>
      <trkpt lat="44.50826" lon="1.96074">
        <ele>317</ele>
        <time>2017-09-19T11:50:47Z</time>
      </trkpt>
      <trkpt lat="44.50824" lon="1.9607">
        <ele>318</ele>
        <time>2017-09-19T11:50:50Z</time>
      </trkpt>
      <trkpt lat="44.50817" lon="1.9605">
        <ele>318</ele>
        <time>2017-09-19T11:51:04Z</time>
      </trkpt>
      <trkpt lat="44.50816" lon="1.96046">
        <ele>318</ele>
        <time>2017-09-19T11:51:07Z</time>
      </trkpt>
      <trkpt lat="44.50814" lon="1.96043">
        <ele>319</ele>
        <time>2017-09-19T11:51:10Z</time>
      </trkpt>
      <trkpt lat="44.50812" lon="1.96038">
        <ele>319</ele>
        <time>2017-09-19T11:51:14Z</time>
      </trkpt>
      <trkpt lat="44.50811" lon="1.96033">
        <ele>319</ele>
        <time>2017-09-19T11:51:17Z</time>
      </trkpt>
      <trkpt lat="44.5081" lon="1.96029">
        <ele>319</ele>
        <time>2017-09-19T11:51:20Z</time>
      </trkpt>
      <trkpt lat="44.50809" lon="1.96024">
        <ele>319</ele>
        <time>2017-09-19T11:51:23Z</time>
      </trkpt>
      <trkpt lat="44.50808" lon="1.96019">
        <ele>320</ele>
        <time>2017-09-19T11:51:26Z</time>
      </trkpt>
      <trkpt lat="44.50808" lon="1.96015">
        <ele>320</ele>
        <time>2017-09-19T11:51:29Z</time>
      </trkpt>
      <trkpt lat="44.50806" lon="1.9601">
        <ele>320</ele>
        <time>2017-09-19T11:51:33Z</time>
      </trkpt>
      <trkpt lat="44.50804" lon="1.96004">
        <ele>320</ele>
        <time>2017-09-19T11:51:38Z</time>
      </trkpt>
      <trkpt lat="44.50802" lon="1.95999">
        <ele>322</ele>
        <time>2017-09-19T11:51:41Z</time>
      </trkpt>
      <trkpt lat="44.50799" lon="1.95995">
        <ele>322</ele>
        <time>2017-09-19T11:51:45Z</time>
      </trkpt>
      <trkpt lat="44.50798" lon="1.95987">
        <ele>322</ele>
        <time>2017-09-19T11:51:50Z</time>
      </trkpt>
      <trkpt lat="44.50795" lon="1.9598">
        <ele>322</ele>
        <time>2017-09-19T11:51:56Z</time>
      </trkpt>
      <trkpt lat="44.50793" lon="1.95976">
        <ele>322</ele>
        <time>2017-09-19T11:51:59Z</time>
      </trkpt>
      <trkpt lat="44.5079" lon="1.95969">
        <ele>322</ele>
        <time>2017-09-19T11:52:03Z</time>
      </trkpt>
      <trkpt lat="44.50789" lon="1.95966">
        <ele>322</ele>
        <time>2017-09-19T11:52:08Z</time>
      </trkpt>
      <trkpt lat="44.50787" lon="1.95961">
        <ele>322</ele>
        <time>2017-09-19T11:52:10Z</time>
      </trkpt>
      <trkpt lat="44.50783" lon="1.95947">
        <ele>322</ele>
        <time>2017-09-19T11:52:18Z</time>
      </trkpt>
      <trkpt lat="44.50781" lon="1.95942">
        <ele>322</ele>
        <time>2017-09-19T11:52:21Z</time>
      </trkpt>
      <trkpt lat="44.50776" lon="1.95929">
        <ele>322</ele>
        <time>2017-09-19T11:52:30Z</time>
      </trkpt>
      <trkpt lat="44.50775" lon="1.95925">
        <ele>322</ele>
        <time>2017-09-19T11:52:32Z</time>
      </trkpt>
      <trkpt lat="44.50773" lon="1.95921">
        <ele>322</ele>
        <time>2017-09-19T11:52:35Z</time>
      </trkpt>
      <trkpt lat="44.50769" lon="1.95909">
        <ele>323</ele>
        <time>2017-09-19T11:52:43Z</time>
      </trkpt>
      <trkpt lat="44.50765" lon="1.95902">
        <ele>323</ele>
        <time>2017-09-19T11:52:49Z</time>
      </trkpt>
      <trkpt lat="44.50755" lon="1.9588">
        <ele>324</ele>
        <time>2017-09-19T11:53:04Z</time>
      </trkpt>
      <trkpt lat="44.50752" lon="1.95876">
        <ele>324</ele>
        <time>2017-09-19T11:53:07Z</time>
      </trkpt>
      <trkpt lat="44.50748" lon="1.95865">
        <ele>321</ele>
        <time>2017-09-19T11:53:15Z</time>
      </trkpt>
      <trkpt lat="44.50746" lon="1.9586">
        <ele>321</ele>
        <time>2017-09-19T11:53:18Z</time>
      </trkpt>
      <trkpt lat="44.50745" lon="1.95856">
        <ele>321</ele>
        <time>2017-09-19T11:53:21Z</time>
      </trkpt>
      <trkpt lat="44.50743" lon="1.95852">
        <ele>321</ele>
        <time>2017-09-19T11:53:24Z</time>
      </trkpt>
      <trkpt lat="44.50732" lon="1.95831">
        <ele>322</ele>
        <time>2017-09-19T11:53:41Z</time>
      </trkpt>
      <trkpt lat="44.5073" lon="1.95823">
        <ele>322</ele>
        <time>2017-09-19T11:53:47Z</time>
      </trkpt>
      <trkpt lat="44.50729" lon="1.95819">
        <ele>321</ele>
        <time>2017-09-19T11:53:51Z</time>
      </trkpt>
      <trkpt lat="44.50726" lon="1.95802">
        <ele>321</ele>
        <time>2017-09-19T11:54:01Z</time>
      </trkpt>
      <trkpt lat="44.50725" lon="1.95797">
        <ele>321</ele>
        <time>2017-09-19T11:54:04Z</time>
      </trkpt>
      <trkpt lat="44.50725" lon="1.95786">
        <ele>321</ele>
        <time>2017-09-19T11:54:13Z</time>
      </trkpt>
      <trkpt lat="44.50725" lon="1.95782">
        <ele>321</ele>
        <time>2017-09-19T11:54:18Z</time>
      </trkpt>
      <trkpt lat="44.50724" lon="1.95776">
        <ele>321</ele>
        <time>2017-09-19T11:54:20Z</time>
      </trkpt>
      <trkpt lat="44.50724" lon="1.95769">
        <ele>321</ele>
        <time>2017-09-19T11:54:25Z</time>
      </trkpt>
      <trkpt lat="44.50726" lon="1.95759">
        <ele>321</ele>
        <time>2017-09-19T11:54:31Z</time>
      </trkpt>
      <trkpt lat="44.50727" lon="1.95754">
        <ele>321</ele>
        <time>2017-09-19T11:54:34Z</time>
      </trkpt>
      <trkpt lat="44.50727" lon="1.9575">
        <ele>320</ele>
        <time>2017-09-19T11:54:37Z</time>
      </trkpt>
      <trkpt lat="44.50728" lon="1.95738">
        <ele>320</ele>
        <time>2017-09-19T11:54:46Z</time>
      </trkpt>
      <trkpt lat="44.50728" lon="1.95724">
        <ele>319</ele>
        <time>2017-09-19T11:54:56Z</time>
      </trkpt>
      <trkpt lat="44.50729" lon="1.95716">
        <ele>319</ele>
        <time>2017-09-19T11:55:00Z</time>
      </trkpt>
      <trkpt lat="44.50728" lon="1.9571">
        <ele>319</ele>
        <time>2017-09-19T11:55:03Z</time>
      </trkpt>
      <trkpt lat="44.50727" lon="1.95707">
        <ele>319</ele>
        <time>2017-09-19T11:55:06Z</time>
      </trkpt>
      <trkpt lat="44.50727" lon="1.95702">
        <ele>319</ele>
        <time>2017-09-19T11:55:09Z</time>
      </trkpt>
      <trkpt lat="44.50726" lon="1.95696">
        <ele>319</ele>
        <time>2017-09-19T11:55:14Z</time>
      </trkpt>
      <trkpt lat="44.50725" lon="1.95692">
        <ele>318</ele>
        <time>2017-09-19T11:55:18Z</time>
      </trkpt>
      <trkpt lat="44.50721" lon="1.95668">
        <ele>318</ele>
        <time>2017-09-19T11:55:32Z</time>
      </trkpt>
      <trkpt lat="44.50721" lon="1.95661">
        <ele>316</ele>
        <time>2017-09-19T11:55:36Z</time>
      </trkpt>
      <trkpt lat="44.50721" lon="1.95656">
        <ele>316</ele>
        <time>2017-09-19T11:55:40Z</time>
      </trkpt>
      <trkpt lat="44.50721" lon="1.95651">
        <ele>316</ele>
        <time>2017-09-19T11:55:45Z</time>
      </trkpt>
      <trkpt lat="44.50721" lon="1.95641">
        <ele>316</ele>
        <time>2017-09-19T11:55:52Z</time>
      </trkpt>
      <trkpt lat="44.50722" lon="1.95635">
        <ele>316</ele>
        <time>2017-09-19T11:55:56Z</time>
      </trkpt>
      <trkpt lat="44.5072" lon="1.95626">
        <ele>316</ele>
        <time>2017-09-19T11:56:02Z</time>
      </trkpt>
      <trkpt lat="44.5072" lon="1.9562">
        <ele>315</ele>
        <time>2017-09-19T11:56:05Z</time>
      </trkpt>
      <trkpt lat="44.5072" lon="1.95615">
        <ele>315</ele>
        <time>2017-09-19T11:56:09Z</time>
      </trkpt>
      <trkpt lat="44.50721" lon="1.95609">
        <ele>315</ele>
        <time>2017-09-19T11:56:14Z</time>
      </trkpt>
      <trkpt lat="44.5072" lon="1.95604">
        <ele>315</ele>
        <time>2017-09-19T11:56:17Z</time>
      </trkpt>
      <trkpt lat="44.5072" lon="1.95563">
        <ele>314</ele>
        <time>2017-09-19T11:56:43Z</time>
      </trkpt>
      <trkpt lat="44.50719" lon="1.95558">
        <ele>314</ele>
        <time>2017-09-19T11:56:45Z</time>
      </trkpt>
      <trkpt lat="44.50719" lon="1.95552">
        <ele>314</ele>
        <time>2017-09-19T11:56:49Z</time>
      </trkpt>
      <trkpt lat="44.50719" lon="1.95548">
        <ele>314</ele>
        <time>2017-09-19T11:56:52Z</time>
      </trkpt>
      <trkpt lat="44.5072" lon="1.95543">
        <ele>314</ele>
        <time>2017-09-19T11:56:55Z</time>
      </trkpt>
      <trkpt lat="44.5072" lon="1.95538">
        <ele>313</ele>
        <time>2017-09-19T11:56:58Z</time>
      </trkpt>
      <trkpt lat="44.50721" lon="1.95534">
        <ele>313</ele>
        <time>2017-09-19T11:57:00Z</time>
      </trkpt>
      <trkpt lat="44.50722" lon="1.95521">
        <ele>313</ele>
        <time>2017-09-19T11:57:08Z</time>
      </trkpt>
      <trkpt lat="44.50725" lon="1.95509">
        <ele>313</ele>
        <time>2017-09-19T11:57:16Z</time>
      </trkpt>
      <trkpt lat="44.50726" lon="1.95506">
        <ele>313</ele>
        <time>2017-09-19T11:57:18Z</time>
      </trkpt>
      <trkpt lat="44.50727" lon="1.95502">
        <ele>313</ele>
        <time>2017-09-19T11:57:21Z</time>
      </trkpt>
      <trkpt lat="44.50733" lon="1.95477">
        <ele>312</ele>
        <time>2017-09-19T11:57:38Z</time>
      </trkpt>
      <trkpt lat="44.50735" lon="1.95472">
        <ele>312</ele>
        <time>2017-09-19T11:57:41Z</time>
      </trkpt>
      <trkpt lat="44.50744" lon="1.9542">
        <ele>311</ele>
        <time>2017-09-19T11:58:13Z</time>
      </trkpt>
      <trkpt lat="44.50746" lon="1.95416">
        <ele>310</ele>
        <time>2017-09-19T11:58:15Z</time>
      </trkpt>
      <trkpt lat="44.50749" lon="1.95407">
        <ele>310</ele>
        <time>2017-09-19T11:58:21Z</time>
      </trkpt>
      <trkpt lat="44.5075" lon="1.95403">
        <ele>310</ele>
        <time>2017-09-19T11:58:24Z</time>
      </trkpt>
      <trkpt lat="44.50753" lon="1.95399">
        <ele>310</ele>
        <time>2017-09-19T11:58:28Z</time>
      </trkpt>
      <trkpt lat="44.50757" lon="1.95389">
        <ele>310</ele>
        <time>2017-09-19T11:58:37Z</time>
      </trkpt>
      <trkpt lat="44.50768" lon="1.95364">
        <ele>310</ele>
        <time>2017-09-19T11:58:57Z</time>
      </trkpt>
      <trkpt lat="44.50779" lon="1.95346">
        <ele>310</ele>
        <time>2017-09-19T11:59:11Z</time>
      </trkpt>
      <trkpt lat="44.50781" lon="1.95341">
        <ele>310</ele>
        <time>2017-09-19T11:59:15Z</time>
      </trkpt>
      <trkpt lat="44.50784" lon="1.95336">
        <ele>310</ele>
        <time>2017-09-19T11:59:19Z</time>
      </trkpt>
      <trkpt lat="44.50787" lon="1.95327">
        <ele>309</ele>
        <time>2017-09-19T11:59:27Z</time>
      </trkpt>
      <trkpt lat="44.50788" lon="1.95322">
        <ele>309</ele>
        <time>2017-09-19T11:59:30Z</time>
      </trkpt>
      <trkpt lat="44.50789" lon="1.95317">
        <ele>309</ele>
        <time>2017-09-19T11:59:33Z</time>
      </trkpt>
      <trkpt lat="44.5079" lon="1.9531">
        <ele>309</ele>
        <time>2017-09-19T11:59:38Z</time>
      </trkpt>
      <trkpt lat="44.5079" lon="1.95305">
        <ele>309</ele>
        <time>2017-09-19T11:59:41Z</time>
      </trkpt>
      <trkpt lat="44.50791" lon="1.953">
        <ele>309</ele>
        <time>2017-09-19T11:59:44Z</time>
      </trkpt>
      <trkpt lat="44.50792" lon="1.95294">
        <ele>309</ele>
        <time>2017-09-19T11:59:47Z</time>
      </trkpt>
      <trkpt lat="44.50794" lon="1.95282">
        <ele>309</ele>
        <time>2017-09-19T11:59:53Z</time>
      </trkpt>
      <trkpt lat="44.50795" lon="1.95276">
        <ele>309</ele>
        <time>2017-09-19T11:59:56Z</time>
      </trkpt>
      <trkpt lat="44.50803" lon="1.95252">
        <ele>309</ele>
        <time>2017-09-19T12:00:11Z</time>
      </trkpt>
      <trkpt lat="44.50804" lon="1.95243">
        <ele>308</ele>
        <time>2017-09-19T12:00:17Z</time>
      </trkpt>
      <trkpt lat="44.50807" lon="1.95235">
        <ele>308</ele>
        <time>2017-09-19T12:00:23Z</time>
      </trkpt>
      <trkpt lat="44.50811" lon="1.95219">
        <ele>308</ele>
        <time>2017-09-19T12:00:33Z</time>
      </trkpt>
      <trkpt lat="44.50815" lon="1.95204">
        <ele>308</ele>
        <time>2017-09-19T12:00:42Z</time>
      </trkpt>
      <trkpt lat="44.50816" lon="1.95199">
        <ele>308</ele>
        <time>2017-09-19T12:00:45Z</time>
      </trkpt>
      <trkpt lat="44.50818" lon="1.95195">
        <ele>308</ele>
        <time>2017-09-19T12:00:49Z</time>
      </trkpt>
      <trkpt lat="44.50827" lon="1.95174">
        <ele>308</ele>
        <time>2017-09-19T12:01:01Z</time>
      </trkpt>
      <trkpt lat="44.50828" lon="1.95169">
        <ele>308</ele>
        <time>2017-09-19T12:01:04Z</time>
      </trkpt>
      <trkpt lat="44.50831" lon="1.95164">
        <ele>308</ele>
        <time>2017-09-19T12:01:08Z</time>
      </trkpt>
      <trkpt lat="44.50833" lon="1.95159">
        <ele>308</ele>
        <time>2017-09-19T12:01:11Z</time>
      </trkpt>
      <trkpt lat="44.50834" lon="1.95153">
        <ele>309</ele>
        <time>2017-09-19T12:01:15Z</time>
      </trkpt>
      <trkpt lat="44.50835" lon="1.95147">
        <ele>309</ele>
        <time>2017-09-19T12:01:19Z</time>
      </trkpt>
      <trkpt lat="44.50848" lon="1.95125">
        <ele>309</ele>
        <time>2017-09-19T12:01:34Z</time>
      </trkpt>
      <trkpt lat="44.5085" lon="1.95121">
        <ele>309</ele>
        <time>2017-09-19T12:01:37Z</time>
      </trkpt>
      <trkpt lat="44.50852" lon="1.95115">
        <ele>309</ele>
        <time>2017-09-19T12:01:41Z</time>
      </trkpt>
      <trkpt lat="44.50854" lon="1.95111">
        <ele>309</ele>
        <time>2017-09-19T12:01:43Z</time>
      </trkpt>
      <trkpt lat="44.50856" lon="1.95109">
        <ele>309</ele>
        <time>2017-09-19T12:01:56Z</time>
      </trkpt>
      <trkpt lat="44.50857" lon="1.95103">
        <ele>309</ele>
        <time>2017-09-19T12:02:02Z</time>
      </trkpt>
      <trkpt lat="44.50859" lon="1.95098">
        <ele>309</ele>
        <time>2017-09-19T12:02:05Z</time>
      </trkpt>
      <trkpt lat="44.50863" lon="1.95092">
        <ele>309</ele>
        <time>2017-09-19T12:02:11Z</time>
      </trkpt>
      <trkpt lat="44.50868" lon="1.95085">
        <ele>309</ele>
        <time>2017-09-19T12:02:17Z</time>
      </trkpt>
      <trkpt lat="44.50881" lon="1.95069">
        <ele>307</ele>
        <time>2017-09-19T12:02:33Z</time>
      </trkpt>
      <trkpt lat="44.50884" lon="1.95061">
        <ele>307</ele>
        <time>2017-09-19T12:02:38Z</time>
      </trkpt>
      <trkpt lat="44.50886" lon="1.95057">
        <ele>307</ele>
        <time>2017-09-19T12:02:40Z</time>
      </trkpt>
      <trkpt lat="44.50886" lon="1.95053">
        <ele>307</ele>
        <time>2017-09-19T12:02:42Z</time>
      </trkpt>
      <trkpt lat="44.50889" lon="1.95049">
        <ele>307</ele>
        <time>2017-09-19T12:02:46Z</time>
      </trkpt>
      <trkpt lat="44.50892" lon="1.95045">
        <ele>307</ele>
        <time>2017-09-19T12:02:49Z</time>
      </trkpt>
      <trkpt lat="44.50894" lon="1.95041">
        <ele>307</ele>
        <time>2017-09-19T12:02:52Z</time>
      </trkpt>
      <trkpt lat="44.50907" lon="1.95018">
        <ele>306</ele>
        <time>2017-09-19T12:03:10Z</time>
      </trkpt>
      <trkpt lat="44.50909" lon="1.95014">
        <ele>305</ele>
        <time>2017-09-19T12:03:13Z</time>
      </trkpt>
      <trkpt lat="44.50911" lon="1.95009">
        <ele>305</ele>
        <time>2017-09-19T12:03:16Z</time>
      </trkpt>
      <trkpt lat="44.50913" lon="1.95005">
        <ele>305</ele>
        <time>2017-09-19T12:03:19Z</time>
      </trkpt>
      <trkpt lat="44.50915" lon="1.95001">
        <ele>304</ele>
        <time>2017-09-19T12:03:23Z</time>
      </trkpt>
      <trkpt lat="44.50919" lon="1.9499">
        <ele>303</ele>
        <time>2017-09-19T12:03:33Z</time>
      </trkpt>
      <trkpt lat="44.5092" lon="1.94987">
        <ele>303</ele>
        <time>2017-09-19T12:03:36Z</time>
      </trkpt>
      <trkpt lat="44.50921" lon="1.94983">
        <ele>303</ele>
        <time>2017-09-19T12:03:39Z</time>
      </trkpt>
      <trkpt lat="44.50924" lon="1.94975">
        <ele>303</ele>
        <time>2017-09-19T12:03:44Z</time>
      </trkpt>
      <trkpt lat="44.50925" lon="1.94971">
        <ele>303</ele>
        <time>2017-09-19T12:03:47Z</time>
      </trkpt>
      <trkpt lat="44.50925" lon="1.94967">
        <ele>302</ele>
        <time>2017-09-19T12:03:50Z</time>
      </trkpt>
      <trkpt lat="44.50926" lon="1.94962">
        <ele>302</ele>
        <time>2017-09-19T12:03:53Z</time>
      </trkpt>
      <trkpt lat="44.50927" lon="1.94954">
        <ele>302</ele>
        <time>2017-09-19T12:03:58Z</time>
      </trkpt>
      <trkpt lat="44.50928" lon="1.94949">
        <ele>302</ele>
        <time>2017-09-19T12:04:02Z</time>
      </trkpt>
      <trkpt lat="44.50928" lon="1.94945">
        <ele>301</ele>
        <time>2017-09-19T12:04:05Z</time>
      </trkpt>
      <trkpt lat="44.50929" lon="1.94941">
        <ele>301</ele>
        <time>2017-09-19T12:04:08Z</time>
      </trkpt>
      <trkpt lat="44.5093" lon="1.94937">
        <ele>301</ele>
        <time>2017-09-19T12:04:11Z</time>
      </trkpt>
      <trkpt lat="44.50931" lon="1.94929">
        <ele>301</ele>
        <time>2017-09-19T12:04:16Z</time>
      </trkpt>
      <trkpt lat="44.50932" lon="1.94923">
        <ele>301</ele>
        <time>2017-09-19T12:04:19Z</time>
      </trkpt>
      <trkpt lat="44.50933" lon="1.94916">
        <ele>297</ele>
        <time>2017-09-19T12:04:23Z</time>
      </trkpt>
      <trkpt lat="44.50934" lon="1.94913">
        <ele>297</ele>
        <time>2017-09-19T12:04:25Z</time>
      </trkpt>
      <trkpt lat="44.50937" lon="1.94901">
        <ele>296</ele>
        <time>2017-09-19T12:04:34Z</time>
      </trkpt>
      <trkpt lat="44.50939" lon="1.94897">
        <ele>296</ele>
        <time>2017-09-19T12:04:37Z</time>
      </trkpt>
      <trkpt lat="44.50945" lon="1.94883">
        <ele>295</ele>
        <time>2017-09-19T12:04:49Z</time>
      </trkpt>
      <trkpt lat="44.5095" lon="1.9487">
        <ele>294</ele>
        <time>2017-09-19T12:04:58Z</time>
      </trkpt>
      <trkpt lat="44.50956" lon="1.94852">
        <ele>293</ele>
        <time>2017-09-19T12:05:09Z</time>
      </trkpt>
      <trkpt lat="44.50965" lon="1.94811">
        <ele>282</ele>
        <time>2017-09-19T12:05:32Z</time>
      </trkpt>
      <trkpt lat="44.50965" lon="1.94807">
        <ele>281</ele>
        <time>2017-09-19T12:05:34Z</time>
      </trkpt>
      <trkpt lat="44.50965" lon="1.94802">
        <ele>281</ele>
        <time>2017-09-19T12:05:37Z</time>
      </trkpt>
      <trkpt lat="44.50965" lon="1.94794">
        <ele>280</ele>
        <time>2017-09-19T12:05:42Z</time>
      </trkpt>
      <trkpt lat="44.50963" lon="1.94787">
        <ele>279</ele>
        <time>2017-09-19T12:05:45Z</time>
      </trkpt>
      <trkpt lat="44.50959" lon="1.94776">
        <ele>279</ele>
        <time>2017-09-19T12:05:51Z</time>
      </trkpt>
      <trkpt lat="44.50958" lon="1.94773">
        <ele>279</ele>
        <time>2017-09-19T12:05:53Z</time>
      </trkpt>
      <trkpt lat="44.50945" lon="1.94758">
        <ele>279</ele>
        <time>2017-09-19T12:06:05Z</time>
      </trkpt>
      <trkpt lat="44.50936" lon="1.94751">
        <ele>280</ele>
        <time>2017-09-19T12:06:14Z</time>
      </trkpt>
      <trkpt lat="44.50934" lon="1.9475">
        <ele>269</ele>
        <time>2017-09-19T12:06:17Z</time>
      </trkpt>
      <trkpt lat="44.50927" lon="1.94746">
        <ele>272</ele>
        <time>2017-09-19T12:06:23Z</time>
      </trkpt>
      <trkpt lat="44.50924" lon="1.94745">
        <ele>273</ele>
        <time>2017-09-19T12:06:25Z</time>
      </trkpt>
      <trkpt lat="44.50922" lon="1.94742">
        <ele>273</ele>
        <time>2017-09-19T12:06:28Z</time>
      </trkpt>
      <trkpt lat="44.50919" lon="1.9474">
        <ele>272</ele>
        <time>2017-09-19T12:06:31Z</time>
      </trkpt>
      <trkpt lat="44.50916" lon="1.94737">
        <ele>275</ele>
        <time>2017-09-19T12:06:35Z</time>
      </trkpt>
      <trkpt lat="44.5091" lon="1.94734">
        <ele>274</ele>
        <time>2017-09-19T12:06:42Z</time>
      </trkpt>
      <trkpt lat="44.50904" lon="1.94731">
        <ele>272</ele>
        <time>2017-09-19T12:06:47Z</time>
      </trkpt>
      <trkpt lat="44.50899" lon="1.94727">
        <ele>271</ele>
        <time>2017-09-19T12:06:51Z</time>
      </trkpt>
      <trkpt lat="44.50872" lon="1.94712">
        <ele>269</ele>
        <time>2017-09-19T12:07:15Z</time>
      </trkpt>
      <trkpt lat="44.50869" lon="1.9471">
        <ele>268</ele>
        <time>2017-09-19T12:07:18Z</time>
      </trkpt>
      <trkpt lat="44.50853" lon="1.94699">
        <ele>267</ele>
        <time>2017-09-19T12:07:33Z</time>
      </trkpt>
      <trkpt lat="44.5085" lon="1.94697">
        <ele>266</ele>
        <time>2017-09-19T12:07:36Z</time>
      </trkpt>
      <trkpt lat="44.50839" lon="1.94695">
        <ele>266</ele>
        <time>2017-09-19T12:07:46Z</time>
      </trkpt>
      <trkpt lat="44.50837" lon="1.94694">
        <ele>266</ele>
        <time>2017-09-19T12:07:49Z</time>
      </trkpt>
      <trkpt lat="44.50834" lon="1.94693">
        <ele>265</ele>
        <time>2017-09-19T12:07:51Z</time>
      </trkpt>
      <trkpt lat="44.50833" lon="1.94691">
        <ele>267</ele>
        <time>2017-09-19T12:07:53Z</time>
      </trkpt>
      <trkpt lat="44.50834" lon="1.94688">
        <ele>264</ele>
        <time>2017-09-19T12:07:55Z</time>
      </trkpt>
      <trkpt lat="44.50835" lon="1.94686">
        <ele>264</ele>
        <time>2017-09-19T12:07:57Z</time>
      </trkpt>
      <trkpt lat="44.50868" lon="1.94684">
        <ele>264</ele>
        <time>2017-09-19T12:08:27Z</time>
      </trkpt>
      <trkpt lat="44.50877" lon="1.94685">
        <ele>264</ele>
        <time>2017-09-19T12:08:34Z</time>
      </trkpt>
      <trkpt lat="44.50888" lon="1.94694">
        <ele>264</ele>
        <time>2017-09-19T12:08:44Z</time>
      </trkpt>
      <trkpt lat="44.50891" lon="1.94695">
        <ele>264</ele>
        <time>2017-09-19T12:08:47Z</time>
      </trkpt>
      <trkpt lat="44.50894" lon="1.94693">
        <ele>263</ele>
        <time>2017-09-19T12:08:50Z</time>
      </trkpt>
      <trkpt lat="44.50893" lon="1.9469">
        <ele>262</ele>
        <time>2017-09-19T12:08:52Z</time>
      </trkpt>
      <trkpt lat="44.50891" lon="1.94688">
        <ele>262</ele>
        <time>2017-09-19T12:08:54Z</time>
      </trkpt>
      <trkpt lat="44.50884" lon="1.94683">
        <ele>262</ele>
        <time>2017-09-19T12:09:01Z</time>
      </trkpt>
      <trkpt lat="44.50882" lon="1.94681">
        <ele>262</ele>
        <time>2017-09-19T12:09:04Z</time>
      </trkpt>
      <trkpt lat="44.5088" lon="1.94679">
        <ele>262</ele>
        <time>2017-09-19T12:09:06Z</time>
      </trkpt>
      <trkpt lat="44.50865" lon="1.94669">
        <ele>263</ele>
        <time>2017-09-19T12:09:21Z</time>
      </trkpt>
      <trkpt lat="44.50862" lon="1.94667">
        <ele>262</ele>
        <time>2017-09-19T12:09:24Z</time>
      </trkpt>
      <trkpt lat="44.50859" lon="1.94665">
        <ele>244</ele>
        <time>2017-09-19T12:09:27Z</time>
      </trkpt>
      <trkpt lat="44.50853" lon="1.94662">
        <ele>246</ele>
        <time>2017-09-19T12:09:33Z</time>
      </trkpt>
      <trkpt lat="44.50847" lon="1.9466">
        <ele>248</ele>
        <time>2017-09-19T12:09:40Z</time>
      </trkpt>
      <trkpt lat="44.50844" lon="1.94658">
        <ele>248</ele>
        <time>2017-09-19T12:09:43Z</time>
      </trkpt>
      <trkpt lat="44.50841" lon="1.94656">
        <ele>249</ele>
        <time>2017-09-19T12:09:46Z</time>
      </trkpt>
      <trkpt lat="44.50838" lon="1.94655">
        <ele>249</ele>
        <time>2017-09-19T12:09:49Z</time>
      </trkpt>
      <trkpt lat="44.50835" lon="1.94654">
        <ele>249</ele>
        <time>2017-09-19T12:09:52Z</time>
      </trkpt>
      <trkpt lat="44.50831" lon="1.94653">
        <ele>251</ele>
        <time>2017-09-19T12:09:55Z</time>
      </trkpt>
      <trkpt lat="44.50825" lon="1.94651">
        <ele>250</ele>
        <time>2017-09-19T12:10:00Z</time>
      </trkpt>
      <trkpt lat="44.50821" lon="1.94651">
        <ele>249</ele>
        <time>2017-09-19T12:10:04Z</time>
      </trkpt>
      <trkpt lat="44.50812" lon="1.94648">
        <ele>247</ele>
        <time>2017-09-19T12:10:13Z</time>
      </trkpt>
      <trkpt lat="44.50805" lon="1.94647">
        <ele>246</ele>
        <time>2017-09-19T12:10:19Z</time>
      </trkpt>
      <trkpt lat="44.50802" lon="1.94646">
        <ele>246</ele>
        <time>2017-09-19T12:10:21Z</time>
      </trkpt>
      <trkpt lat="44.5078" lon="1.9464">
        <ele>245</ele>
        <time>2017-09-19T12:10:40Z</time>
      </trkpt>
      <trkpt lat="44.50777" lon="1.9464">
        <ele>245</ele>
        <time>2017-09-19T12:10:43Z</time>
      </trkpt>
      <trkpt lat="44.50774" lon="1.94639">
        <ele>245</ele>
        <time>2017-09-19T12:10:46Z</time>
      </trkpt>
      <trkpt lat="44.5077" lon="1.94638">
        <ele>245</ele>
        <time>2017-09-19T12:10:49Z</time>
      </trkpt>
      <trkpt lat="44.50767" lon="1.94637">
        <ele>245</ele>
        <time>2017-09-19T12:10:52Z</time>
      </trkpt>
      <trkpt lat="44.50764" lon="1.94637">
        <ele>245</ele>
        <time>2017-09-19T12:10:55Z</time>
      </trkpt>
      <trkpt lat="44.50755" lon="1.94635">
        <ele>244</ele>
        <time>2017-09-19T12:11:03Z</time>
      </trkpt>
      <trkpt lat="44.50752" lon="1.94633">
        <ele>244</ele>
        <time>2017-09-19T12:11:06Z</time>
      </trkpt>
      <trkpt lat="44.50746" lon="1.94632">
        <ele>242</ele>
        <time>2017-09-19T12:11:11Z</time>
      </trkpt>
      <trkpt lat="44.50743" lon="1.94632">
        <ele>242</ele>
        <time>2017-09-19T12:11:13Z</time>
      </trkpt>
      <trkpt lat="44.50728" lon="1.9463">
        <ele>241</ele>
        <time>2017-09-19T12:11:27Z</time>
      </trkpt>
      <trkpt lat="44.50725" lon="1.9463">
        <ele>241</ele>
        <time>2017-09-19T12:11:30Z</time>
      </trkpt>
      <trkpt lat="44.50715" lon="1.94628">
        <ele>241</ele>
        <time>2017-09-19T12:11:38Z</time>
      </trkpt>
      <trkpt lat="44.50712" lon="1.94627">
        <ele>240</ele>
        <time>2017-09-19T12:11:42Z</time>
      </trkpt>
      <trkpt lat="44.50702" lon="1.94626">
        <ele>240</ele>
        <time>2017-09-19T12:11:51Z</time>
      </trkpt>
      <trkpt lat="44.50698" lon="1.94627">
        <ele>240</ele>
        <time>2017-09-19T12:11:55Z</time>
      </trkpt>
      <trkpt lat="44.50694" lon="1.94625">
        <ele>240</ele>
        <time>2017-09-19T12:11:59Z</time>
      </trkpt>
      <trkpt lat="44.50691" lon="1.94626">
        <ele>240</ele>
        <time>2017-09-19T12:12:02Z</time>
      </trkpt>
      <trkpt lat="44.50688" lon="1.94626">
        <ele>240</ele>
        <time>2017-09-19T12:12:05Z</time>
      </trkpt>
      <trkpt lat="44.50685" lon="1.94626">
        <ele>240</ele>
        <time>2017-09-19T12:12:08Z</time>
      </trkpt>
      <trkpt lat="44.50682" lon="1.94625">
        <ele>239</ele>
        <time>2017-09-19T12:12:10Z</time>
      </trkpt>
      <trkpt lat="44.50672" lon="1.94624">
        <ele>239</ele>
        <time>2017-09-19T12:12:18Z</time>
      </trkpt>
      <trkpt lat="44.50657" lon="1.94624">
        <ele>238</ele>
        <time>2017-09-19T12:12:30Z</time>
      </trkpt>
      <trkpt lat="44.50654" lon="1.94624">
        <ele>238</ele>
        <time>2017-09-19T12:12:34Z</time>
      </trkpt>
      <trkpt lat="44.50631" lon="1.9462">
        <ele>237</ele>
        <time>2017-09-19T12:12:54Z</time>
      </trkpt>
      <trkpt lat="44.50627" lon="1.9462">
        <ele>237</ele>
        <time>2017-09-19T12:12:57Z</time>
      </trkpt>
      <trkpt lat="44.50625" lon="1.94619">
        <ele>237</ele>
        <time>2017-09-19T12:12:59Z</time>
      </trkpt>
      <trkpt lat="44.50622" lon="1.94618">
        <ele>237</ele>
        <time>2017-09-19T12:13:01Z</time>
      </trkpt>
      <trkpt lat="44.50617" lon="1.94618">
        <ele>237</ele>
        <time>2017-09-19T12:13:05Z</time>
      </trkpt>
      <trkpt lat="44.50612" lon="1.94617">
        <ele>236</ele>
        <time>2017-09-19T12:13:09Z</time>
      </trkpt>
      <trkpt lat="44.50607" lon="1.94617">
        <ele>236</ele>
        <time>2017-09-19T12:13:13Z</time>
      </trkpt>
      <trkpt lat="44.50601" lon="1.94615">
        <ele>235</ele>
        <time>2017-09-19T12:13:18Z</time>
      </trkpt>
      <trkpt lat="44.50599" lon="1.94615">
        <ele>235</ele>
        <time>2017-09-19T12:13:20Z</time>
      </trkpt>
      <trkpt lat="44.50596" lon="1.94614">
        <ele>235</ele>
        <time>2017-09-19T12:13:23Z</time>
      </trkpt>
      <trkpt lat="44.50582" lon="1.94612">
        <ele>233</ele>
        <time>2017-09-19T12:13:35Z</time>
      </trkpt>
      <trkpt lat="44.50574" lon="1.94614">
        <ele>234</ele>
        <time>2017-09-19T12:13:45Z</time>
      </trkpt>
      <trkpt lat="44.50571" lon="1.94614">
        <ele>234</ele>
        <time>2017-09-19T12:13:48Z</time>
      </trkpt>
      <trkpt lat="44.50567" lon="1.94614">
        <ele>234</ele>
        <time>2017-09-19T12:13:51Z</time>
      </trkpt>
      <trkpt lat="44.50566" lon="1.94611">
        <ele>233</ele>
        <time>2017-09-19T12:13:53Z</time>
      </trkpt>
      <trkpt lat="44.50566" lon="1.94609">
        <ele>232</ele>
        <time>2017-09-19T12:13:55Z</time>
      </trkpt>
      <trkpt lat="44.50568" lon="1.94606">
        <ele>231</ele>
        <time>2017-09-19T12:13:57Z</time>
      </trkpt>
      <trkpt lat="44.50585" lon="1.94598">
        <ele>228</ele>
        <time>2017-09-19T12:14:13Z</time>
      </trkpt>
      <trkpt lat="44.50595" lon="1.94598">
        <ele>229</ele>
        <time>2017-09-19T12:14:22Z</time>
      </trkpt>
      <trkpt lat="44.50601" lon="1.94597">
        <ele>230</ele>
        <time>2017-09-19T12:14:27Z</time>
      </trkpt>
      <trkpt lat="44.50606" lon="1.94596">
        <ele>231</ele>
        <time>2017-09-19T12:14:32Z</time>
      </trkpt>
      <trkpt lat="44.50609" lon="1.94594">
        <ele>231</ele>
        <time>2017-09-19T12:14:34Z</time>
      </trkpt>
      <trkpt lat="44.50636" lon="1.94586">
        <ele>231</ele>
        <time>2017-09-19T12:14:57Z</time>
      </trkpt>
      <trkpt lat="44.50642" lon="1.94585">
        <ele>231</ele>
        <time>2017-09-19T12:15:03Z</time>
      </trkpt>
      <trkpt lat="44.50645" lon="1.94583">
        <ele>230</ele>
        <time>2017-09-19T12:15:06Z</time>
      </trkpt>
      <trkpt lat="44.50663" lon="1.94577">
        <ele>218</ele>
        <time>2017-09-19T12:15:20Z</time>
      </trkpt>
      <trkpt lat="44.50665" lon="1.94576">
        <ele>218</ele>
        <time>2017-09-19T12:15:22Z</time>
      </trkpt>
      <trkpt lat="44.50668" lon="1.94574">
        <ele>218</ele>
        <time>2017-09-19T12:15:25Z</time>
      </trkpt>
      <trkpt lat="44.50671" lon="1.94572">
        <ele>218</ele>
        <time>2017-09-19T12:15:28Z</time>
      </trkpt>
      <trkpt lat="44.50674" lon="1.9457">
        <ele>217</ele>
        <time>2017-09-19T12:15:31Z</time>
      </trkpt>
      <trkpt lat="44.50694" lon="1.9456">
        <ele>214</ele>
        <time>2017-09-19T12:15:53Z</time>
      </trkpt>
      <trkpt lat="44.507" lon="1.94558">
        <ele>214</ele>
        <time>2017-09-19T12:15:59Z</time>
      </trkpt>
      <trkpt lat="44.50704" lon="1.94555">
        <ele>213</ele>
        <time>2017-09-19T12:16:02Z</time>
      </trkpt>
      <trkpt lat="44.50709" lon="1.94551">
        <ele>213</ele>
        <time>2017-09-19T12:16:09Z</time>
      </trkpt>
      <trkpt lat="44.50734" lon="1.94539">
        <ele>212</ele>
        <time>2017-09-19T12:16:34Z</time>
      </trkpt>
      <trkpt lat="44.50747" lon="1.94532">
        <ele>210</ele>
        <time>2017-09-19T12:16:47Z</time>
      </trkpt>
      <trkpt lat="44.5076" lon="1.94528">
        <ele>211</ele>
        <time>2017-09-19T12:16:59Z</time>
      </trkpt>
      <trkpt lat="44.50768" lon="1.94523">
        <ele>211</ele>
        <time>2017-09-19T12:17:08Z</time>
      </trkpt>
      <trkpt lat="44.50786" lon="1.94517">
        <ele>210</ele>
        <time>2017-09-19T12:17:23Z</time>
      </trkpt>
      <trkpt lat="44.50788" lon="1.94515">
        <ele>210</ele>
        <time>2017-09-19T12:17:27Z</time>
      </trkpt>
      <trkpt lat="44.50792" lon="1.94514">
        <ele>210</ele>
        <time>2017-09-19T12:17:30Z</time>
      </trkpt>
      <trkpt lat="44.50798" lon="1.9451">
        <ele>210</ele>
        <time>2017-09-19T12:17:38Z</time>
      </trkpt>
      <trkpt lat="44.50811" lon="1.94507">
        <ele>208</ele>
        <time>2017-09-19T12:17:51Z</time>
      </trkpt>
      <trkpt lat="44.50814" lon="1.94504">
        <ele>207</ele>
        <time>2017-09-19T12:17:54Z</time>
      </trkpt>
      <trkpt lat="44.50818" lon="1.94503">
        <ele>206</ele>
        <time>2017-09-19T12:17:57Z</time>
      </trkpt>
      <trkpt lat="44.5083" lon="1.94505">
        <ele>203</ele>
        <time>2017-09-19T12:18:06Z</time>
      </trkpt>
      <trkpt lat="44.50835" lon="1.94507">
        <ele>202</ele>
        <time>2017-09-19T12:18:11Z</time>
      </trkpt>
      <trkpt lat="44.50852" lon="1.94514">
        <ele>204</ele>
        <time>2017-09-19T12:18:29Z</time>
      </trkpt>
      <trkpt lat="44.50856" lon="1.94516">
        <ele>205</ele>
        <time>2017-09-19T12:18:35Z</time>
      </trkpt>
      <trkpt lat="44.50858" lon="1.94519">
        <ele>205</ele>
        <time>2017-09-19T12:18:40Z</time>
      </trkpt>
      <trkpt lat="44.5086" lon="1.9452">
        <ele>205</ele>
        <time>2017-09-19T12:19:49Z</time>
      </trkpt>
      <trkpt lat="44.50863" lon="1.94518">
        <ele>205</ele>
        <time>2017-09-19T12:19:52Z</time>
      </trkpt>
      <trkpt lat="44.50866" lon="1.94514">
        <ele>204</ele>
        <time>2017-09-19T12:20:10Z</time>
      </trkpt>
      <trkpt lat="44.50869" lon="1.94514">
        <ele>204</ele>
        <time>2017-09-19T12:21:00Z</time>
      </trkpt>
      <trkpt lat="44.50873" lon="1.94512">
        <ele>204</ele>
        <time>2017-09-19T12:21:48Z</time>
      </trkpt>
      <trkpt lat="44.50876" lon="1.94513">
        <ele>204</ele>
        <time>2017-09-19T12:21:51Z</time>
      </trkpt>
      <trkpt lat="44.50881" lon="1.94514">
        <ele>203</ele>
        <time>2017-09-19T12:21:57Z</time>
      </trkpt>
      <trkpt lat="44.50886" lon="1.94515">
        <ele>203</ele>
        <time>2017-09-19T12:22:02Z</time>
      </trkpt>
      <trkpt lat="44.5089" lon="1.94515">
        <ele>202</ele>
        <time>2017-09-19T12:22:11Z</time>
      </trkpt>
      <trkpt lat="44.50893" lon="1.94517">
        <ele>202</ele>
        <time>2017-09-19T12:22:21Z</time>
      </trkpt>
      <trkpt lat="44.50897" lon="1.94519">
        <ele>202</ele>
        <time>2017-09-19T12:22:23Z</time>
      </trkpt>
      <trkpt lat="44.50914" lon="1.94513">
        <ele>198</ele>
        <time>2017-09-19T12:22:41Z</time>
      </trkpt>
      <trkpt lat="44.50921" lon="1.94507">
        <ele>193</ele>
        <time>2017-09-19T12:22:48Z</time>
      </trkpt>
      <trkpt lat="44.50924" lon="1.94503">
        <ele>193</ele>
        <time>2017-09-19T12:22:52Z</time>
      </trkpt>
      <trkpt lat="44.50926" lon="1.945">
        <ele>189</ele>
        <time>2017-09-19T12:22:55Z</time>
      </trkpt>
      <trkpt lat="44.50932" lon="1.94494">
        <ele>188</ele>
        <time>2017-09-19T12:23:04Z</time>
      </trkpt>
      <trkpt lat="44.50934" lon="1.94492">
        <ele>188</ele>
        <time>2017-09-19T12:23:07Z</time>
      </trkpt>
      <trkpt lat="44.50938" lon="1.94486">
        <ele>187</ele>
        <time>2017-09-19T12:23:12Z</time>
      </trkpt>
      <trkpt lat="44.50945" lon="1.9448">
        <ele>186</ele>
        <time>2017-09-19T12:23:18Z</time>
      </trkpt>
      <trkpt lat="44.50954" lon="1.94473">
        <ele>185</ele>
        <time>2017-09-19T12:23:31Z</time>
      </trkpt>
      <trkpt lat="44.50955" lon="1.94471">
        <ele>185</ele>
        <time>2017-09-19T12:23:34Z</time>
      </trkpt>
      <trkpt lat="44.50957" lon="1.94469">
        <ele>185</ele>
        <time>2017-09-19T12:23:37Z</time>
      </trkpt>
      <trkpt lat="44.50962" lon="1.94468">
        <ele>184</ele>
        <time>2017-09-19T12:23:42Z</time>
      </trkpt>
      <trkpt lat="44.50968" lon="1.94466">
        <ele>184</ele>
        <time>2017-09-19T12:23:49Z</time>
      </trkpt>
      <trkpt lat="44.5097" lon="1.94465">
        <ele>184</ele>
        <time>2017-09-19T12:23:52Z</time>
      </trkpt>
      <trkpt lat="44.50972" lon="1.9446">
        <ele>184</ele>
        <time>2017-09-19T12:23:57Z</time>
      </trkpt>
      <trkpt lat="44.50997" lon="1.94459">
        <ele>183</ele>
        <time>2017-09-19T12:24:23Z</time>
      </trkpt>
      <trkpt lat="44.51006" lon="1.94457">
        <ele>178</ele>
        <time>2017-09-19T12:24:33Z</time>
      </trkpt>
      <trkpt lat="44.51008" lon="1.94457">
        <ele>178</ele>
        <time>2017-09-19T12:24:36Z</time>
      </trkpt>
      <trkpt lat="44.5101" lon="1.94456">
        <ele>178</ele>
        <time>2017-09-19T12:24:41Z</time>
      </trkpt>
      <trkpt lat="44.51012" lon="1.94455">
        <ele>178</ele>
        <time>2017-09-19T12:24:43Z</time>
      </trkpt>
      <trkpt lat="44.51017" lon="1.94455">
        <ele>178</ele>
        <time>2017-09-19T12:24:49Z</time>
      </trkpt>
      <trkpt lat="44.51023" lon="1.94454">
        <ele>177</ele>
        <time>2017-09-19T12:24:58Z</time>
      </trkpt>
      <trkpt lat="44.51025" lon="1.9445">
        <ele>177</ele>
        <time>2017-09-19T12:25:02Z</time>
      </trkpt>
      <trkpt lat="44.5103" lon="1.94441">
        <ele>176</ele>
        <time>2017-09-19T12:25:11Z</time>
      </trkpt>
      <trkpt lat="44.51032" lon="1.94439">
        <ele>176</ele>
        <time>2017-09-19T12:25:14Z</time>
      </trkpt>
      <trkpt lat="44.51046" lon="1.94408">
        <ele>170</ele>
        <time>2017-09-19T12:25:37Z</time>
      </trkpt>
      <trkpt lat="44.51047" lon="1.94405">
        <ele>169</ele>
        <time>2017-09-19T12:25:40Z</time>
      </trkpt>
      <trkpt lat="44.51051" lon="1.94393">
        <ele>169</ele>
        <time>2017-09-19T12:25:50Z</time>
      </trkpt>
      <trkpt lat="44.51052" lon="1.9439">
        <ele>169</ele>
        <time>2017-09-19T12:25:53Z</time>
      </trkpt>
      <trkpt lat="44.51061" lon="1.94369">
        <ele>167</ele>
        <time>2017-09-19T12:26:11Z</time>
      </trkpt>
      <trkpt lat="44.51074" lon="1.94348">
        <ele>165</ele>
        <time>2017-09-19T12:26:29Z</time>
      </trkpt>
      <trkpt lat="44.51087" lon="1.94334">
        <ele>161</ele>
        <time>2017-09-19T12:26:45Z</time>
      </trkpt>
      <trkpt lat="44.5109" lon="1.94331">
        <ele>160</ele>
        <time>2017-09-19T12:26:48Z</time>
      </trkpt>
      <trkpt lat="44.51108" lon="1.94312">
        <ele>159</ele>
        <time>2017-09-19T12:27:09Z</time>
      </trkpt>
      <trkpt lat="44.5111" lon="1.9431">
        <ele>159</ele>
        <time>2017-09-19T12:27:12Z</time>
      </trkpt>
      <trkpt lat="44.51127" lon="1.94293">
        <ele>158</ele>
        <time>2017-09-19T12:27:30Z</time>
      </trkpt>
      <trkpt lat="44.51133" lon="1.94287">
        <ele>158</ele>
        <time>2017-09-19T12:27:36Z</time>
      </trkpt>
      <trkpt lat="44.51135" lon="1.94286">
        <ele>158</ele>
        <time>2017-09-19T12:27:38Z</time>
      </trkpt>
      <trkpt lat="44.51139" lon="1.94283">
        <ele>158</ele>
        <time>2017-09-19T12:27:41Z</time>
      </trkpt>
      <trkpt lat="44.51143" lon="1.94282">
        <ele>157</ele>
        <time>2017-09-19T12:27:45Z</time>
      </trkpt>
      <trkpt lat="44.51149" lon="1.94286">
        <ele>157</ele>
        <time>2017-09-19T12:27:52Z</time>
      </trkpt>
      <trkpt lat="44.51155" lon="1.94291">
        <ele>158</ele>
        <time>2017-09-19T12:27:57Z</time>
      </trkpt>
      <trkpt lat="44.51157" lon="1.94293">
        <ele>158</ele>
        <time>2017-09-19T12:27:59Z</time>
      </trkpt>
      <trkpt lat="44.51173" lon="1.94322">
        <ele>157</ele>
        <time>2017-09-19T12:28:30Z</time>
      </trkpt>
      <trkpt lat="44.51198" lon="1.94359">
        <ele>157</ele>
        <time>2017-09-19T12:29:01Z</time>
      </trkpt>
      <trkpt lat="44.51204" lon="1.94367">
        <ele>157</ele>
        <time>2017-09-19T12:29:07Z</time>
      </trkpt>
      <trkpt lat="44.51229" lon="1.94395">
        <ele>157</ele>
        <time>2017-09-19T12:29:35Z</time>
      </trkpt>
      <trkpt lat="44.51233" lon="1.94398">
        <ele>157</ele>
        <time>2017-09-19T12:29:39Z</time>
      </trkpt>
      <trkpt lat="44.51241" lon="1.94409">
        <ele>156</ele>
        <time>2017-09-19T12:29:50Z</time>
      </trkpt>
      <trkpt lat="44.51244" lon="1.9441">
        <ele>156</ele>
        <time>2017-09-19T12:29:53Z</time>
      </trkpt>
      <trkpt lat="44.51259" lon="1.94429">
        <ele>156</ele>
        <time>2017-09-19T12:30:13Z</time>
      </trkpt>
      <trkpt lat="44.51282" lon="1.94454">
        <ele>157</ele>
        <time>2017-09-19T12:30:39Z</time>
      </trkpt>
      <trkpt lat="44.51298" lon="1.94472">
        <ele>157</ele>
        <time>2017-09-19T12:30:56Z</time>
      </trkpt>
      <trkpt lat="44.51326" lon="1.94505">
        <ele>157</ele>
        <time>2017-09-19T12:31:28Z</time>
      </trkpt>
      <trkpt lat="44.51354" lon="1.94538">
        <ele>157</ele>
        <time>2017-09-19T12:31:59Z</time>
      </trkpt>
      <trkpt lat="44.51383" lon="1.94575">
        <ele>157</ele>
        <time>2017-09-19T12:32:29Z</time>
      </trkpt>
      <trkpt lat="44.51409" lon="1.94614">
        <ele>160</ele>
        <time>2017-09-19T12:33:00Z</time>
      </trkpt>
      <trkpt lat="44.51435" lon="1.94656">
        <ele>158</ele>
        <time>2017-09-19T12:33:31Z</time>
      </trkpt>
      <trkpt lat="44.51455" lon="1.94689">
        <ele>159</ele>
        <time>2017-09-19T12:33:58Z</time>
      </trkpt>
      <trkpt lat="44.51457" lon="1.94692">
        <ele>159</ele>
        <time>2017-09-19T12:34:00Z</time>
      </trkpt>
      <trkpt lat="44.51461" lon="1.94698">
        <ele>159</ele>
        <time>2017-09-19T12:34:06Z</time>
      </trkpt>
      <trkpt lat="44.51485" lon="1.9474">
        <ele>158</ele>
        <time>2017-09-19T12:34:38Z</time>
      </trkpt>
      <trkpt lat="44.51498" lon="1.94759">
        <ele>159</ele>
        <time>2017-09-19T12:34:54Z</time>
      </trkpt>
      <trkpt lat="44.51501" lon="1.94762">
        <ele>157</ele>
        <time>2017-09-19T12:34:57Z</time>
      </trkpt>
      <trkpt lat="44.51527" lon="1.94796">
        <ele>158</ele>
        <time>2017-09-19T12:35:28Z</time>
      </trkpt>
      <trkpt lat="44.51548" lon="1.94824">
        <ele>159</ele>
        <time>2017-09-19T12:35:52Z</time>
      </trkpt>
      <trkpt lat="44.51559" lon="1.94844">
        <ele>159</ele>
        <time>2017-09-19T12:36:12Z</time>
      </trkpt>
      <trkpt lat="44.51578" lon="1.94867">
        <ele>159</ele>
        <time>2017-09-19T12:36:32Z</time>
      </trkpt>
      <trkpt lat="44.51583" lon="1.94871">
        <ele>159</ele>
        <time>2017-09-19T12:36:36Z</time>
      </trkpt>
      <trkpt lat="44.51603" lon="1.94901">
        <ele>158</ele>
        <time>2017-09-19T12:36:57Z</time>
      </trkpt>
      <trkpt lat="44.51608" lon="1.94906">
        <ele>158</ele>
        <time>2017-09-19T12:37:03Z</time>
      </trkpt>
      <trkpt lat="44.51611" lon="1.94909">
        <ele>158</ele>
        <time>2017-09-19T12:37:06Z</time>
      </trkpt>
      <trkpt lat="44.51623" lon="1.94929">
        <ele>158</ele>
        <time>2017-09-19T12:37:21Z</time>
      </trkpt>
      <trkpt lat="44.5164" lon="1.94973">
        <ele>158</ele>
        <time>2017-09-19T12:37:51Z</time>
      </trkpt>
      <trkpt lat="44.51643" lon="1.9498">
        <ele>158</ele>
        <time>2017-09-19T12:37:56Z</time>
      </trkpt>
      <trkpt lat="44.51658" lon="1.95033">
        <ele>158</ele>
        <time>2017-09-19T12:38:27Z</time>
      </trkpt>
      <trkpt lat="44.51676" lon="1.9509">
        <ele>159</ele>
        <time>2017-09-19T12:38:59Z</time>
      </trkpt>
      <trkpt lat="44.51696" lon="1.95138">
        <ele>159</ele>
        <time>2017-09-19T12:39:31Z</time>
      </trkpt>
      <trkpt lat="44.51697" lon="1.95144">
        <ele>159</ele>
        <time>2017-09-19T12:39:35Z</time>
      </trkpt>
      <trkpt lat="44.51699" lon="1.95151">
        <ele>159</ele>
        <time>2017-09-19T12:39:40Z</time>
      </trkpt>
      <trkpt lat="44.51702" lon="1.95157">
        <ele>159</ele>
        <time>2017-09-19T12:39:45Z</time>
      </trkpt>
      <trkpt lat="44.51705" lon="1.95164">
        <ele>159</ele>
        <time>2017-09-19T12:39:49Z</time>
      </trkpt>
      <trkpt lat="44.51709" lon="1.95179">
        <ele>160</ele>
        <time>2017-09-19T12:39:57Z</time>
      </trkpt>
      <trkpt lat="44.51715" lon="1.95192">
        <ele>160</ele>
        <time>2017-09-19T12:40:06Z</time>
      </trkpt>
      <trkpt lat="44.51716" lon="1.95198">
        <ele>160</ele>
        <time>2017-09-19T12:40:10Z</time>
      </trkpt>
      <trkpt lat="44.51715" lon="1.95202">
        <ele>161</ele>
        <time>2017-09-19T12:40:14Z</time>
      </trkpt>
      <trkpt lat="44.51709" lon="1.95207">
        <ele>161</ele>
        <time>2017-09-19T12:40:20Z</time>
      </trkpt>
      <trkpt lat="44.51705" lon="1.95208">
        <ele>161</ele>
        <time>2017-09-19T12:40:23Z</time>
      </trkpt>
      <trkpt lat="44.51701" lon="1.95209">
        <ele>161</ele>
        <time>2017-09-19T12:40:26Z</time>
      </trkpt>
      <trkpt lat="44.51698" lon="1.9521">
        <ele>161</ele>
        <time>2017-09-19T12:40:30Z</time>
      </trkpt>
      <trkpt lat="44.51694" lon="1.95213">
        <ele>161</ele>
        <time>2017-09-19T12:40:35Z</time>
      </trkpt>
      <trkpt lat="44.51682" lon="1.95215">
        <ele>161</ele>
        <time>2017-09-19T12:40:47Z</time>
      </trkpt>
      <trkpt lat="44.51677" lon="1.95216">
        <ele>162</ele>
        <time>2017-09-19T12:40:50Z</time>
      </trkpt>
      <trkpt lat="44.51648" lon="1.9523">
        <ele>167</ele>
        <time>2017-09-19T12:41:13Z</time>
      </trkpt>
      <trkpt lat="44.51645" lon="1.95232">
        <ele>167</ele>
        <time>2017-09-19T12:41:30Z</time>
      </trkpt>
      <trkpt lat="44.51646" lon="1.95234">
        <ele>167</ele>
        <time>2017-09-19T12:41:44Z</time>
      </trkpt>
      <trkpt lat="44.51647" lon="1.95245">
        <ele>167</ele>
        <time>2017-09-19T12:41:51Z</time>
      </trkpt>
      <trkpt lat="44.51651" lon="1.95255">
        <ele>170</ele>
        <time>2017-09-19T12:41:57Z</time>
      </trkpt>
      <trkpt lat="44.51653" lon="1.95261">
        <ele>171</ele>
        <time>2017-09-19T12:42:00Z</time>
      </trkpt>
      <trkpt lat="44.51668" lon="1.95308">
        <ele>166</ele>
        <time>2017-09-19T12:42:29Z</time>
      </trkpt>
      <trkpt lat="44.51671" lon="1.95323">
        <ele>168</ele>
        <time>2017-09-19T12:42:38Z</time>
      </trkpt>
      <trkpt lat="44.51674" lon="1.95334">
        <ele>169</ele>
        <time>2017-09-19T12:42:45Z</time>
      </trkpt>
      <trkpt lat="44.51679" lon="1.95349">
        <ele>169</ele>
        <time>2017-09-19T12:42:54Z</time>
      </trkpt>
      <trkpt lat="44.51681" lon="1.95362">
        <ele>169</ele>
        <time>2017-09-19T12:43:02Z</time>
      </trkpt>
      <trkpt lat="44.51688" lon="1.95384">
        <ele>169</ele>
        <time>2017-09-19T12:43:15Z</time>
      </trkpt>
      <trkpt lat="44.51696" lon="1.95406">
        <ele>170</ele>
        <time>2017-09-19T12:43:27Z</time>
      </trkpt>
      <trkpt lat="44.51698" lon="1.95411">
        <ele>170</ele>
        <time>2017-09-19T12:43:32Z</time>
      </trkpt>
      <trkpt lat="44.51705" lon="1.95428">
        <ele>171</ele>
        <time>2017-09-19T12:43:46Z</time>
      </trkpt>
      <trkpt lat="44.51709" lon="1.95439">
        <ele>171</ele>
        <time>2017-09-19T12:43:53Z</time>
      </trkpt>
      <trkpt lat="44.51711" lon="1.95445">
        <ele>171</ele>
        <time>2017-09-19T12:43:58Z</time>
      </trkpt>
      <trkpt lat="44.51712" lon="1.95451">
        <ele>171</ele>
        <time>2017-09-19T12:44:02Z</time>
      </trkpt>
      <trkpt lat="44.51713" lon="1.95456">
        <ele>171</ele>
        <time>2017-09-19T12:44:06Z</time>
      </trkpt>
      <trkpt lat="44.51718" lon="1.95469">
        <ele>171</ele>
        <time>2017-09-19T12:44:16Z</time>
      </trkpt>
      <trkpt lat="44.51721" lon="1.95474">
        <ele>170</ele>
        <time>2017-09-19T12:44:19Z</time>
      </trkpt>
      <trkpt lat="44.51727" lon="1.95487">
        <ele>169</ele>
        <time>2017-09-19T12:44:27Z</time>
      </trkpt>
      <trkpt lat="44.51733" lon="1.95498">
        <ele>168</ele>
        <time>2017-09-19T12:44:34Z</time>
      </trkpt>
      <trkpt lat="44.51735" lon="1.95504">
        <ele>170</ele>
        <time>2017-09-19T12:44:38Z</time>
      </trkpt>
      <trkpt lat="44.51741" lon="1.95516">
        <ele>170</ele>
        <time>2017-09-19T12:44:46Z</time>
      </trkpt>
      <trkpt lat="44.51746" lon="1.95526">
        <ele>171</ele>
        <time>2017-09-19T12:44:52Z</time>
      </trkpt>
      <trkpt lat="44.5175" lon="1.95535">
        <ele>164</ele>
        <time>2017-09-19T12:44:59Z</time>
      </trkpt>
      <trkpt lat="44.51754" lon="1.95546">
        <ele>164</ele>
        <time>2017-09-19T12:45:05Z</time>
      </trkpt>
      <trkpt lat="44.5176" lon="1.95568">
        <ele>165</ele>
        <time>2017-09-19T12:45:18Z</time>
      </trkpt>
      <trkpt lat="44.51769" lon="1.95593">
        <ele>166</ele>
        <time>2017-09-19T12:45:33Z</time>
      </trkpt>
      <trkpt lat="44.51775" lon="1.95614">
        <ele>166</ele>
        <time>2017-09-19T12:45:46Z</time>
      </trkpt>
      <trkpt lat="44.51775" lon="1.9562">
        <ele>166</ele>
        <time>2017-09-19T12:45:50Z</time>
      </trkpt>
      <trkpt lat="44.5178" lon="1.95631">
        <ele>166</ele>
        <time>2017-09-19T12:45:57Z</time>
      </trkpt>
      <trkpt lat="44.51782" lon="1.95636">
        <ele>167</ele>
        <time>2017-09-19T12:46:00Z</time>
      </trkpt>
      <trkpt lat="44.51785" lon="1.95646">
        <ele>167</ele>
        <time>2017-09-19T12:46:07Z</time>
      </trkpt>
      <trkpt lat="44.51797" lon="1.95695">
        <ele>170</ele>
        <time>2017-09-19T12:46:36Z</time>
      </trkpt>
      <trkpt lat="44.51801" lon="1.95709">
        <ele>171</ele>
        <time>2017-09-19T12:46:45Z</time>
      </trkpt>
      <trkpt lat="44.51802" lon="1.95715">
        <ele>171</ele>
        <time>2017-09-19T12:46:49Z</time>
      </trkpt>
      <trkpt lat="44.51803" lon="1.95721">
        <ele>171</ele>
        <time>2017-09-19T12:46:54Z</time>
      </trkpt>
      <trkpt lat="44.51804" lon="1.95727">
        <ele>171</ele>
        <time>2017-09-19T12:46:58Z</time>
      </trkpt>
      <trkpt lat="44.51807" lon="1.95733">
        <ele>171</ele>
        <time>2017-09-19T12:47:02Z</time>
      </trkpt>
      <trkpt lat="44.51815" lon="1.95753">
        <ele>173</ele>
        <time>2017-09-19T12:47:16Z</time>
      </trkpt>
      <trkpt lat="44.51818" lon="1.9576">
        <ele>172</ele>
        <time>2017-09-19T12:47:20Z</time>
      </trkpt>
      <trkpt lat="44.51822" lon="1.95772">
        <ele>173</ele>
        <time>2017-09-19T12:47:28Z</time>
      </trkpt>
      <trkpt lat="44.51826" lon="1.95786">
        <ele>174</ele>
        <time>2017-09-19T12:47:34Z</time>
      </trkpt>
      <trkpt lat="44.51833" lon="1.958">
        <ele>174</ele>
        <time>2017-09-19T12:47:44Z</time>
      </trkpt>
      <trkpt lat="44.51836" lon="1.95804">
        <ele>165</ele>
        <time>2017-09-19T12:47:47Z</time>
      </trkpt>
      <trkpt lat="44.51841" lon="1.95811">
        <ele>166</ele>
        <time>2017-09-19T12:47:53Z</time>
      </trkpt>
      <trkpt lat="44.51843" lon="1.95814">
        <ele>166</ele>
        <time>2017-09-19T12:48:12Z</time>
      </trkpt>
      <trkpt lat="44.51841" lon="1.95816">
        <ele>166</ele>
        <time>2017-09-19T12:48:36Z</time>
      </trkpt>
      <trkpt lat="44.51843" lon="1.95833">
        <ele>167</ele>
        <time>2017-09-19T12:48:48Z</time>
      </trkpt>
      <trkpt lat="44.51845" lon="1.95842">
        <ele>168</ele>
        <time>2017-09-19T12:48:53Z</time>
      </trkpt>
      <trkpt lat="44.51847" lon="1.95847">
        <ele>168</ele>
        <time>2017-09-19T12:48:56Z</time>
      </trkpt>
      <trkpt lat="44.5185" lon="1.9585">
        <ele>168</ele>
        <time>2017-09-19T12:48:59Z</time>
      </trkpt>
      <trkpt lat="44.51854" lon="1.9585">
        <ele>168</ele>
        <time>2017-09-19T12:49:02Z</time>
      </trkpt>
      <trkpt lat="44.51873" lon="1.95837">
        <ele>166</ele>
        <time>2017-09-19T12:49:17Z</time>
      </trkpt>
      <trkpt lat="44.51908" lon="1.95812">
        <ele>161</ele>
        <time>2017-09-19T12:49:48Z</time>
      </trkpt>
      <trkpt lat="44.51941" lon="1.95789">
        <ele>158</ele>
        <time>2017-09-19T12:50:19Z</time>
      </trkpt>
      <trkpt lat="44.51959" lon="1.95776">
        <ele>158</ele>
        <time>2017-09-19T12:50:35Z</time>
      </trkpt>
      <trkpt lat="44.51963" lon="1.95778">
        <ele>158</ele>
        <time>2017-09-19T12:50:41Z</time>
      </trkpt>
      <trkpt lat="44.5197" lon="1.95775">
        <ele>158</ele>
        <time>2017-09-19T12:50:48Z</time>
      </trkpt>
      <trkpt lat="44.51973" lon="1.95774">
        <ele>158</ele>
        <time>2017-09-19T12:50:51Z</time>
      </trkpt>
      <trkpt lat="44.51975" lon="1.95772">
        <ele>158</ele>
        <time>2017-09-19T12:50:53Z</time>
      </trkpt>
      <trkpt lat="44.51977" lon="1.95769">
        <ele>158</ele>
        <time>2017-09-19T12:50:55Z</time>
      </trkpt>
      <trkpt lat="44.51979" lon="1.95767">
        <ele>158</ele>
        <time>2017-09-19T12:50:58Z</time>
      </trkpt>
      <trkpt lat="44.5198" lon="1.95764">
        <ele>159</ele>
        <time>2017-09-19T12:51:02Z</time>
      </trkpt>
      <trkpt lat="44.51983" lon="1.95764">
        <ele>159</ele>
        <time>2017-09-19T12:51:05Z</time>
      </trkpt>
      <trkpt lat="44.51986" lon="1.95763">
        <ele>159</ele>
        <time>2017-09-19T12:51:08Z</time>
      </trkpt>
      <trkpt lat="44.51993" lon="1.95756">
        <ele>159</ele>
        <time>2017-09-19T12:51:15Z</time>
      </trkpt>
      <trkpt lat="44.51995" lon="1.95752">
        <ele>159</ele>
        <time>2017-09-19T12:51:18Z</time>
      </trkpt>
      <trkpt lat="44.52" lon="1.95745">
        <ele>159</ele>
        <time>2017-09-19T12:51:23Z</time>
      </trkpt>
      <trkpt lat="44.52005" lon="1.95742">
        <ele>159</ele>
        <time>2017-09-19T12:51:27Z</time>
      </trkpt>
      <trkpt lat="44.52025" lon="1.95712">
        <ele>158</ele>
        <time>2017-09-19T12:51:50Z</time>
      </trkpt>
      <trkpt lat="44.52031" lon="1.95695">
        <ele>158</ele>
        <time>2017-09-19T12:52:00Z</time>
      </trkpt>
      <trkpt lat="44.52039" lon="1.95685">
        <ele>158</ele>
        <time>2017-09-19T12:52:09Z</time>
      </trkpt>
      <trkpt lat="44.5206" lon="1.9564">
        <ele>158</ele>
        <time>2017-09-19T12:52:39Z</time>
      </trkpt>
      <trkpt lat="44.52074" lon="1.95616">
        <ele>158</ele>
        <time>2017-09-19T12:52:56Z</time>
      </trkpt>
      <trkpt lat="44.52098" lon="1.95579">
        <ele>159</ele>
        <time>2017-09-19T12:53:24Z</time>
      </trkpt>
      <trkpt lat="44.52119" lon="1.95546">
        <ele>159</ele>
        <time>2017-09-19T12:53:49Z</time>
      </trkpt>
      <trkpt lat="44.52121" lon="1.95543">
        <ele>159</ele>
        <time>2017-09-19T12:53:52Z</time>
      </trkpt>
      <trkpt lat="44.52124" lon="1.95537">
        <ele>159</ele>
        <time>2017-09-19T12:53:58Z</time>
      </trkpt>
      <trkpt lat="44.52125" lon="1.95534">
        <ele>159</ele>
        <time>2017-09-19T12:54:00Z</time>
      </trkpt>
      <trkpt lat="44.52127" lon="1.95531">
        <ele>159</ele>
        <time>2017-09-19T12:54:02Z</time>
      </trkpt>
      <trkpt lat="44.52134" lon="1.95518">
        <ele>159</ele>
        <time>2017-09-19T12:54:11Z</time>
      </trkpt>
      <trkpt lat="44.52135" lon="1.95515">
        <ele>159</ele>
        <time>2017-09-19T12:54:13Z</time>
      </trkpt>
      <trkpt lat="44.5214" lon="1.95507">
        <ele>159</ele>
        <time>2017-09-19T12:54:19Z</time>
      </trkpt>
      <trkpt lat="44.52144" lon="1.95498">
        <ele>159</ele>
        <time>2017-09-19T12:54:25Z</time>
      </trkpt>
      <trkpt lat="44.52157" lon="1.95466">
        <ele>159</ele>
        <time>2017-09-19T12:54:48Z</time>
      </trkpt>
      <trkpt lat="44.52166" lon="1.95437">
        <ele>159</ele>
        <time>2017-09-19T12:55:06Z</time>
      </trkpt>
      <trkpt lat="44.52188" lon="1.95391">
        <ele>159</ele>
        <time>2017-09-19T12:55:38Z</time>
      </trkpt>
      <trkpt lat="44.52197" lon="1.95375">
        <ele>159</ele>
        <time>2017-09-19T12:55:50Z</time>
      </trkpt>
      <trkpt lat="44.52199" lon="1.95371">
        <ele>159</ele>
        <time>2017-09-19T12:55:53Z</time>
      </trkpt>
      <trkpt lat="44.52223" lon="1.95326">
        <ele>159</ele>
        <time>2017-09-19T12:56:23Z</time>
      </trkpt>
      <trkpt lat="44.52225" lon="1.95322">
        <ele>159</ele>
        <time>2017-09-19T12:56:26Z</time>
      </trkpt>
      <trkpt lat="44.52229" lon="1.95314">
        <ele>159</ele>
        <time>2017-09-19T12:56:32Z</time>
      </trkpt>
      <trkpt lat="44.52244" lon="1.95282">
        <ele>159</ele>
        <time>2017-09-19T12:56:54Z</time>
      </trkpt>
      <trkpt lat="44.52252" lon="1.95271">
        <ele>159</ele>
        <time>2017-09-19T12:57:02Z</time>
      </trkpt>
      <trkpt lat="44.52269" lon="1.95238">
        <ele>159</ele>
        <time>2017-09-19T12:57:24Z</time>
      </trkpt>
      <trkpt lat="44.52271" lon="1.95235">
        <ele>159</ele>
        <time>2017-09-19T12:57:27Z</time>
      </trkpt>
      <trkpt lat="44.52277" lon="1.95232">
        <ele>159</ele>
        <time>2017-09-19T12:57:33Z</time>
      </trkpt>
      <trkpt lat="44.5228" lon="1.9523">
        <ele>159</ele>
        <time>2017-09-19T12:57:59Z</time>
      </trkpt>
      <trkpt lat="44.52281" lon="1.95225">
        <ele>159</ele>
        <time>2017-09-19T12:58:02Z</time>
      </trkpt>
      <trkpt lat="44.523" lon="1.9519">
        <ele>159</ele>
        <time>2017-09-19T12:58:23Z</time>
      </trkpt>
      <trkpt lat="44.52303" lon="1.95188">
        <ele>159</ele>
        <time>2017-09-19T12:58:25Z</time>
      </trkpt>
      <trkpt lat="44.52311" lon="1.95178">
        <ele>159</ele>
        <time>2017-09-19T12:58:32Z</time>
      </trkpt>
      <trkpt lat="44.52343" lon="1.95139">
        <ele>160</ele>
        <time>2017-09-19T12:59:03Z</time>
      </trkpt>
      <trkpt lat="44.5236" lon="1.9512">
        <ele>161</ele>
        <time>2017-09-19T12:59:19Z</time>
      </trkpt>
      <trkpt lat="44.52378" lon="1.95088">
        <ele>161</ele>
        <time>2017-09-19T12:59:41Z</time>
      </trkpt>
      <trkpt lat="44.5239" lon="1.95072">
        <ele>161</ele>
        <time>2017-09-19T12:59:55Z</time>
      </trkpt>
      <trkpt lat="44.52393" lon="1.95064">
        <ele>162</ele>
        <time>2017-09-19T13:00:00Z</time>
      </trkpt>
      <trkpt lat="44.52395" lon="1.9506">
        <ele>162</ele>
        <time>2017-09-19T13:00:03Z</time>
      </trkpt>
      <trkpt lat="44.52397" lon="1.95058">
        <ele>162</ele>
        <time>2017-09-19T13:00:05Z</time>
      </trkpt>
      <trkpt lat="44.524" lon="1.95057">
        <ele>162</ele>
        <time>2017-09-19T13:00:07Z</time>
      </trkpt>
      <trkpt lat="44.52403" lon="1.95058">
        <ele>162</ele>
        <time>2017-09-19T13:00:10Z</time>
      </trkpt>
      <trkpt lat="44.52419" lon="1.9507">
        <ele>164</ele>
        <time>2017-09-19T13:00:24Z</time>
      </trkpt>
      <trkpt lat="44.52421" lon="1.95073">
        <ele>164</ele>
        <time>2017-09-19T13:00:26Z</time>
      </trkpt>
      <trkpt lat="44.52453" lon="1.95104">
        <ele>166</ele>
        <time>2017-09-19T13:00:57Z</time>
      </trkpt>
      <trkpt lat="44.52472" lon="1.95128">
        <ele>167</ele>
        <time>2017-09-19T13:01:17Z</time>
      </trkpt>
      <trkpt lat="44.52475" lon="1.95134">
        <ele>167</ele>
        <time>2017-09-19T13:01:21Z</time>
      </trkpt>
      <trkpt lat="44.52488" lon="1.95152">
        <ele>169</ele>
        <time>2017-09-19T13:01:35Z</time>
      </trkpt>
      <trkpt lat="44.52491" lon="1.95156">
        <ele>169</ele>
        <time>2017-09-19T13:01:38Z</time>
      </trkpt>
      <trkpt lat="44.52492" lon="1.95159">
        <ele>169</ele>
        <time>2017-09-19T13:02:15Z</time>
      </trkpt>
      <trkpt lat="44.52494" lon="1.95163">
        <ele>170</ele>
        <time>2017-09-19T13:02:32Z</time>
      </trkpt>
      <trkpt lat="44.52497" lon="1.95166">
        <ele>170</ele>
        <time>2017-09-19T13:02:35Z</time>
      </trkpt>
      <trkpt lat="44.5252" lon="1.95189">
        <ele>174</ele>
        <time>2017-09-19T13:02:58Z</time>
      </trkpt>
      <trkpt lat="44.52548" lon="1.95222">
        <ele>175</ele>
        <time>2017-09-19T13:03:26Z</time>
      </trkpt>
      <trkpt lat="44.52556" lon="1.9523">
        <ele>176</ele>
        <time>2017-09-19T13:03:33Z</time>
      </trkpt>
      <trkpt lat="44.52571" lon="1.9525">
        <ele>177</ele>
        <time>2017-09-19T13:03:49Z</time>
      </trkpt>
      <trkpt lat="44.52575" lon="1.95255">
        <ele>178</ele>
        <time>2017-09-19T13:03:53Z</time>
      </trkpt>
      <trkpt lat="44.52589" lon="1.95282">
        <ele>182</ele>
        <time>2017-09-19T13:04:14Z</time>
      </trkpt>
      <trkpt lat="44.52601" lon="1.95303">
        <ele>184</ele>
        <time>2017-09-19T13:04:30Z</time>
      </trkpt>
      <trkpt lat="44.52608" lon="1.95318">
        <ele>185</ele>
        <time>2017-09-19T13:04:40Z</time>
      </trkpt>
      <trkpt lat="44.52611" lon="1.95325">
        <ele>185</ele>
        <time>2017-09-19T13:04:46Z</time>
      </trkpt>
      <trkpt lat="44.52611" lon="1.95328">
        <ele>185</ele>
        <time>2017-09-19T13:04:50Z</time>
      </trkpt>
      <trkpt lat="44.52616" lon="1.95331">
        <ele>185</ele>
        <time>2017-09-19T13:04:54Z</time>
      </trkpt>
      <trkpt lat="44.52618" lon="1.95334">
        <ele>188</ele>
        <time>2017-09-19T13:04:56Z</time>
      </trkpt>
      <trkpt lat="44.52629" lon="1.95337">
        <ele>189</ele>
        <time>2017-09-19T13:05:05Z</time>
      </trkpt>
      <trkpt lat="44.52636" lon="1.95338">
        <ele>190</ele>
        <time>2017-09-19T13:05:10Z</time>
      </trkpt>
      <trkpt lat="44.52645" lon="1.95341">
        <ele>190</ele>
        <time>2017-09-19T13:05:19Z</time>
      </trkpt>
      <trkpt lat="44.52662" lon="1.95362">
        <ele>191</ele>
        <time>2017-09-19T13:05:37Z</time>
      </trkpt>
      <trkpt lat="44.52666" lon="1.95365">
        <ele>191</ele>
        <time>2017-09-19T13:05:41Z</time>
      </trkpt>
      <trkpt lat="44.52672" lon="1.95365">
        <ele>193</ele>
        <time>2017-09-19T13:05:45Z</time>
      </trkpt>
      <trkpt lat="44.52674" lon="1.95365">
        <ele>193</ele>
        <time>2017-09-19T13:05:47Z</time>
      </trkpt>
      <trkpt lat="44.52677" lon="1.95367">
        <ele>193</ele>
        <time>2017-09-19T13:05:50Z</time>
      </trkpt>
      <trkpt lat="44.52681" lon="1.9537">
        <ele>193</ele>
        <time>2017-09-19T13:05:54Z</time>
      </trkpt>
      <trkpt lat="44.52684" lon="1.9537">
        <ele>193</ele>
        <time>2017-09-19T13:05:56Z</time>
      </trkpt>
      <trkpt lat="44.52694" lon="1.95368">
        <ele>193</ele>
        <time>2017-09-19T13:06:04Z</time>
      </trkpt>
      <trkpt lat="44.52697" lon="1.95368">
        <ele>193</ele>
        <time>2017-09-19T13:06:06Z</time>
      </trkpt>
      <trkpt lat="44.52699" lon="1.95369">
        <ele>193</ele>
        <time>2017-09-19T13:06:08Z</time>
      </trkpt>
      <trkpt lat="44.52704" lon="1.95378">
        <ele>194</ele>
        <time>2017-09-19T13:06:14Z</time>
      </trkpt>
      <trkpt lat="44.52705" lon="1.9538">
        <ele>194</ele>
        <time>2017-09-19T13:06:16Z</time>
      </trkpt>
      <trkpt lat="44.52707" lon="1.95381">
        <ele>194</ele>
        <time>2017-09-19T13:06:18Z</time>
      </trkpt>
      <trkpt lat="44.52712" lon="1.95378">
        <ele>194</ele>
        <time>2017-09-19T13:06:23Z</time>
      </trkpt>
      <trkpt lat="44.52715" lon="1.95378">
        <ele>194</ele>
        <time>2017-09-19T13:06:25Z</time>
      </trkpt>
      <trkpt lat="44.52747" lon="1.95363">
        <ele>193</ele>
        <time>2017-09-19T13:06:51Z</time>
      </trkpt>
      <trkpt lat="44.52762" lon="1.9536">
        <ele>194</ele>
        <time>2017-09-19T13:07:03Z</time>
      </trkpt>
      <trkpt lat="44.52769" lon="1.95358">
        <ele>194</ele>
        <time>2017-09-19T13:07:11Z</time>
      </trkpt>
      <trkpt lat="44.52796" lon="1.95358">
        <ele>195</ele>
        <time>2017-09-19T13:07:34Z</time>
      </trkpt>
      <trkpt lat="44.52814" lon="1.95363">
        <ele>195</ele>
        <time>2017-09-19T13:07:50Z</time>
      </trkpt>
      <trkpt lat="44.52836" lon="1.95365">
        <ele>196</ele>
        <time>2017-09-19T13:08:09Z</time>
      </trkpt>
      <trkpt lat="44.52841" lon="1.95364">
        <ele>196</ele>
        <time>2017-09-19T13:08:13Z</time>
      </trkpt>
      <trkpt lat="44.52857" lon="1.95366">
        <ele>196</ele>
        <time>2017-09-19T13:08:27Z</time>
      </trkpt>
      <trkpt lat="44.52859" lon="1.95366">
        <ele>196</ele>
        <time>2017-09-19T13:08:29Z</time>
      </trkpt>
      <trkpt lat="44.52876" lon="1.95368">
        <ele>196</ele>
        <time>2017-09-19T13:08:50Z</time>
      </trkpt>
      <trkpt lat="44.52882" lon="1.95372">
        <ele>196</ele>
        <time>2017-09-19T13:08:56Z</time>
      </trkpt>
      <trkpt lat="44.52886" lon="1.95376">
        <ele>197</ele>
        <time>2017-09-19T13:09:00Z</time>
      </trkpt>
      <trkpt lat="44.52897" lon="1.95395">
        <ele>197</ele>
        <time>2017-09-19T13:09:14Z</time>
      </trkpt>
      <trkpt lat="44.5291" lon="1.95414">
        <ele>198</ele>
        <time>2017-09-19T13:09:30Z</time>
      </trkpt>
      <trkpt lat="44.52912" lon="1.95418">
        <ele>199</ele>
        <time>2017-09-19T13:09:33Z</time>
      </trkpt>
      <trkpt lat="44.52913" lon="1.9542">
        <ele>199</ele>
        <time>2017-09-19T13:09:35Z</time>
      </trkpt>
      <trkpt lat="44.5292" lon="1.95435">
        <ele>202</ele>
        <time>2017-09-19T13:09:46Z</time>
      </trkpt>
      <trkpt lat="44.52922" lon="1.95441">
        <ele>203</ele>
        <time>2017-09-19T13:09:56Z</time>
      </trkpt>
      <trkpt lat="44.52934" lon="1.95465">
        <ele>205</ele>
        <time>2017-09-19T13:10:14Z</time>
      </trkpt>
      <trkpt lat="44.52937" lon="1.95468">
        <ele>205</ele>
        <time>2017-09-19T13:10:17Z</time>
      </trkpt>
      <trkpt lat="44.52938" lon="1.95471">
        <ele>205</ele>
        <time>2017-09-19T13:10:20Z</time>
      </trkpt>
      <trkpt lat="44.52947" lon="1.9549">
        <ele>206</ele>
        <time>2017-09-19T13:10:34Z</time>
      </trkpt>
      <trkpt lat="44.52949" lon="1.95493">
        <ele>206</ele>
        <time>2017-09-19T13:10:36Z</time>
      </trkpt>
      <trkpt lat="44.52954" lon="1.955">
        <ele>213</ele>
        <time>2017-09-19T13:10:42Z</time>
      </trkpt>
      <trkpt lat="44.52955" lon="1.95504">
        <ele>213</ele>
        <time>2017-09-19T13:10:44Z</time>
      </trkpt>
      <trkpt lat="44.52959" lon="1.95512">
        <ele>213</ele>
        <time>2017-09-19T13:10:51Z</time>
      </trkpt>
      <trkpt lat="44.52961" lon="1.95515">
        <ele>214</ele>
        <time>2017-09-19T13:10:53Z</time>
      </trkpt>
      <trkpt lat="44.52964" lon="1.9552">
        <ele>214</ele>
        <time>2017-09-19T13:10:58Z</time>
      </trkpt>
      <trkpt lat="44.52967" lon="1.95525">
        <ele>214</ele>
        <time>2017-09-19T13:11:02Z</time>
      </trkpt>
      <trkpt lat="44.52977" lon="1.95537">
        <ele>216</ele>
        <time>2017-09-19T13:11:12Z</time>
      </trkpt>
      <trkpt lat="44.52981" lon="1.95547">
        <ele>217</ele>
        <time>2017-09-19T13:11:19Z</time>
      </trkpt>
      <trkpt lat="44.52983" lon="1.95549">
        <ele>217</ele>
        <time>2017-09-19T13:11:21Z</time>
      </trkpt>
      <trkpt lat="44.52984" lon="1.9555">
        <ele>218</ele>
        <time>2017-09-19T13:11:23Z</time>
      </trkpt>
      <trkpt lat="44.52992" lon="1.95559">
        <ele>220</ele>
        <time>2017-09-19T13:11:42Z</time>
      </trkpt>
      <trkpt lat="44.53005" lon="1.95566">
        <ele>229</ele>
        <time>2017-09-19T13:12:00Z</time>
      </trkpt>
      <trkpt lat="44.53008" lon="1.95569">
        <ele>229</ele>
        <time>2017-09-19T13:12:03Z</time>
      </trkpt>
      <trkpt lat="44.53007" lon="1.9557">
        <ele>229</ele>
        <time>2017-09-19T13:12:16Z</time>
      </trkpt>
      <trkpt lat="44.53007" lon="1.95573">
        <ele>229</ele>
        <time>2017-09-19T13:12:27Z</time>
      </trkpt>
      <trkpt lat="44.53005" lon="1.95577">
        <ele>229</ele>
        <time>2017-09-19T13:12:30Z</time>
      </trkpt>
      <trkpt lat="44.53003" lon="1.9558">
        <ele>229</ele>
        <time>2017-09-19T13:12:33Z</time>
      </trkpt>
      <trkpt lat="44.52995" lon="1.95587">
        <ele>228</ele>
        <time>2017-09-19T13:12:43Z</time>
      </trkpt>
      <trkpt lat="44.52992" lon="1.9559">
        <ele>228</ele>
        <time>2017-09-19T13:12:46Z</time>
      </trkpt>
      <trkpt lat="44.52987" lon="1.95598">
        <ele>228</ele>
        <time>2017-09-19T13:12:53Z</time>
      </trkpt>
      <trkpt lat="44.52985" lon="1.95602">
        <ele>228</ele>
        <time>2017-09-19T13:12:56Z</time>
      </trkpt>
      <trkpt lat="44.52985" lon="1.95607">
        <ele>228</ele>
        <time>2017-09-19T13:12:59Z</time>
      </trkpt>
      <trkpt lat="44.52985" lon="1.95611">
        <ele>228</ele>
        <time>2017-09-19T13:13:02Z</time>
      </trkpt>
      <trkpt lat="44.52984" lon="1.95616">
        <ele>228</ele>
        <time>2017-09-19T13:13:05Z</time>
      </trkpt>
      <trkpt lat="44.5298" lon="1.95622">
        <ele>228</ele>
        <time>2017-09-19T13:13:11Z</time>
      </trkpt>
      <trkpt lat="44.52978" lon="1.95629">
        <ele>229</ele>
        <time>2017-09-19T13:13:16Z</time>
      </trkpt>
      <trkpt lat="44.52976" lon="1.9563">
        <ele>229</ele>
        <time>2017-09-19T13:13:20Z</time>
      </trkpt>
      <trkpt lat="44.52977" lon="1.95633">
        <ele>229</ele>
        <time>2017-09-19T13:13:27Z</time>
      </trkpt>
      <trkpt lat="44.52981" lon="1.95635">
        <ele>230</ele>
        <time>2017-09-19T13:13:59Z</time>
      </trkpt>
      <trkpt lat="44.52985" lon="1.9563">
        <ele>230</ele>
        <time>2017-09-19T13:14:07Z</time>
      </trkpt>
      <trkpt lat="44.52988" lon="1.95625">
        <ele>229</ele>
        <time>2017-09-19T13:14:19Z</time>
      </trkpt>
      <trkpt lat="44.52995" lon="1.95622">
        <ele>229</ele>
        <time>2017-09-19T13:14:25Z</time>
      </trkpt>
      <trkpt lat="44.52998" lon="1.95621">
        <ele>229</ele>
        <time>2017-09-19T13:14:28Z</time>
      </trkpt>
      <trkpt lat="44.53" lon="1.95617">
        <ele>229</ele>
        <time>2017-09-19T13:14:33Z</time>
      </trkpt>
      <trkpt lat="44.53014" lon="1.95611">
        <ele>242</ele>
        <time>2017-09-19T13:14:44Z</time>
      </trkpt>
      <trkpt lat="44.53035" lon="1.95601">
        <ele>244</ele>
        <time>2017-09-19T13:15:02Z</time>
      </trkpt>
      <trkpt lat="44.53059" lon="1.95594">
        <ele>247</ele>
        <time>2017-09-19T13:15:24Z</time>
      </trkpt>
      <trkpt lat="44.53082" lon="1.95579">
        <ele>247</ele>
        <time>2017-09-19T13:15:45Z</time>
      </trkpt>
      <trkpt lat="44.53089" lon="1.9558">
        <ele>250</ele>
        <time>2017-09-19T13:15:52Z</time>
      </trkpt>
      <trkpt lat="44.5309" lon="1.95585">
        <ele>254</ele>
        <time>2017-09-19T13:15:59Z</time>
      </trkpt>
      <trkpt lat="44.53081" lon="1.956">
        <ele>249</ele>
        <time>2017-09-19T13:16:13Z</time>
      </trkpt>
      <trkpt lat="44.53073" lon="1.95616">
        <ele>250</ele>
        <time>2017-09-19T13:16:24Z</time>
      </trkpt>
      <trkpt lat="44.53071" lon="1.9562">
        <ele>250</ele>
        <time>2017-09-19T13:16:27Z</time>
      </trkpt>
      <trkpt lat="44.53057" lon="1.95648">
        <ele>252</ele>
        <time>2017-09-19T13:16:46Z</time>
      </trkpt>
      <trkpt lat="44.53054" lon="1.95652">
        <ele>252</ele>
        <time>2017-09-19T13:16:49Z</time>
      </trkpt>
      <trkpt lat="44.53046" lon="1.95672">
        <ele>259</ele>
        <time>2017-09-19T13:17:02Z</time>
      </trkpt>
      <trkpt lat="44.53042" lon="1.95681">
        <ele>259</ele>
        <time>2017-09-19T13:17:09Z</time>
      </trkpt>
      <trkpt lat="44.53033" lon="1.95709">
        <ele>259</ele>
        <time>2017-09-19T13:17:25Z</time>
      </trkpt>
      <trkpt lat="44.53027" lon="1.95737">
        <ele>259</ele>
        <time>2017-09-19T13:17:44Z</time>
      </trkpt>
      <trkpt lat="44.53029" lon="1.9576">
        <ele>264</ele>
        <time>2017-09-19T13:17:57Z</time>
      </trkpt>
      <trkpt lat="44.53031" lon="1.95778">
        <ele>265</ele>
        <time>2017-09-19T13:18:08Z</time>
      </trkpt>
      <trkpt lat="44.53031" lon="1.95784">
        <ele>266</ele>
        <time>2017-09-19T13:18:11Z</time>
      </trkpt>
      <trkpt lat="44.53032" lon="1.95794">
        <ele>266</ele>
        <time>2017-09-19T13:18:17Z</time>
      </trkpt>
      <trkpt lat="44.53039" lon="1.95839">
        <ele>269</ele>
        <time>2017-09-19T13:18:42Z</time>
      </trkpt>
      <trkpt lat="44.53043" lon="1.95854">
        <ele>270</ele>
        <time>2017-09-19T13:18:51Z</time>
      </trkpt>
      <trkpt lat="44.53044" lon="1.9586">
        <ele>271</ele>
        <time>2017-09-19T13:18:55Z</time>
      </trkpt>
      <trkpt lat="44.53046" lon="1.95864">
        <ele>271</ele>
        <time>2017-09-19T13:18:58Z</time>
      </trkpt>
      <trkpt lat="44.53051" lon="1.9587">
        <ele>272</ele>
        <time>2017-09-19T13:19:03Z</time>
      </trkpt>
      <trkpt lat="44.53054" lon="1.95871">
        <ele>272</ele>
        <time>2017-09-19T13:19:06Z</time>
      </trkpt>
      <trkpt lat="44.53056" lon="1.9587">
        <ele>272</ele>
        <time>2017-09-19T13:19:08Z</time>
      </trkpt>
      <trkpt lat="44.53059" lon="1.95866">
        <ele>273</ele>
        <time>2017-09-19T13:19:11Z</time>
      </trkpt>
      <trkpt lat="44.53063" lon="1.95837">
        <ele>275</ele>
        <time>2017-09-19T13:19:31Z</time>
      </trkpt>
      <trkpt lat="44.53081" lon="1.95797">
        <ele>272</ele>
        <time>2017-09-19T13:19:57Z</time>
      </trkpt>
      <trkpt lat="44.53085" lon="1.95795">
        <ele>283</ele>
        <time>2017-09-19T13:20:01Z</time>
      </trkpt>
      <trkpt lat="44.53089" lon="1.95795">
        <ele>283</ele>
        <time>2017-09-19T13:20:04Z</time>
      </trkpt>
      <trkpt lat="44.53092" lon="1.95796">
        <ele>284</ele>
        <time>2017-09-19T13:20:07Z</time>
      </trkpt>
      <trkpt lat="44.53097" lon="1.95804">
        <ele>284</ele>
        <time>2017-09-19T13:20:15Z</time>
      </trkpt>
      <trkpt lat="44.53103" lon="1.95829">
        <ele>284</ele>
        <time>2017-09-19T13:20:32Z</time>
      </trkpt>
      <trkpt lat="44.53104" lon="1.95834">
        <ele>288</ele>
        <time>2017-09-19T13:20:35Z</time>
      </trkpt>
      <trkpt lat="44.53105" lon="1.95838">
        <ele>288</ele>
        <time>2017-09-19T13:20:38Z</time>
      </trkpt>
      <trkpt lat="44.53106" lon="1.9585">
        <ele>289</ele>
        <time>2017-09-19T13:20:44Z</time>
      </trkpt>
      <trkpt lat="44.53113" lon="1.95879">
        <ele>291</ele>
        <time>2017-09-19T13:21:02Z</time>
      </trkpt>
      <trkpt lat="44.53113" lon="1.95883">
        <ele>291</ele>
        <time>2017-09-19T13:21:05Z</time>
      </trkpt>
      <trkpt lat="44.53115" lon="1.95887">
        <ele>292</ele>
        <time>2017-09-19T13:21:08Z</time>
      </trkpt>
      <trkpt lat="44.53118" lon="1.95892">
        <ele>292</ele>
        <time>2017-09-19T13:21:13Z</time>
      </trkpt>
      <trkpt lat="44.53126" lon="1.95911">
        <ele>294</ele>
        <time>2017-09-19T13:21:27Z</time>
      </trkpt>
      <trkpt lat="44.53128" lon="1.95915">
        <ele>294</ele>
        <time>2017-09-19T13:21:31Z</time>
      </trkpt>
      <trkpt lat="44.53144" lon="1.95943">
        <ele>297</ele>
        <time>2017-09-19T13:21:55Z</time>
      </trkpt>
      <trkpt lat="44.53148" lon="1.95947">
        <ele>297</ele>
        <time>2017-09-19T13:21:59Z</time>
      </trkpt>
      <trkpt lat="44.53151" lon="1.95951">
        <ele>298</ele>
        <time>2017-09-19T13:22:03Z</time>
      </trkpt>
      <trkpt lat="44.53154" lon="1.95954">
        <ele>298</ele>
        <time>2017-09-19T13:22:08Z</time>
      </trkpt>
      <trkpt lat="44.53159" lon="1.95955">
        <ele>298</ele>
        <time>2017-09-19T13:22:12Z</time>
      </trkpt>
      <trkpt lat="44.53164" lon="1.95954">
        <ele>298</ele>
        <time>2017-09-19T13:22:15Z</time>
      </trkpt>
      <trkpt lat="44.53173" lon="1.95947">
        <ele>308</ele>
        <time>2017-09-19T13:22:23Z</time>
      </trkpt>
      <trkpt lat="44.53175" lon="1.95939">
        <ele>308</ele>
        <time>2017-09-19T13:22:29Z</time>
      </trkpt>
      <trkpt lat="44.53176" lon="1.95934">
        <ele>308</ele>
        <time>2017-09-19T13:22:32Z</time>
      </trkpt>
      <trkpt lat="44.53179" lon="1.95927">
        <ele>308</ele>
        <time>2017-09-19T13:22:37Z</time>
      </trkpt>
      <trkpt lat="44.53181" lon="1.95922">
        <ele>308</ele>
        <time>2017-09-19T13:22:40Z</time>
      </trkpt>
      <trkpt lat="44.53193" lon="1.95909">
        <ele>307</ele>
        <time>2017-09-19T13:22:52Z</time>
      </trkpt>
      <trkpt lat="44.53197" lon="1.95907">
        <ele>308</ele>
        <time>2017-09-19T13:22:56Z</time>
      </trkpt>
      <trkpt lat="44.532" lon="1.95905">
        <ele>308</ele>
        <time>2017-09-19T13:23:00Z</time>
      </trkpt>
      <trkpt lat="44.53208" lon="1.95903">
        <ele>309</ele>
        <time>2017-09-19T13:23:07Z</time>
      </trkpt>
      <trkpt lat="44.53212" lon="1.95902">
        <ele>309</ele>
        <time>2017-09-19T13:23:10Z</time>
      </trkpt>
      <trkpt lat="44.53215" lon="1.95899">
        <ele>309</ele>
        <time>2017-09-19T13:23:15Z</time>
      </trkpt>
      <trkpt lat="44.53217" lon="1.95896">
        <ele>309</ele>
        <time>2017-09-19T13:23:18Z</time>
      </trkpt>
      <trkpt lat="44.53229" lon="1.95887">
        <ele>310</ele>
        <time>2017-09-19T13:23:30Z</time>
      </trkpt>
      <trkpt lat="44.53237" lon="1.95885">
        <ele>310</ele>
        <time>2017-09-19T13:23:38Z</time>
      </trkpt>
      <trkpt lat="44.5324" lon="1.95884">
        <ele>310</ele>
        <time>2017-09-19T13:23:41Z</time>
      </trkpt>
      <trkpt lat="44.53243" lon="1.95881">
        <ele>310</ele>
        <time>2017-09-19T13:23:43Z</time>
      </trkpt>
      <trkpt lat="44.53256" lon="1.95869">
        <ele>316</ele>
        <time>2017-09-19T13:23:56Z</time>
      </trkpt>
      <trkpt lat="44.5326" lon="1.95867">
        <ele>316</ele>
        <time>2017-09-19T13:23:59Z</time>
      </trkpt>
      <trkpt lat="44.53263" lon="1.95866">
        <ele>316</ele>
        <time>2017-09-19T13:24:02Z</time>
      </trkpt>
      <trkpt lat="44.53267" lon="1.95867">
        <ele>316</ele>
        <time>2017-09-19T13:24:08Z</time>
      </trkpt>
      <trkpt lat="44.5327" lon="1.95871">
        <ele>317</ele>
        <time>2017-09-19T13:24:11Z</time>
      </trkpt>
      <trkpt lat="44.53281" lon="1.95885">
        <ele>318</ele>
        <time>2017-09-19T13:24:24Z</time>
      </trkpt>
      <trkpt lat="44.53292" lon="1.95906">
        <ele>318</ele>
        <time>2017-09-19T13:24:59Z</time>
      </trkpt>
      <trkpt lat="44.53295" lon="1.9591">
        <ele>319</ele>
        <time>2017-09-19T13:25:03Z</time>
      </trkpt>
      <trkpt lat="44.53314" lon="1.95946">
        <ele>320</ele>
        <time>2017-09-19T13:25:27Z</time>
      </trkpt>
      <trkpt lat="44.53324" lon="1.95956">
        <ele>320</ele>
        <time>2017-09-19T13:25:36Z</time>
      </trkpt>
      <trkpt lat="44.53334" lon="1.95961">
        <ele>323</ele>
        <time>2017-09-19T13:25:44Z</time>
      </trkpt>
      <trkpt lat="44.53339" lon="1.95961">
        <ele>323</ele>
        <time>2017-09-19T13:25:49Z</time>
      </trkpt>
      <trkpt lat="44.53354" lon="1.95969">
        <ele>323</ele>
        <time>2017-09-19T13:26:03Z</time>
      </trkpt>
      <trkpt lat="44.53359" lon="1.95972">
        <ele>323</ele>
        <time>2017-09-19T13:26:07Z</time>
      </trkpt>
      <trkpt lat="44.53363" lon="1.95976">
        <ele>323</ele>
        <time>2017-09-19T13:26:10Z</time>
      </trkpt>
      <trkpt lat="44.53394" lon="1.95985">
        <ele>324</ele>
        <time>2017-09-19T13:26:33Z</time>
      </trkpt>
      <trkpt lat="44.53402" lon="1.95985">
        <ele>324</ele>
        <time>2017-09-19T13:26:44Z</time>
      </trkpt>
      <trkpt lat="44.5342" lon="1.95988">
        <ele>326</ele>
        <time>2017-09-19T13:26:59Z</time>
      </trkpt>
      <trkpt lat="44.53428" lon="1.95988">
        <ele>326</ele>
        <time>2017-09-19T13:27:05Z</time>
      </trkpt>
      <trkpt lat="44.53433" lon="1.95987">
        <ele>326</ele>
        <time>2017-09-19T13:27:10Z</time>
      </trkpt>
      <trkpt lat="44.5345" lon="1.95989">
        <ele>327</ele>
        <time>2017-09-19T13:27:25Z</time>
      </trkpt>
      <trkpt lat="44.53454" lon="1.95989">
        <ele>327</ele>
        <time>2017-09-19T13:27:28Z</time>
      </trkpt>
      <trkpt lat="44.53459" lon="1.9599">
        <ele>327</ele>
        <time>2017-09-19T13:27:31Z</time>
      </trkpt>
      <trkpt lat="44.53463" lon="1.95991">
        <ele>327</ele>
        <time>2017-09-19T13:27:37Z</time>
      </trkpt>
      <trkpt lat="44.53468" lon="1.95993">
        <ele>327</ele>
        <time>2017-09-19T13:27:41Z</time>
      </trkpt>
      <trkpt lat="44.53506" lon="1.96009">
        <ele>326</ele>
        <time>2017-09-19T13:28:12Z</time>
      </trkpt>
      <trkpt lat="44.53519" lon="1.96015">
        <ele>326</ele>
        <time>2017-09-19T13:28:23Z</time>
      </trkpt>
      <trkpt lat="44.53553" lon="1.96032">
        <ele>326</ele>
        <time>2017-09-19T13:28:54Z</time>
      </trkpt>
      <trkpt lat="44.53566" lon="1.96035">
        <ele>326</ele>
        <time>2017-09-19T13:29:04Z</time>
      </trkpt>
      <trkpt lat="44.53578" lon="1.96041">
        <ele>326</ele>
        <time>2017-09-19T13:29:13Z</time>
      </trkpt>
      <trkpt lat="44.53591" lon="1.96052">
        <ele>327</ele>
        <time>2017-09-19T13:29:27Z</time>
      </trkpt>
      <trkpt lat="44.536" lon="1.96058">
        <ele>327</ele>
        <time>2017-09-19T13:29:35Z</time>
      </trkpt>
      <trkpt lat="44.53641" lon="1.96078">
        <ele>327</ele>
        <time>2017-09-19T13:30:07Z</time>
      </trkpt>
      <trkpt lat="44.53645" lon="1.9608">
        <ele>327</ele>
        <time>2017-09-19T13:30:11Z</time>
      </trkpt>
      <trkpt lat="44.53658" lon="1.96085">
        <ele>325</ele>
        <time>2017-09-19T13:30:22Z</time>
      </trkpt>
      <trkpt lat="44.53672" lon="1.96087">
        <ele>326</ele>
        <time>2017-09-19T13:30:31Z</time>
      </trkpt>
      <trkpt lat="44.5368" lon="1.9609">
        <ele>326</ele>
        <time>2017-09-19T13:30:38Z</time>
      </trkpt>
      <trkpt lat="44.53688" lon="1.96092">
        <ele>326</ele>
        <time>2017-09-19T13:30:45Z</time>
      </trkpt>
      <trkpt lat="44.53701" lon="1.96096">
        <ele>326</ele>
        <time>2017-09-19T13:30:55Z</time>
      </trkpt>
      <trkpt lat="44.53722" lon="1.96107">
        <ele>326</ele>
        <time>2017-09-19T13:31:12Z</time>
      </trkpt>
      <trkpt lat="44.5373" lon="1.9611">
        <ele>326</ele>
        <time>2017-09-19T13:31:23Z</time>
      </trkpt>
      <trkpt lat="44.53741" lon="1.96115">
        <ele>326</ele>
        <time>2017-09-19T13:31:32Z</time>
      </trkpt>
      <trkpt lat="44.5375" lon="1.96121">
        <ele>326</ele>
        <time>2017-09-19T13:31:39Z</time>
      </trkpt>
      <trkpt lat="44.53758" lon="1.96124">
        <ele>328</ele>
        <time>2017-09-19T13:31:45Z</time>
      </trkpt>
      <trkpt lat="44.53761" lon="1.96126">
        <ele>328</ele>
        <time>2017-09-19T13:31:48Z</time>
      </trkpt>
      <trkpt lat="44.53765" lon="1.96128">
        <ele>328</ele>
        <time>2017-09-19T13:31:51Z</time>
      </trkpt>
      <trkpt lat="44.53778" lon="1.96134">
        <ele>328</ele>
        <time>2017-09-19T13:32:01Z</time>
      </trkpt>
      <trkpt lat="44.53798" lon="1.96137">
        <ele>328</ele>
        <time>2017-09-19T13:32:17Z</time>
      </trkpt>
      <trkpt lat="44.53802" lon="1.96137">
        <ele>328</ele>
        <time>2017-09-19T13:32:20Z</time>
      </trkpt>
      <trkpt lat="44.53827" lon="1.9614">
        <ele>329</ele>
        <time>2017-09-19T13:32:39Z</time>
      </trkpt>
      <trkpt lat="44.53831" lon="1.9614">
        <ele>329</ele>
        <time>2017-09-19T13:32:43Z</time>
      </trkpt>
      <trkpt lat="44.53844" lon="1.96139">
        <ele>329</ele>
        <time>2017-09-19T13:32:55Z</time>
      </trkpt>
      <trkpt lat="44.53852" lon="1.96138">
        <ele>329</ele>
        <time>2017-09-19T13:33:03Z</time>
      </trkpt>
      <trkpt lat="44.53856" lon="1.96136">
        <ele>329</ele>
        <time>2017-09-19T13:33:06Z</time>
      </trkpt>
      <trkpt lat="44.53879" lon="1.96124">
        <ele>329</ele>
        <time>2017-09-19T13:33:23Z</time>
      </trkpt>
      <trkpt lat="44.53883" lon="1.96122">
        <ele>330</ele>
        <time>2017-09-19T13:33:26Z</time>
      </trkpt>
      <trkpt lat="44.53887" lon="1.9612">
        <ele>330</ele>
        <time>2017-09-19T13:33:29Z</time>
      </trkpt>
      <trkpt lat="44.53921" lon="1.96108">
        <ele>330</ele>
        <time>2017-09-19T13:33:54Z</time>
      </trkpt>
      <trkpt lat="44.53924" lon="1.96108">
        <ele>330</ele>
        <time>2017-09-19T13:33:56Z</time>
      </trkpt>
      <trkpt lat="44.53964" lon="1.96105">
        <ele>329</ele>
        <time>2017-09-19T13:34:28Z</time>
      </trkpt>
      <trkpt lat="44.5397" lon="1.96104">
        <ele>329</ele>
        <time>2017-09-19T13:34:34Z</time>
      </trkpt>
      <trkpt lat="44.54007" lon="1.96098">
        <ele>330</ele>
        <time>2017-09-19T13:35:00Z</time>
      </trkpt>
      <trkpt lat="44.54011" lon="1.96096">
        <ele>330</ele>
        <time>2017-09-19T13:35:03Z</time>
      </trkpt>
      <trkpt lat="44.54025" lon="1.96092">
        <ele>329</ele>
        <time>2017-09-19T13:35:14Z</time>
      </trkpt>
      <trkpt lat="44.54061" lon="1.96077">
        <ele>333</ele>
        <time>2017-09-19T13:35:47Z</time>
      </trkpt>
      <trkpt lat="44.54065" lon="1.96075">
        <ele>333</ele>
        <time>2017-09-19T13:35:51Z</time>
      </trkpt>
      <trkpt lat="44.54092" lon="1.96069">
        <ele>332</ele>
        <time>2017-09-19T13:36:13Z</time>
      </trkpt>
      <trkpt lat="44.54096" lon="1.96067">
        <ele>332</ele>
        <time>2017-09-19T13:36:16Z</time>
      </trkpt>
      <trkpt lat="44.54131" lon="1.96057">
        <ele>332</ele>
        <time>2017-09-19T13:36:42Z</time>
      </trkpt>
      <trkpt lat="44.54139" lon="1.96052">
        <ele>332</ele>
        <time>2017-09-19T13:36:48Z</time>
      </trkpt>
      <trkpt lat="44.54143" lon="1.96051">
        <ele>332</ele>
        <time>2017-09-19T13:36:52Z</time>
      </trkpt>
      <trkpt lat="44.5417" lon="1.96033">
        <ele>332</ele>
        <time>2017-09-19T13:37:13Z</time>
      </trkpt>
      <trkpt lat="44.54175" lon="1.96028">
        <ele>333</ele>
        <time>2017-09-19T13:37:20Z</time>
      </trkpt>
      <trkpt lat="44.54215" lon="1.95994">
        <ele>336</ele>
        <time>2017-09-19T13:37:50Z</time>
      </trkpt>
      <trkpt lat="44.54223" lon="1.95986">
        <ele>336</ele>
        <time>2017-09-19T13:37:57Z</time>
      </trkpt>
      <trkpt lat="44.54236" lon="1.95979">
        <ele>336</ele>
        <time>2017-09-19T13:38:08Z</time>
      </trkpt>
      <trkpt lat="44.54254" lon="1.95979">
        <ele>335</ele>
        <time>2017-09-19T13:38:23Z</time>
      </trkpt>
      <trkpt lat="44.54288" lon="1.95966">
        <ele>335</ele>
        <time>2017-09-19T13:38:49Z</time>
      </trkpt>
      <trkpt lat="44.54297" lon="1.95959">
        <ele>334</ele>
        <time>2017-09-19T13:38:59Z</time>
      </trkpt>
      <trkpt lat="44.54305" lon="1.95956">
        <ele>334</ele>
        <time>2017-09-19T13:39:05Z</time>
      </trkpt>
      <trkpt lat="44.54313" lon="1.95952">
        <ele>334</ele>
        <time>2017-09-19T13:39:52Z</time>
      </trkpt>
      <trkpt lat="44.54329" lon="1.95953">
        <ele>334</ele>
        <time>2017-09-19T13:40:18Z</time>
      </trkpt>
      <trkpt lat="44.54332" lon="1.95951">
        <ele>334</ele>
        <time>2017-09-19T13:40:21Z</time>
      </trkpt>
      <trkpt lat="44.54335" lon="1.9595">
        <ele>333</ele>
        <time>2017-09-19T13:40:24Z</time>
      </trkpt>
      <trkpt lat="44.54346" lon="1.95946">
        <ele>333</ele>
        <time>2017-09-19T13:40:33Z</time>
      </trkpt>
      <trkpt lat="44.54351" lon="1.95943">
        <ele>333</ele>
        <time>2017-09-19T13:40:38Z</time>
      </trkpt>
      <trkpt lat="44.54354" lon="1.95941">
        <ele>333</ele>
        <time>2017-09-19T13:40:41Z</time>
      </trkpt>
      <trkpt lat="44.54357" lon="1.95941">
        <ele>333</ele>
        <time>2017-09-19T13:40:44Z</time>
      </trkpt>
      <trkpt lat="44.54364" lon="1.95938">
        <ele>333</ele>
        <time>2017-09-19T13:40:49Z</time>
      </trkpt>
      <trkpt lat="44.54397" lon="1.95917">
        <ele>333</ele>
        <time>2017-09-19T13:41:19Z</time>
      </trkpt>
      <trkpt lat="44.54427" lon="1.95897">
        <ele>332</ele>
        <time>2017-09-19T13:41:49Z</time>
      </trkpt>
      <trkpt lat="44.54441" lon="1.95888">
        <ele>332</ele>
        <time>2017-09-19T13:42:02Z</time>
      </trkpt>
      <trkpt lat="44.54444" lon="1.95887">
        <ele>332</ele>
        <time>2017-09-19T13:42:05Z</time>
      </trkpt>
      <trkpt lat="44.5445" lon="1.95882">
        <ele>332</ele>
        <time>2017-09-19T13:42:11Z</time>
      </trkpt>
      <trkpt lat="44.54453" lon="1.9588">
        <ele>332</ele>
        <time>2017-09-19T13:42:15Z</time>
      </trkpt>
      <trkpt lat="44.54457" lon="1.95879">
        <ele>333</ele>
        <time>2017-09-19T13:42:18Z</time>
      </trkpt>
      <trkpt lat="44.5446" lon="1.95877">
        <ele>333</ele>
        <time>2017-09-19T13:42:20Z</time>
      </trkpt>
      <trkpt lat="44.54466" lon="1.95871">
        <ele>333</ele>
        <time>2017-09-19T13:42:24Z</time>
      </trkpt>
      <trkpt lat="44.54485" lon="1.95857">
        <ele>333</ele>
        <time>2017-09-19T13:42:43Z</time>
      </trkpt>
      <trkpt lat="44.54487" lon="1.95854">
        <ele>333</ele>
        <time>2017-09-19T13:42:46Z</time>
      </trkpt>
      <trkpt lat="44.5449" lon="1.95851">
        <ele>333</ele>
        <time>2017-09-19T13:42:50Z</time>
      </trkpt>
      <trkpt lat="44.54494" lon="1.95848">
        <ele>333</ele>
        <time>2017-09-19T13:42:55Z</time>
      </trkpt>
      <trkpt lat="44.54509" lon="1.95835">
        <ele>334</ele>
        <time>2017-09-19T13:43:10Z</time>
      </trkpt>
      <trkpt lat="44.54513" lon="1.95832">
        <ele>334</ele>
        <time>2017-09-19T13:43:14Z</time>
      </trkpt>
      <trkpt lat="44.54516" lon="1.95827">
        <ele>334</ele>
        <time>2017-09-19T13:43:19Z</time>
      </trkpt>
      <trkpt lat="44.54523" lon="1.95813">
        <ele>334</ele>
        <time>2017-09-19T13:43:29Z</time>
      </trkpt>
      <trkpt lat="44.54524" lon="1.95808">
        <ele>334</ele>
        <time>2017-09-19T13:43:32Z</time>
      </trkpt>
      <trkpt lat="44.54525" lon="1.95803">
        <ele>334</ele>
        <time>2017-09-19T13:43:35Z</time>
      </trkpt>
      <trkpt lat="44.5453" lon="1.95793">
        <ele>335</ele>
        <time>2017-09-19T13:43:42Z</time>
      </trkpt>
      <trkpt lat="44.54532" lon="1.95789">
        <ele>335</ele>
        <time>2017-09-19T13:43:44Z</time>
      </trkpt>
      <trkpt lat="44.54534" lon="1.95779">
        <ele>335</ele>
        <time>2017-09-19T13:43:51Z</time>
      </trkpt>
      <trkpt lat="44.54536" lon="1.95771">
        <ele>335</ele>
        <time>2017-09-19T13:43:55Z</time>
      </trkpt>
      <trkpt lat="44.54539" lon="1.95759">
        <ele>335</ele>
        <time>2017-09-19T13:44:03Z</time>
      </trkpt>
      <trkpt lat="44.54544" lon="1.95749">
        <ele>334</ele>
        <time>2017-09-19T13:44:09Z</time>
      </trkpt>
      <trkpt lat="44.54549" lon="1.95746">
        <ele>334</ele>
        <time>2017-09-19T13:44:12Z</time>
      </trkpt>
      <trkpt lat="44.54555" lon="1.95747">
        <ele>335</ele>
        <time>2017-09-19T13:44:23Z</time>
      </trkpt>
      <trkpt lat="44.54559" lon="1.95748">
        <ele>335</ele>
        <time>2017-09-19T13:44:27Z</time>
      </trkpt>
      <trkpt lat="44.54572" lon="1.95741">
        <ele>336</ele>
        <time>2017-09-19T13:44:38Z</time>
      </trkpt>
      <trkpt lat="44.54584" lon="1.95731">
        <ele>340</ele>
        <time>2017-09-19T13:44:50Z</time>
      </trkpt>
      <trkpt lat="44.54587" lon="1.95727">
        <ele>340</ele>
        <time>2017-09-19T13:44:53Z</time>
      </trkpt>
      <trkpt lat="44.54594" lon="1.95718">
        <ele>340</ele>
        <time>2017-09-19T13:45:00Z</time>
      </trkpt>
      <trkpt lat="44.54597" lon="1.95714">
        <ele>341</ele>
        <time>2017-09-19T13:45:03Z</time>
      </trkpt>
      <trkpt lat="44.54603" lon="1.95707">
        <ele>341</ele>
        <time>2017-09-19T13:45:09Z</time>
      </trkpt>
      <trkpt lat="44.54606" lon="1.95703">
        <ele>341</ele>
        <time>2017-09-19T13:45:13Z</time>
      </trkpt>
      <trkpt lat="44.5461" lon="1.95701">
        <ele>341</ele>
        <time>2017-09-19T13:45:17Z</time>
      </trkpt>
      <trkpt lat="44.54627" lon="1.95711">
        <ele>342</ele>
        <time>2017-09-19T13:45:34Z</time>
      </trkpt>
      <trkpt lat="44.54636" lon="1.95715">
        <ele>342</ele>
        <time>2017-09-19T13:45:42Z</time>
      </trkpt>
      <trkpt lat="44.54659" lon="1.95703">
        <ele>343</ele>
        <time>2017-09-19T13:46:05Z</time>
      </trkpt>
      <trkpt lat="44.54671" lon="1.95688">
        <ele>346</ele>
        <time>2017-09-19T13:46:21Z</time>
      </trkpt>
      <trkpt lat="44.54679" lon="1.95681">
        <ele>346</ele>
        <time>2017-09-19T13:46:30Z</time>
      </trkpt>
      <trkpt lat="44.54686" lon="1.95672">
        <ele>346</ele>
        <time>2017-09-19T13:46:41Z</time>
      </trkpt>
      <trkpt lat="44.54702" lon="1.95657">
        <ele>348</ele>
        <time>2017-09-19T13:46:58Z</time>
      </trkpt>
      <trkpt lat="44.54717" lon="1.95647">
        <ele>348</ele>
        <time>2017-09-19T13:47:12Z</time>
      </trkpt>
      <trkpt lat="44.54721" lon="1.95644">
        <ele>348</ele>
        <time>2017-09-19T13:47:16Z</time>
      </trkpt>
      <trkpt lat="44.54725" lon="1.9564">
        <ele>349</ele>
        <time>2017-09-19T13:47:19Z</time>
      </trkpt>
      <trkpt lat="44.54728" lon="1.95638">
        <ele>349</ele>
        <time>2017-09-19T13:47:23Z</time>
      </trkpt>
      <trkpt lat="44.54732" lon="1.95634">
        <ele>349</ele>
        <time>2017-09-19T13:47:27Z</time>
      </trkpt>
      <trkpt lat="44.54745" lon="1.95616">
        <ele>350</ele>
        <time>2017-09-19T13:47:41Z</time>
      </trkpt>
      <trkpt lat="44.54756" lon="1.95605">
        <ele>352</ele>
        <time>2017-09-19T13:47:53Z</time>
      </trkpt>
      <trkpt lat="44.54759" lon="1.95601">
        <ele>352</ele>
        <time>2017-09-19T13:47:58Z</time>
      </trkpt>
      <trkpt lat="44.54766" lon="1.95594">
        <ele>352</ele>
        <time>2017-09-19T13:48:04Z</time>
      </trkpt>
      <trkpt lat="44.54769" lon="1.95591">
        <ele>352</ele>
        <time>2017-09-19T13:48:08Z</time>
      </trkpt>
      <trkpt lat="44.54776" lon="1.95586">
        <ele>352</ele>
        <time>2017-09-19T13:48:14Z</time>
      </trkpt>
      <trkpt lat="44.54783" lon="1.95576">
        <ele>356</ele>
        <time>2017-09-19T13:48:22Z</time>
      </trkpt>
      <trkpt lat="44.54793" lon="1.95557">
        <ele>357</ele>
        <time>2017-09-19T13:48:37Z</time>
      </trkpt>
      <trkpt lat="44.54796" lon="1.95554">
        <ele>358</ele>
        <time>2017-09-19T13:48:41Z</time>
      </trkpt>
      <trkpt lat="44.54805" lon="1.95551">
        <ele>358</ele>
        <time>2017-09-19T13:48:49Z</time>
      </trkpt>
      <trkpt lat="44.54844" lon="1.95536">
        <ele>360</ele>
        <time>2017-09-19T13:49:22Z</time>
      </trkpt>
      <trkpt lat="44.54881" lon="1.95522">
        <ele>360</ele>
        <time>2017-09-19T13:49:52Z</time>
      </trkpt>
      <trkpt lat="44.54885" lon="1.9552">
        <ele>360</ele>
        <time>2017-09-19T13:49:57Z</time>
      </trkpt>
      <trkpt lat="44.5489" lon="1.95518">
        <ele>360</ele>
        <time>2017-09-19T13:50:02Z</time>
      </trkpt>
      <trkpt lat="44.54895" lon="1.95516">
        <ele>360</ele>
        <time>2017-09-19T13:50:06Z</time>
      </trkpt>
      <trkpt lat="44.54898" lon="1.95513">
        <ele>360</ele>
        <time>2017-09-19T13:50:09Z</time>
      </trkpt>
      <trkpt lat="44.54911" lon="1.95506">
        <ele>361</ele>
        <time>2017-09-19T13:50:19Z</time>
      </trkpt>
      <trkpt lat="44.54931" lon="1.95496">
        <ele>364</ele>
        <time>2017-09-19T13:50:35Z</time>
      </trkpt>
      <trkpt lat="44.54934" lon="1.95495">
        <ele>365</ele>
        <time>2017-09-19T13:50:39Z</time>
      </trkpt>
      <trkpt lat="44.54938" lon="1.95493">
        <ele>365</ele>
        <time>2017-09-19T13:50:43Z</time>
      </trkpt>
      <trkpt lat="44.54952" lon="1.95491">
        <ele>365</ele>
        <time>2017-09-19T13:50:54Z</time>
      </trkpt>
      <trkpt lat="44.54957" lon="1.95492">
        <ele>365</ele>
        <time>2017-09-19T13:50:58Z</time>
      </trkpt>
      <trkpt lat="44.54977" lon="1.9549">
        <ele>365</ele>
        <time>2017-09-19T13:51:14Z</time>
      </trkpt>
      <trkpt lat="44.54982" lon="1.9549">
        <ele>365</ele>
        <time>2017-09-19T13:51:18Z</time>
      </trkpt>
      <trkpt lat="44.54986" lon="1.95489">
        <ele>365</ele>
        <time>2017-09-19T13:51:22Z</time>
      </trkpt>
      <trkpt lat="44.55001" lon="1.95488">
        <ele>364</ele>
        <time>2017-09-19T13:51:34Z</time>
      </trkpt>
      <trkpt lat="44.5501" lon="1.95487">
        <ele>364</ele>
        <time>2017-09-19T13:51:41Z</time>
      </trkpt>
      <trkpt lat="44.55014" lon="1.95487">
        <ele>365</ele>
        <time>2017-09-19T13:51:45Z</time>
      </trkpt>
      <trkpt lat="44.55018" lon="1.95488">
        <ele>365</ele>
        <time>2017-09-19T13:51:48Z</time>
      </trkpt>
      <trkpt lat="44.55024" lon="1.95485">
        <ele>365</ele>
        <time>2017-09-19T13:51:53Z</time>
      </trkpt>
      <trkpt lat="44.55028" lon="1.95484">
        <ele>365</ele>
        <time>2017-09-19T13:51:56Z</time>
      </trkpt>
      <trkpt lat="44.55058" lon="1.9547">
        <ele>366</ele>
        <time>2017-09-19T13:52:21Z</time>
      </trkpt>
      <trkpt lat="44.55063" lon="1.95469">
        <ele>366</ele>
        <time>2017-09-19T13:52:25Z</time>
      </trkpt>
      <trkpt lat="44.55071" lon="1.95469">
        <ele>366</ele>
        <time>2017-09-19T13:52:33Z</time>
      </trkpt>
      <trkpt lat="44.55076" lon="1.95473">
        <ele>366</ele>
        <time>2017-09-19T13:52:38Z</time>
      </trkpt>
      <trkpt lat="44.55119" lon="1.95502">
        <ele>366</ele>
        <time>2017-09-19T13:53:10Z</time>
      </trkpt>
      <trkpt lat="44.55121" lon="1.95507">
        <ele>366</ele>
        <time>2017-09-19T13:53:14Z</time>
      </trkpt>
      <trkpt lat="44.55124" lon="1.9551">
        <ele>366</ele>
        <time>2017-09-19T13:53:17Z</time>
      </trkpt>
      <trkpt lat="44.55126" lon="1.95515">
        <ele>366</ele>
        <time>2017-09-19T13:53:20Z</time>
      </trkpt>
      <trkpt lat="44.55146" lon="1.95536">
        <ele>366</ele>
        <time>2017-09-19T13:53:40Z</time>
      </trkpt>
      <trkpt lat="44.55151" lon="1.95541">
        <ele>366</ele>
        <time>2017-09-19T13:53:45Z</time>
      </trkpt>
      <trkpt lat="44.55155" lon="1.95542">
        <ele>366</ele>
        <time>2017-09-19T13:53:49Z</time>
      </trkpt>
      <trkpt lat="44.55159" lon="1.95542">
        <ele>366</ele>
        <time>2017-09-19T13:53:52Z</time>
      </trkpt>
      <trkpt lat="44.55164" lon="1.95539">
        <ele>366</ele>
        <time>2017-09-19T13:53:56Z</time>
      </trkpt>
      <trkpt lat="44.55167" lon="1.95537">
        <ele>369</ele>
        <time>2017-09-19T13:53:59Z</time>
      </trkpt>
      <trkpt lat="44.55182" lon="1.9553">
        <ele>369</ele>
        <time>2017-09-19T13:54:13Z</time>
      </trkpt>
      <trkpt lat="44.55184" lon="1.9553">
        <ele>369</ele>
        <time>2017-09-19T13:54:33Z</time>
      </trkpt>
      <trkpt lat="44.55186" lon="1.95528">
        <ele>369</ele>
        <time>2017-09-19T13:54:44Z</time>
      </trkpt>
      <trkpt lat="44.55192" lon="1.95524">
        <ele>369</ele>
        <time>2017-09-19T13:54:51Z</time>
      </trkpt>
      <trkpt lat="44.55194" lon="1.95523">
        <ele>369</ele>
        <time>2017-09-19T13:54:53Z</time>
      </trkpt>
      <trkpt lat="44.55196" lon="1.95523">
        <ele>369</ele>
        <time>2017-09-19T13:54:55Z</time>
      </trkpt>
      <trkpt lat="44.55216" lon="1.95524">
        <ele>369</ele>
        <time>2017-09-19T13:55:12Z</time>
      </trkpt>
      <trkpt lat="44.5522" lon="1.95525">
        <ele>370</ele>
        <time>2017-09-19T13:55:16Z</time>
      </trkpt>
      <trkpt lat="44.55229" lon="1.9553">
        <ele>370</ele>
        <time>2017-09-19T13:55:26Z</time>
      </trkpt>
      <trkpt lat="44.55233" lon="1.95528">
        <ele>370</ele>
        <time>2017-09-19T13:55:28Z</time>
      </trkpt>
      <trkpt lat="44.55241" lon="1.95527">
        <ele>370</ele>
        <time>2017-09-19T13:55:34Z</time>
      </trkpt>
      <trkpt lat="44.5526" lon="1.95531">
        <ele>370</ele>
        <time>2017-09-19T13:55:50Z</time>
      </trkpt>
      <trkpt lat="44.55268" lon="1.9553">
        <ele>370</ele>
        <time>2017-09-19T13:55:56Z</time>
      </trkpt>
      <trkpt lat="44.55278" lon="1.95533">
        <ele>371</ele>
        <time>2017-09-19T13:56:04Z</time>
      </trkpt>
      <trkpt lat="44.55292" lon="1.95533">
        <ele>370</ele>
        <time>2017-09-19T13:56:16Z</time>
      </trkpt>
      <trkpt lat="44.55295" lon="1.95534">
        <ele>370</ele>
        <time>2017-09-19T13:56:19Z</time>
      </trkpt>
      <trkpt lat="44.55299" lon="1.95535">
        <ele>370</ele>
        <time>2017-09-19T13:56:22Z</time>
      </trkpt>
      <trkpt lat="44.55302" lon="1.95536">
        <ele>370</ele>
        <time>2017-09-19T13:56:25Z</time>
      </trkpt>
      <trkpt lat="44.55305" lon="1.95537">
        <ele>370</ele>
        <time>2017-09-19T13:56:28Z</time>
      </trkpt>
      <trkpt lat="44.55309" lon="1.95538">
        <ele>371</ele>
        <time>2017-09-19T13:56:32Z</time>
      </trkpt>
      <trkpt lat="44.55313" lon="1.95539">
        <ele>371</ele>
        <time>2017-09-19T13:56:35Z</time>
      </trkpt>
      <trkpt lat="44.55325" lon="1.95543">
        <ele>371</ele>
        <time>2017-09-19T13:56:45Z</time>
      </trkpt>
      <trkpt lat="44.55329" lon="1.95544">
        <ele>371</ele>
        <time>2017-09-19T13:56:48Z</time>
      </trkpt>
      <trkpt lat="44.55333" lon="1.95546">
        <ele>371</ele>
        <time>2017-09-19T13:56:52Z</time>
      </trkpt>
      <trkpt lat="44.55341" lon="1.95551">
        <ele>370</ele>
        <time>2017-09-19T13:57:00Z</time>
      </trkpt>
      <trkpt lat="44.55358" lon="1.95556">
        <ele>370</ele>
        <time>2017-09-19T13:57:14Z</time>
      </trkpt>
      <trkpt lat="44.55366" lon="1.95559">
        <ele>369</ele>
        <time>2017-09-19T13:57:24Z</time>
      </trkpt>
      <trkpt lat="44.55375" lon="1.95558">
        <ele>369</ele>
        <time>2017-09-19T13:57:34Z</time>
      </trkpt>
      <trkpt lat="44.55396" lon="1.95557">
        <ele>369</ele>
        <time>2017-09-19T13:57:49Z</time>
      </trkpt>
      <trkpt lat="44.55399" lon="1.95557">
        <ele>369</ele>
        <time>2017-09-19T13:57:51Z</time>
      </trkpt>
      <trkpt lat="44.55403" lon="1.95558">
        <ele>369</ele>
        <time>2017-09-19T13:57:54Z</time>
      </trkpt>
      <trkpt lat="44.55404" lon="1.95559">
        <ele>369</ele>
        <time>2017-09-19T13:57:57Z</time>
      </trkpt>
      <trkpt lat="44.55412" lon="1.95557">
        <ele>368</ele>
        <time>2017-09-19T13:58:03Z</time>
      </trkpt>
      <trkpt lat="44.55424" lon="1.95547">
        <ele>365</ele>
        <time>2017-09-19T13:58:13Z</time>
      </trkpt>
      <trkpt lat="44.55427" lon="1.95545">
        <ele>365</ele>
        <time>2017-09-19T13:58:15Z</time>
      </trkpt>
      <trkpt lat="44.55447" lon="1.95529">
        <ele>364</ele>
        <time>2017-09-19T13:58:34Z</time>
      </trkpt>
      <trkpt lat="44.55449" lon="1.95526">
        <ele>364</ele>
        <time>2017-09-19T13:58:36Z</time>
      </trkpt>
      <trkpt lat="44.55453" lon="1.95516">
        <ele>364</ele>
        <time>2017-09-19T13:58:43Z</time>
      </trkpt>
      <trkpt lat="44.5547" lon="1.95487">
        <ele>364</ele>
        <time>2017-09-19T13:59:05Z</time>
      </trkpt>
      <trkpt lat="44.55473" lon="1.95483">
        <ele>364</ele>
        <time>2017-09-19T13:59:15Z</time>
      </trkpt>
      <trkpt lat="44.55476" lon="1.95479">
        <ele>364</ele>
        <time>2017-09-19T13:59:19Z</time>
      </trkpt>
      <trkpt lat="44.55483" lon="1.95472">
        <ele>364</ele>
        <time>2017-09-19T13:59:27Z</time>
      </trkpt>
      <trkpt lat="44.55486" lon="1.95468">
        <ele>364</ele>
        <time>2017-09-19T13:59:30Z</time>
      </trkpt>
      <trkpt lat="44.55488" lon="1.95464">
        <ele>364</ele>
        <time>2017-09-19T13:59:34Z</time>
      </trkpt>
      <trkpt lat="44.55492" lon="1.95457">
        <ele>364</ele>
        <time>2017-09-19T13:59:39Z</time>
      </trkpt>
      <trkpt lat="44.55495" lon="1.9545">
        <ele>364</ele>
        <time>2017-09-19T13:59:43Z</time>
      </trkpt>
      <trkpt lat="44.55499" lon="1.95446">
        <ele>365</ele>
        <time>2017-09-19T13:59:47Z</time>
      </trkpt>
      <trkpt lat="44.55508" lon="1.95426">
        <ele>366</ele>
        <time>2017-09-19T14:00:00Z</time>
      </trkpt>
      <trkpt lat="44.55512" lon="1.95422">
        <ele>366</ele>
        <time>2017-09-19T14:00:04Z</time>
      </trkpt>
      <trkpt lat="44.55515" lon="1.95417">
        <ele>366</ele>
        <time>2017-09-19T14:00:08Z</time>
      </trkpt>
      <trkpt lat="44.55518" lon="1.9541">
        <ele>368</ele>
        <time>2017-09-19T14:00:12Z</time>
      </trkpt>
      <trkpt lat="44.55521" lon="1.95404">
        <ele>369</ele>
        <time>2017-09-19T14:00:17Z</time>
      </trkpt>
      <trkpt lat="44.55537" lon="1.95384">
        <ele>369</ele>
        <time>2017-09-19T14:00:37Z</time>
      </trkpt>
      <trkpt lat="44.55542" lon="1.95372">
        <ele>370</ele>
        <time>2017-09-19T14:00:46Z</time>
      </trkpt>
      <trkpt lat="44.55546" lon="1.95368">
        <ele>370</ele>
        <time>2017-09-19T14:00:50Z</time>
      </trkpt>
      <trkpt lat="44.55549" lon="1.95364">
        <ele>370</ele>
        <time>2017-09-19T14:00:54Z</time>
      </trkpt>
      <trkpt lat="44.55556" lon="1.95356">
        <ele>371</ele>
        <time>2017-09-19T14:01:01Z</time>
      </trkpt>
      <trkpt lat="44.55558" lon="1.9535">
        <ele>371</ele>
        <time>2017-09-19T14:01:05Z</time>
      </trkpt>
      <trkpt lat="44.55564" lon="1.95339">
        <ele>372</ele>
        <time>2017-09-19T14:01:13Z</time>
      </trkpt>
      <trkpt lat="44.55589" lon="1.95311">
        <ele>376</ele>
        <time>2017-09-19T14:01:41Z</time>
      </trkpt>
      <trkpt lat="44.55618" lon="1.95283">
        <ele>376</ele>
        <time>2017-09-19T14:02:09Z</time>
      </trkpt>
      <trkpt lat="44.55621" lon="1.95279">
        <ele>376</ele>
        <time>2017-09-19T14:02:12Z</time>
      </trkpt>
      <trkpt lat="44.55634" lon="1.95269">
        <ele>376</ele>
        <time>2017-09-19T14:02:26Z</time>
      </trkpt>
      <trkpt lat="44.55641" lon="1.95264">
        <ele>377</ele>
        <time>2017-09-19T14:02:32Z</time>
      </trkpt>
      <trkpt lat="44.55648" lon="1.95257">
        <ele>377</ele>
        <time>2017-09-19T14:02:39Z</time>
      </trkpt>
      <trkpt lat="44.55658" lon="1.95249">
        <ele>378</ele>
        <time>2017-09-19T14:02:47Z</time>
      </trkpt>
      <trkpt lat="44.5566" lon="1.95243">
        <ele>378</ele>
        <time>2017-09-19T14:02:52Z</time>
      </trkpt>
      <trkpt lat="44.55674" lon="1.95232">
        <ele>377</ele>
        <time>2017-09-19T14:03:05Z</time>
      </trkpt>
      <trkpt lat="44.55679" lon="1.95227">
        <ele>376</ele>
        <time>2017-09-19T14:03:15Z</time>
      </trkpt>
      <trkpt lat="44.5569" lon="1.95219">
        <ele>376</ele>
        <time>2017-09-19T14:03:25Z</time>
      </trkpt>
      <trkpt lat="44.55695" lon="1.95214">
        <ele>375</ele>
        <time>2017-09-19T14:03:29Z</time>
      </trkpt>
      <trkpt lat="44.55705" lon="1.95208">
        <ele>375</ele>
        <time>2017-09-19T14:03:38Z</time>
      </trkpt>
      <trkpt lat="44.55723" lon="1.9519">
        <ele>374</ele>
        <time>2017-09-19T14:03:55Z</time>
      </trkpt>
      <trkpt lat="44.5573" lon="1.95186">
        <ele>374</ele>
        <time>2017-09-19T14:04:00Z</time>
      </trkpt>
      <trkpt lat="44.55747" lon="1.9517">
        <ele>373</ele>
        <time>2017-09-19T14:04:15Z</time>
      </trkpt>
      <trkpt lat="44.55752" lon="1.95164">
        <ele>373</ele>
        <time>2017-09-19T14:04:18Z</time>
      </trkpt>
      <trkpt lat="44.55768" lon="1.95151">
        <ele>371</ele>
        <time>2017-09-19T14:04:31Z</time>
      </trkpt>
      <trkpt lat="44.55771" lon="1.9515">
        <ele>371</ele>
        <time>2017-09-19T14:04:35Z</time>
      </trkpt>
      <trkpt lat="44.55777" lon="1.95144">
        <ele>371</ele>
        <time>2017-09-19T14:04:41Z</time>
      </trkpt>
      <trkpt lat="44.5578" lon="1.95142">
        <ele>371</ele>
        <time>2017-09-19T14:04:43Z</time>
      </trkpt>
      <trkpt lat="44.55782" lon="1.9514">
        <ele>371</ele>
        <time>2017-09-19T14:04:45Z</time>
      </trkpt>
      <trkpt lat="44.55784" lon="1.95137">
        <ele>371</ele>
        <time>2017-09-19T14:04:47Z</time>
      </trkpt>
      <trkpt lat="44.55786" lon="1.95131">
        <ele>371</ele>
        <time>2017-09-19T14:04:51Z</time>
      </trkpt>
      <trkpt lat="44.55787" lon="1.95129">
        <ele>371</ele>
        <time>2017-09-19T14:04:55Z</time>
      </trkpt>
      <trkpt lat="44.55789" lon="1.95126">
        <ele>371</ele>
        <time>2017-09-19T14:04:57Z</time>
      </trkpt>
      <trkpt lat="44.5579" lon="1.9512">
        <ele>371</ele>
        <time>2017-09-19T14:05:01Z</time>
      </trkpt>
      <trkpt lat="44.55793" lon="1.95114">
        <ele>371</ele>
        <time>2017-09-19T14:05:05Z</time>
      </trkpt>
      <trkpt lat="44.55796" lon="1.95109">
        <ele>371</ele>
        <time>2017-09-19T14:05:10Z</time>
      </trkpt>
      <trkpt lat="44.55801" lon="1.95104">
        <ele>371</ele>
        <time>2017-09-19T14:05:16Z</time>
      </trkpt>
      <trkpt lat="44.55803" lon="1.95101">
        <ele>371</ele>
        <time>2017-09-19T14:05:18Z</time>
      </trkpt>
      <trkpt lat="44.55804" lon="1.95099">
        <ele>371</ele>
        <time>2017-09-19T14:05:20Z</time>
      </trkpt>
      <trkpt lat="44.55804" lon="1.95095">
        <ele>371</ele>
        <time>2017-09-19T14:05:29Z</time>
      </trkpt>
      <trkpt lat="44.55807" lon="1.95092">
        <ele>371</ele>
        <time>2017-09-19T14:05:32Z</time>
      </trkpt>
      <trkpt lat="44.5581" lon="1.95089">
        <ele>371</ele>
        <time>2017-09-19T14:05:35Z</time>
      </trkpt>
      <trkpt lat="44.55816" lon="1.95077">
        <ele>370</ele>
        <time>2017-09-19T14:05:43Z</time>
      </trkpt>
      <trkpt lat="44.55826" lon="1.95057">
        <ele>370</ele>
        <time>2017-09-19T14:05:57Z</time>
      </trkpt>
      <trkpt lat="44.55836" lon="1.9504">
        <ele>369</ele>
        <time>2017-09-19T14:06:10Z</time>
      </trkpt>
      <trkpt lat="44.55842" lon="1.95028">
        <ele>369</ele>
        <time>2017-09-19T14:06:18Z</time>
      </trkpt>
      <trkpt lat="44.55848" lon="1.95016">
        <ele>369</ele>
        <time>2017-09-19T14:06:27Z</time>
      </trkpt>
      <trkpt lat="44.55865" lon="1.94988">
        <ele>368</ele>
        <time>2017-09-19T14:06:49Z</time>
      </trkpt>
      <trkpt lat="44.55874" lon="1.94946">
        <ele>367</ele>
        <time>2017-09-19T14:07:14Z</time>
      </trkpt>
      <trkpt lat="44.55877" lon="1.94935">
        <ele>367</ele>
        <time>2017-09-19T14:07:21Z</time>
      </trkpt>
      <trkpt lat="44.55884" lon="1.94908">
        <ele>365</ele>
        <time>2017-09-19T14:07:36Z</time>
      </trkpt>
      <trkpt lat="44.55885" lon="1.94903">
        <ele>365</ele>
        <time>2017-09-19T14:07:39Z</time>
      </trkpt>
      <trkpt lat="44.55888" lon="1.94899">
        <ele>365</ele>
        <time>2017-09-19T14:07:42Z</time>
      </trkpt>
      <trkpt lat="44.55897" lon="1.94877">
        <ele>365</ele>
        <time>2017-09-19T14:07:56Z</time>
      </trkpt>
      <trkpt lat="44.55903" lon="1.94849">
        <ele>364</ele>
        <time>2017-09-19T14:08:12Z</time>
      </trkpt>
      <trkpt lat="44.55904" lon="1.94839">
        <ele>364</ele>
        <time>2017-09-19T14:08:18Z</time>
      </trkpt>
      <trkpt lat="44.55903" lon="1.94813">
        <ele>363</ele>
        <time>2017-09-19T14:08:34Z</time>
      </trkpt>
      <trkpt lat="44.55902" lon="1.94804">
        <ele>363</ele>
        <time>2017-09-19T14:08:41Z</time>
      </trkpt>
      <trkpt lat="44.55902" lon="1.94799">
        <ele>363</ele>
        <time>2017-09-19T14:08:44Z</time>
      </trkpt>
      <trkpt lat="44.559" lon="1.94769">
        <ele>364</ele>
        <time>2017-09-19T14:09:06Z</time>
      </trkpt>
      <trkpt lat="44.55903" lon="1.94729">
        <ele>365</ele>
        <time>2017-09-19T14:09:31Z</time>
      </trkpt>
      <trkpt lat="44.55904" lon="1.94724">
        <ele>365</ele>
        <time>2017-09-19T14:09:34Z</time>
      </trkpt>
      <trkpt lat="44.55907" lon="1.94716">
        <ele>365</ele>
        <time>2017-09-19T14:09:39Z</time>
      </trkpt>
      <trkpt lat="44.55908" lon="1.94711">
        <ele>365</ele>
        <time>2017-09-19T14:09:43Z</time>
      </trkpt>
      <trkpt lat="44.55909" lon="1.94706">
        <ele>365</ele>
        <time>2017-09-19T14:09:46Z</time>
      </trkpt>
      <trkpt lat="44.55912" lon="1.94702">
        <ele>365</ele>
        <time>2017-09-19T14:09:49Z</time>
      </trkpt>
      <trkpt lat="44.55923" lon="1.94703">
        <ele>365</ele>
        <time>2017-09-19T14:10:01Z</time>
      </trkpt>
      <trkpt lat="44.55928" lon="1.94702">
        <ele>365</ele>
        <time>2017-09-19T14:10:05Z</time>
      </trkpt>
      <trkpt lat="44.5593" lon="1.94697">
        <ele>365</ele>
        <time>2017-09-19T14:10:09Z</time>
      </trkpt>
      <trkpt lat="44.55934" lon="1.94692">
        <ele>366</ele>
        <time>2017-09-19T14:10:13Z</time>
      </trkpt>
      <trkpt lat="44.55936" lon="1.94688">
        <ele>366</ele>
        <time>2017-09-19T14:10:17Z</time>
      </trkpt>
      <trkpt lat="44.55962" lon="1.94648">
        <ele>367</ele>
        <time>2017-09-19T14:10:47Z</time>
      </trkpt>
      <trkpt lat="44.55967" lon="1.9464">
        <ele>367</ele>
        <time>2017-09-19T14:10:53Z</time>
      </trkpt>
      <trkpt lat="44.55985" lon="1.94607">
        <ele>367</ele>
        <time>2017-09-19T14:11:20Z</time>
      </trkpt>
      <trkpt lat="44.55991" lon="1.94598">
        <ele>367</ele>
        <time>2017-09-19T14:11:34Z</time>
      </trkpt>
      <trkpt lat="44.55994" lon="1.94594">
        <ele>368</ele>
        <time>2017-09-19T14:11:38Z</time>
      </trkpt>
      <trkpt lat="44.55997" lon="1.94591">
        <ele>368</ele>
        <time>2017-09-19T14:11:42Z</time>
      </trkpt>
      <trkpt lat="44.56" lon="1.94588">
        <ele>368</ele>
        <time>2017-09-19T14:11:46Z</time>
      </trkpt>
      <trkpt lat="44.56002" lon="1.94585">
        <ele>367</ele>
        <time>2017-09-19T14:11:49Z</time>
      </trkpt>
      <trkpt lat="44.56012" lon="1.94577">
        <ele>367</ele>
        <time>2017-09-19T14:12:02Z</time>
      </trkpt>
      <trkpt lat="44.56015" lon="1.94576">
        <ele>367</ele>
        <time>2017-09-19T14:12:05Z</time>
      </trkpt>
      <trkpt lat="44.56022" lon="1.9457">
        <ele>367</ele>
        <time>2017-09-19T14:12:14Z</time>
      </trkpt>
      <trkpt lat="44.56035" lon="1.94556">
        <ele>366</ele>
        <time>2017-09-19T14:12:28Z</time>
      </trkpt>
      <trkpt lat="44.56038" lon="1.94552">
        <ele>366</ele>
        <time>2017-09-19T14:12:32Z</time>
      </trkpt>
      <trkpt lat="44.56041" lon="1.94549">
        <ele>366</ele>
        <time>2017-09-19T14:12:35Z</time>
      </trkpt>
      <trkpt lat="44.56045" lon="1.94546">
        <ele>366</ele>
        <time>2017-09-19T14:12:39Z</time>
      </trkpt>
      <trkpt lat="44.56052" lon="1.94539">
        <ele>366</ele>
        <time>2017-09-19T14:12:46Z</time>
      </trkpt>
      <trkpt lat="44.56056" lon="1.94535">
        <ele>366</ele>
        <time>2017-09-19T14:12:50Z</time>
      </trkpt>
      <trkpt lat="44.56061" lon="1.94528">
        <ele>367</ele>
        <time>2017-09-19T14:12:56Z</time>
      </trkpt>
      <trkpt lat="44.56064" lon="1.94523">
        <ele>367</ele>
        <time>2017-09-19T14:13:00Z</time>
      </trkpt>
      <trkpt lat="44.56067" lon="1.9452">
        <ele>367</ele>
        <time>2017-09-19T14:13:03Z</time>
      </trkpt>
      <trkpt lat="44.56082" lon="1.94505">
        <ele>368</ele>
        <time>2017-09-19T14:13:20Z</time>
      </trkpt>
      <trkpt lat="44.56101" lon="1.94489">
        <ele>366</ele>
        <time>2017-09-19T14:13:38Z</time>
      </trkpt>
      <trkpt lat="44.56104" lon="1.94486">
        <ele>366</ele>
        <time>2017-09-19T14:13:41Z</time>
      </trkpt>
      <trkpt lat="44.56107" lon="1.94483">
        <ele>366</ele>
        <time>2017-09-19T14:13:44Z</time>
      </trkpt>
      <trkpt lat="44.56111" lon="1.9448">
        <ele>366</ele>
        <time>2017-09-19T14:13:47Z</time>
      </trkpt>
      <trkpt lat="44.56113" lon="1.94477">
        <ele>365</ele>
        <time>2017-09-19T14:13:50Z</time>
      </trkpt>
      <trkpt lat="44.56117" lon="1.94473">
        <ele>365</ele>
        <time>2017-09-19T14:13:53Z</time>
      </trkpt>
      <trkpt lat="44.5612" lon="1.94469">
        <ele>365</ele>
        <time>2017-09-19T14:13:57Z</time>
      </trkpt>
      <trkpt lat="44.56125" lon="1.94462">
        <ele>365</ele>
        <time>2017-09-19T14:14:04Z</time>
      </trkpt>
      <trkpt lat="44.56127" lon="1.94458">
        <ele>365</ele>
        <time>2017-09-19T14:14:07Z</time>
      </trkpt>
      <trkpt lat="44.56131" lon="1.94454">
        <ele>365</ele>
        <time>2017-09-19T14:14:10Z</time>
      </trkpt>
      <trkpt lat="44.56142" lon="1.94453">
        <ele>365</ele>
        <time>2017-09-19T14:14:22Z</time>
      </trkpt>
      <trkpt lat="44.56158" lon="1.94445">
        <ele>365</ele>
        <time>2017-09-19T14:14:36Z</time>
      </trkpt>
      <trkpt lat="44.56164" lon="1.94439">
        <ele>365</ele>
        <time>2017-09-19T14:14:42Z</time>
      </trkpt>
      <trkpt lat="44.56173" lon="1.94421">
        <ele>364</ele>
        <time>2017-09-19T14:14:56Z</time>
      </trkpt>
      <trkpt lat="44.56176" lon="1.94411">
        <ele>365</ele>
        <time>2017-09-19T14:15:03Z</time>
      </trkpt>
      <trkpt lat="44.56178" lon="1.94406">
        <ele>365</ele>
        <time>2017-09-19T14:15:06Z</time>
      </trkpt>
      <trkpt lat="44.5618" lon="1.94401">
        <ele>364</ele>
        <time>2017-09-19T14:15:10Z</time>
      </trkpt>
      <trkpt lat="44.56182" lon="1.94397">
        <ele>364</ele>
        <time>2017-09-19T14:15:14Z</time>
      </trkpt>
      <trkpt lat="44.56185" lon="1.94392">
        <ele>364</ele>
        <time>2017-09-19T14:15:17Z</time>
      </trkpt>
      <trkpt lat="44.56188" lon="1.94382">
        <ele>364</ele>
        <time>2017-09-19T14:15:22Z</time>
      </trkpt>
      <trkpt lat="44.5619" lon="1.94378">
        <ele>364</ele>
        <time>2017-09-19T14:15:25Z</time>
      </trkpt>
      <trkpt lat="44.56193" lon="1.94376">
        <ele>364</ele>
        <time>2017-09-19T14:15:29Z</time>
      </trkpt>
      <trkpt lat="44.56196" lon="1.94373">
        <ele>364</ele>
        <time>2017-09-19T14:15:33Z</time>
      </trkpt>
      <trkpt lat="44.56198" lon="1.9437">
        <ele>364</ele>
        <time>2017-09-19T14:15:37Z</time>
      </trkpt>
      <trkpt lat="44.562" lon="1.94366">
        <ele>364</ele>
        <time>2017-09-19T14:15:43Z</time>
      </trkpt>
      <trkpt lat="44.56202" lon="1.94361">
        <ele>364</ele>
        <time>2017-09-19T14:15:45Z</time>
      </trkpt>
      <trkpt lat="44.56203" lon="1.94355">
        <ele>364</ele>
        <time>2017-09-19T14:15:48Z</time>
      </trkpt>
      <trkpt lat="44.56205" lon="1.94349">
        <ele>364</ele>
        <time>2017-09-19T14:15:53Z</time>
      </trkpt>
      <trkpt lat="44.56205" lon="1.94343">
        <ele>364</ele>
        <time>2017-09-19T14:15:56Z</time>
      </trkpt>
      <trkpt lat="44.56207" lon="1.94329">
        <ele>365</ele>
        <time>2017-09-19T14:16:03Z</time>
      </trkpt>
      <trkpt lat="44.56214" lon="1.94302">
        <ele>364</ele>
        <time>2017-09-19T14:16:21Z</time>
      </trkpt>
      <trkpt lat="44.56215" lon="1.94298">
        <ele>364</ele>
        <time>2017-09-19T14:16:24Z</time>
      </trkpt>
      <trkpt lat="44.56216" lon="1.94293">
        <ele>364</ele>
        <time>2017-09-19T14:16:27Z</time>
      </trkpt>
      <trkpt lat="44.56217" lon="1.94289">
        <ele>364</ele>
        <time>2017-09-19T14:16:30Z</time>
      </trkpt>
      <trkpt lat="44.56219" lon="1.94279">
        <ele>364</ele>
        <time>2017-09-19T14:16:37Z</time>
      </trkpt>
      <trkpt lat="44.5622" lon="1.94275">
        <ele>364</ele>
        <time>2017-09-19T14:16:40Z</time>
      </trkpt>
      <trkpt lat="44.56221" lon="1.94269">
        <ele>364</ele>
        <time>2017-09-19T14:16:43Z</time>
      </trkpt>
      <trkpt lat="44.56222" lon="1.94264">
        <ele>364</ele>
        <time>2017-09-19T14:16:46Z</time>
      </trkpt>
      <trkpt lat="44.56225" lon="1.94248">
        <ele>364</ele>
        <time>2017-09-19T14:16:55Z</time>
      </trkpt>
      <trkpt lat="44.56226" lon="1.94244">
        <ele>364</ele>
        <time>2017-09-19T14:16:57Z</time>
      </trkpt>
      <trkpt lat="44.56226" lon="1.9424">
        <ele>364</ele>
        <time>2017-09-19T14:17:00Z</time>
      </trkpt>
      <trkpt lat="44.56236" lon="1.94212">
        <ele>364</ele>
        <time>2017-09-19T14:17:18Z</time>
      </trkpt>
      <trkpt lat="44.56236" lon="1.94207">
        <ele>364</ele>
        <time>2017-09-19T14:17:21Z</time>
      </trkpt>
      <trkpt lat="44.56236" lon="1.94203">
        <ele>364</ele>
        <time>2017-09-19T14:17:25Z</time>
      </trkpt>
      <trkpt lat="44.56235" lon="1.94197">
        <ele>364</ele>
        <time>2017-09-19T14:17:29Z</time>
      </trkpt>
      <trkpt lat="44.56234" lon="1.94193">
        <ele>364</ele>
        <time>2017-09-19T14:17:31Z</time>
      </trkpt>
      <trkpt lat="44.56232" lon="1.94181">
        <ele>364</ele>
        <time>2017-09-19T14:17:37Z</time>
      </trkpt>
      <trkpt lat="44.56229" lon="1.94172">
        <ele>364</ele>
        <time>2017-09-19T14:17:43Z</time>
      </trkpt>
      <trkpt lat="44.56229" lon="1.94169">
        <ele>364</ele>
        <time>2017-09-19T14:17:45Z</time>
      </trkpt>
      <trkpt lat="44.56229" lon="1.94164">
        <ele>364</ele>
        <time>2017-09-19T14:17:48Z</time>
      </trkpt>
      <trkpt lat="44.56229" lon="1.94159">
        <ele>364</ele>
        <time>2017-09-19T14:17:51Z</time>
      </trkpt>
      <trkpt lat="44.5623" lon="1.94155">
        <ele>364</ele>
        <time>2017-09-19T14:17:54Z</time>
      </trkpt>
      <trkpt lat="44.56232" lon="1.94151">
        <ele>364</ele>
        <time>2017-09-19T14:17:57Z</time>
      </trkpt>
      <trkpt lat="44.56233" lon="1.94146">
        <ele>364</ele>
        <time>2017-09-19T14:18:00Z</time>
      </trkpt>
      <trkpt lat="44.56235" lon="1.94132">
        <ele>364</ele>
        <time>2017-09-19T14:18:08Z</time>
      </trkpt>
      <trkpt lat="44.56237" lon="1.94128">
        <ele>365</ele>
        <time>2017-09-19T14:18:11Z</time>
      </trkpt>
      <trkpt lat="44.5624" lon="1.94123">
        <ele>365</ele>
        <time>2017-09-19T14:18:15Z</time>
      </trkpt>
      <trkpt lat="44.56241" lon="1.94117">
        <ele>365</ele>
        <time>2017-09-19T14:18:19Z</time>
      </trkpt>
      <trkpt lat="44.56245" lon="1.94097">
        <ele>366</ele>
        <time>2017-09-19T14:18:31Z</time>
      </trkpt>
      <trkpt lat="44.56249" lon="1.94071">
        <ele>366</ele>
        <time>2017-09-19T14:18:44Z</time>
      </trkpt>
      <trkpt lat="44.5625" lon="1.94068">
        <ele>366</ele>
        <time>2017-09-19T14:18:46Z</time>
      </trkpt>
      <trkpt lat="44.56251" lon="1.94062">
        <ele>366</ele>
        <time>2017-09-19T14:18:50Z</time>
      </trkpt>
      <trkpt lat="44.56251" lon="1.94058">
        <ele>366</ele>
        <time>2017-09-19T14:18:53Z</time>
      </trkpt>
      <trkpt lat="44.56251" lon="1.94053">
        <ele>366</ele>
        <time>2017-09-19T14:18:56Z</time>
      </trkpt>
      <trkpt lat="44.56252" lon="1.94049">
        <ele>366</ele>
        <time>2017-09-19T14:18:59Z</time>
      </trkpt>
      <trkpt lat="44.56253" lon="1.94044">
        <ele>366</ele>
        <time>2017-09-19T14:19:02Z</time>
      </trkpt>
      <trkpt lat="44.56254" lon="1.94041">
        <ele>366</ele>
        <time>2017-09-19T14:19:04Z</time>
      </trkpt>
      <trkpt lat="44.56255" lon="1.94036">
        <ele>366</ele>
        <time>2017-09-19T14:19:07Z</time>
      </trkpt>
      <trkpt lat="44.56256" lon="1.94032">
        <ele>366</ele>
        <time>2017-09-19T14:19:10Z</time>
      </trkpt>
      <trkpt lat="44.56256" lon="1.94028">
        <ele>366</ele>
        <time>2017-09-19T14:19:12Z</time>
      </trkpt>
      <trkpt lat="44.56263" lon="1.93986">
        <ele>368</ele>
        <time>2017-09-19T14:19:38Z</time>
      </trkpt>
      <trkpt lat="44.56265" lon="1.93981">
        <ele>368</ele>
        <time>2017-09-19T14:19:43Z</time>
      </trkpt>
      <trkpt lat="44.56266" lon="1.93976">
        <ele>368</ele>
        <time>2017-09-19T14:19:47Z</time>
      </trkpt>
      <trkpt lat="44.56268" lon="1.9397">
        <ele>368</ele>
        <time>2017-09-19T14:19:50Z</time>
      </trkpt>
      <trkpt lat="44.56273" lon="1.93947">
        <ele>368</ele>
        <time>2017-09-19T14:20:05Z</time>
      </trkpt>
      <trkpt lat="44.56274" lon="1.93941">
        <ele>368</ele>
        <time>2017-09-19T14:20:08Z</time>
      </trkpt>
      <trkpt lat="44.56276" lon="1.93937">
        <ele>368</ele>
        <time>2017-09-19T14:20:11Z</time>
      </trkpt>
      <trkpt lat="44.56277" lon="1.9393">
        <ele>368</ele>
        <time>2017-09-19T14:20:15Z</time>
      </trkpt>
      <trkpt lat="44.56279" lon="1.93926">
        <ele>368</ele>
        <time>2017-09-19T14:20:18Z</time>
      </trkpt>
      <trkpt lat="44.56281" lon="1.93921">
        <ele>368</ele>
        <time>2017-09-19T14:20:22Z</time>
      </trkpt>
      <trkpt lat="44.56284" lon="1.9391">
        <ele>368</ele>
        <time>2017-09-19T14:20:28Z</time>
      </trkpt>
      <trkpt lat="44.56286" lon="1.93905">
        <ele>368</ele>
        <time>2017-09-19T14:20:31Z</time>
      </trkpt>
      <trkpt lat="44.56288" lon="1.93901">
        <ele>368</ele>
        <time>2017-09-19T14:20:35Z</time>
      </trkpt>
      <trkpt lat="44.56295" lon="1.93884">
        <ele>368</ele>
        <time>2017-09-19T14:20:48Z</time>
      </trkpt>
      <trkpt lat="44.56296" lon="1.93878">
        <ele>368</ele>
        <time>2017-09-19T14:20:52Z</time>
      </trkpt>
      <trkpt lat="44.56298" lon="1.93871">
        <ele>368</ele>
        <time>2017-09-19T14:20:59Z</time>
      </trkpt>
      <trkpt lat="44.563" lon="1.93863">
        <ele>368</ele>
        <time>2017-09-19T14:21:04Z</time>
      </trkpt>
      <trkpt lat="44.56306" lon="1.93845">
        <ele>368</ele>
        <time>2017-09-19T14:21:15Z</time>
      </trkpt>
      <trkpt lat="44.56309" lon="1.93832">
        <ele>367</ele>
        <time>2017-09-19T14:21:24Z</time>
      </trkpt>
      <trkpt lat="44.56312" lon="1.93826">
        <ele>367</ele>
        <time>2017-09-19T14:21:31Z</time>
      </trkpt>
      <trkpt lat="44.56317" lon="1.93812">
        <ele>367</ele>
        <time>2017-09-19T14:21:49Z</time>
      </trkpt>
      <trkpt lat="44.56318" lon="1.93806">
        <ele>367</ele>
        <time>2017-09-19T14:21:52Z</time>
      </trkpt>
      <trkpt lat="44.56339" lon="1.93769">
        <ele>369</ele>
        <time>2017-09-19T14:22:22Z</time>
      </trkpt>
      <trkpt lat="44.56342" lon="1.93764">
        <ele>369</ele>
        <time>2017-09-19T14:22:26Z</time>
      </trkpt>
      <trkpt lat="44.56347" lon="1.93753">
        <ele>369</ele>
        <time>2017-09-19T14:22:34Z</time>
      </trkpt>
      <trkpt lat="44.56349" lon="1.93747">
        <ele>368</ele>
        <time>2017-09-19T14:22:38Z</time>
      </trkpt>
      <trkpt lat="44.56351" lon="1.93742">
        <ele>368</ele>
        <time>2017-09-19T14:22:42Z</time>
      </trkpt>
      <trkpt lat="44.56355" lon="1.93723">
        <ele>368</ele>
        <time>2017-09-19T14:22:53Z</time>
      </trkpt>
      <trkpt lat="44.56356" lon="1.93718">
        <ele>368</ele>
        <time>2017-09-19T14:22:57Z</time>
      </trkpt>
      <trkpt lat="44.56359" lon="1.93712">
        <ele>368</ele>
        <time>2017-09-19T14:23:01Z</time>
      </trkpt>
      <trkpt lat="44.56361" lon="1.93707">
        <ele>368</ele>
        <time>2017-09-19T14:23:05Z</time>
      </trkpt>
      <trkpt lat="44.56364" lon="1.93693">
        <ele>367</ele>
        <time>2017-09-19T14:23:13Z</time>
      </trkpt>
      <trkpt lat="44.56374" lon="1.93668">
        <ele>367</ele>
        <time>2017-09-19T14:23:31Z</time>
      </trkpt>
      <trkpt lat="44.56381" lon="1.93645">
        <ele>367</ele>
        <time>2017-09-19T14:23:46Z</time>
      </trkpt>
      <trkpt lat="44.56384" lon="1.9364">
        <ele>367</ele>
        <time>2017-09-19T14:23:50Z</time>
      </trkpt>
      <trkpt lat="44.56386" lon="1.93635">
        <ele>367</ele>
        <time>2017-09-19T14:23:54Z</time>
      </trkpt>
      <trkpt lat="44.56388" lon="1.93629">
        <ele>367</ele>
        <time>2017-09-19T14:23:58Z</time>
      </trkpt>
      <trkpt lat="44.56391" lon="1.93616">
        <ele>367</ele>
        <time>2017-09-19T14:24:06Z</time>
      </trkpt>
      <trkpt lat="44.56391" lon="1.9361">
        <ele>367</ele>
        <time>2017-09-19T14:24:10Z</time>
      </trkpt>
      <trkpt lat="44.56391" lon="1.93604">
        <ele>367</ele>
        <time>2017-09-19T14:24:13Z</time>
      </trkpt>
      <trkpt lat="44.56391" lon="1.93595">
        <ele>367</ele>
        <time>2017-09-19T14:24:19Z</time>
      </trkpt>
      <trkpt lat="44.56394" lon="1.9357">
        <ele>367</ele>
        <time>2017-09-19T14:24:35Z</time>
      </trkpt>
      <trkpt lat="44.56394" lon="1.93563">
        <ele>366</ele>
        <time>2017-09-19T14:24:40Z</time>
      </trkpt>
      <trkpt lat="44.56392" lon="1.93541">
        <ele>366</ele>
        <time>2017-09-19T14:24:51Z</time>
      </trkpt>
      <trkpt lat="44.56392" lon="1.93527">
        <ele>366</ele>
        <time>2017-09-19T14:24:59Z</time>
      </trkpt>
      <trkpt lat="44.56393" lon="1.93522">
        <ele>366</ele>
        <time>2017-09-19T14:25:03Z</time>
      </trkpt>
      <trkpt lat="44.56395" lon="1.93496">
        <ele>366</ele>
        <time>2017-09-19T14:25:18Z</time>
      </trkpt>
      <trkpt lat="44.56395" lon="1.93492">
        <ele>366</ele>
        <time>2017-09-19T14:25:20Z</time>
      </trkpt>
      <trkpt lat="44.56398" lon="1.93469">
        <ele>366</ele>
        <time>2017-09-19T14:25:34Z</time>
      </trkpt>
      <trkpt lat="44.56407" lon="1.93439">
        <ele>366</ele>
        <time>2017-09-19T14:25:54Z</time>
      </trkpt>
      <trkpt lat="44.56427" lon="1.93392">
        <ele>364</ele>
        <time>2017-09-19T14:26:25Z</time>
      </trkpt>
      <trkpt lat="44.56431" lon="1.93385">
        <ele>363</ele>
        <time>2017-09-19T14:26:31Z</time>
      </trkpt>
      <trkpt lat="44.56432" lon="1.93379">
        <ele>363</ele>
        <time>2017-09-19T14:26:34Z</time>
      </trkpt>
      <trkpt lat="44.56434" lon="1.93369">
        <ele>362</ele>
        <time>2017-09-19T14:26:41Z</time>
      </trkpt>
      <trkpt lat="44.56436" lon="1.93365">
        <ele>362</ele>
        <time>2017-09-19T14:26:44Z</time>
      </trkpt>
      <trkpt lat="44.5644" lon="1.93353">
        <ele>362</ele>
        <time>2017-09-19T14:26:51Z</time>
      </trkpt>
      <trkpt lat="44.56441" lon="1.93348">
        <ele>362</ele>
        <time>2017-09-19T14:26:54Z</time>
      </trkpt>
      <trkpt lat="44.56442" lon="1.93343">
        <ele>362</ele>
        <time>2017-09-19T14:26:57Z</time>
      </trkpt>
      <trkpt lat="44.56445" lon="1.93336">
        <ele>362</ele>
        <time>2017-09-19T14:27:02Z</time>
      </trkpt>
      <trkpt lat="44.56447" lon="1.93332">
        <ele>361</ele>
        <time>2017-09-19T14:27:04Z</time>
      </trkpt>
      <trkpt lat="44.56449" lon="1.93324">
        <ele>360</ele>
        <time>2017-09-19T14:27:09Z</time>
      </trkpt>
      <trkpt lat="44.56458" lon="1.93306">
        <ele>360</ele>
        <time>2017-09-19T14:27:22Z</time>
      </trkpt>
      <trkpt lat="44.56465" lon="1.93298">
        <ele>359</ele>
        <time>2017-09-19T14:27:32Z</time>
      </trkpt>
      <trkpt lat="44.56467" lon="1.93295">
        <ele>359</ele>
        <time>2017-09-19T14:27:39Z</time>
      </trkpt>
      <trkpt lat="44.5647" lon="1.93292">
        <ele>359</ele>
        <time>2017-09-19T14:27:43Z</time>
      </trkpt>
      <trkpt lat="44.56474" lon="1.93289">
        <ele>359</ele>
        <time>2017-09-19T14:27:47Z</time>
      </trkpt>
      <trkpt lat="44.56477" lon="1.93286">
        <ele>359</ele>
        <time>2017-09-19T14:27:51Z</time>
      </trkpt>
      <trkpt lat="44.56484" lon="1.93279">
        <ele>359</ele>
        <time>2017-09-19T14:28:00Z</time>
      </trkpt>
      <trkpt lat="44.56489" lon="1.93277">
        <ele>358</ele>
        <time>2017-09-19T14:28:06Z</time>
      </trkpt>
      <trkpt lat="44.56492" lon="1.93274">
        <ele>358</ele>
        <time>2017-09-19T14:28:09Z</time>
      </trkpt>
      <trkpt lat="44.56499" lon="1.93275">
        <ele>358</ele>
        <time>2017-09-19T14:28:15Z</time>
      </trkpt>
      <trkpt lat="44.56507" lon="1.93273">
        <ele>354</ele>
        <time>2017-09-19T14:28:23Z</time>
      </trkpt>
      <trkpt lat="44.5652" lon="1.9327">
        <ele>353</ele>
        <time>2017-09-19T14:28:35Z</time>
      </trkpt>
      <trkpt lat="44.56527" lon="1.93268">
        <ele>353</ele>
        <time>2017-09-19T14:28:49Z</time>
      </trkpt>
      <trkpt lat="44.56535" lon="1.93264">
        <ele>353</ele>
        <time>2017-09-19T14:29:00Z</time>
      </trkpt>
      <trkpt lat="44.56553" lon="1.93264">
        <ele>352</ele>
        <time>2017-09-19T14:29:17Z</time>
      </trkpt>
      <trkpt lat="44.56555" lon="1.93266">
        <ele>352</ele>
        <time>2017-09-19T14:29:41Z</time>
      </trkpt>
      <trkpt lat="44.56558" lon="1.93269">
        <ele>352</ele>
        <time>2017-09-19T14:30:52Z</time>
      </trkpt>
      <trkpt lat="44.5656" lon="1.93266">
        <ele>352</ele>
        <time>2017-09-19T14:30:58Z</time>
      </trkpt>
      <trkpt lat="44.5656" lon="1.93268">
        <ele>352</ele>
        <time>2017-09-19T14:31:48Z</time>
      </trkpt>
      <trkpt lat="44.56557" lon="1.93267">
        <ele>352</ele>
        <time>2017-09-19T14:31:50Z</time>
      </trkpt>
      <trkpt lat="44.56555" lon="1.93265">
        <ele>352</ele>
        <time>2017-09-19T14:32:03Z</time>
      </trkpt>
      <trkpt lat="44.56557" lon="1.93268">
        <ele>352</ele>
        <time>2017-09-19T14:33:46Z</time>
      </trkpt>
      <trkpt lat="44.56557" lon="1.93271">
        <ele>352</ele>
        <time>2017-09-19T14:33:49Z</time>
      </trkpt>
      <trkpt lat="44.56558" lon="1.93273">
        <ele>352</ele>
        <time>2017-09-19T14:33:51Z</time>
      </trkpt>
      <trkpt lat="44.56559" lon="1.93275">
        <ele>352</ele>
        <time>2017-09-19T14:33:54Z</time>
      </trkpt>
      <trkpt lat="44.56561" lon="1.93276">
        <ele>352</ele>
        <time>2017-09-19T14:33:58Z</time>
      </trkpt>
      <trkpt lat="44.56563" lon="1.93277">
        <ele>352</ele>
        <time>2017-09-19T14:34:01Z</time>
      </trkpt>
      <trkpt lat="44.56566" lon="1.93276">
        <ele>351</ele>
        <time>2017-09-19T14:34:04Z</time>
      </trkpt>
      <trkpt lat="44.56568" lon="1.93277">
        <ele>351</ele>
        <time>2017-09-19T14:34:07Z</time>
      </trkpt>
      <trkpt lat="44.56587" lon="1.93271">
        <ele>350</ele>
        <time>2017-09-19T14:34:26Z</time>
      </trkpt>
      <trkpt lat="44.56591" lon="1.9327">
        <ele>350</ele>
        <time>2017-09-19T14:34:29Z</time>
      </trkpt>
      <trkpt lat="44.56597" lon="1.93268">
        <ele>350</ele>
        <time>2017-09-19T14:34:35Z</time>
      </trkpt>
      <trkpt lat="44.56614" lon="1.93262">
        <ele>350</ele>
        <time>2017-09-19T14:34:50Z</time>
      </trkpt>
      <trkpt lat="44.56619" lon="1.93261">
        <ele>350</ele>
        <time>2017-09-19T14:34:54Z</time>
      </trkpt>
      <trkpt lat="44.56639" lon="1.9326">
        <ele>351</ele>
        <time>2017-09-19T14:35:10Z</time>
      </trkpt>
      <trkpt lat="44.56642" lon="1.9326">
        <ele>351</ele>
        <time>2017-09-19T14:35:14Z</time>
      </trkpt>
      <trkpt lat="44.56646" lon="1.9326">
        <ele>351</ele>
        <time>2017-09-19T14:35:17Z</time>
      </trkpt>
      <trkpt lat="44.56653" lon="1.93262">
        <ele>351</ele>
        <time>2017-09-19T14:35:24Z</time>
      </trkpt>
      <trkpt lat="44.5668" lon="1.93277">
        <ele>351</ele>
        <time>2017-09-19T14:35:47Z</time>
      </trkpt>
      <trkpt lat="44.56683" lon="1.9328">
        <ele>351</ele>
        <time>2017-09-19T14:35:50Z</time>
      </trkpt>
      <trkpt lat="44.56686" lon="1.93282">
        <ele>350</ele>
        <time>2017-09-19T14:35:53Z</time>
      </trkpt>
      <trkpt lat="44.56689" lon="1.93284">
        <ele>350</ele>
        <time>2017-09-19T14:35:56Z</time>
      </trkpt>
      <trkpt lat="44.56692" lon="1.93287">
        <ele>350</ele>
        <time>2017-09-19T14:35:59Z</time>
      </trkpt>
      <trkpt lat="44.56714" lon="1.93308">
        <ele>349</ele>
        <time>2017-09-19T14:36:20Z</time>
      </trkpt>
      <trkpt lat="44.56717" lon="1.93312">
        <ele>349</ele>
        <time>2017-09-19T14:36:23Z</time>
      </trkpt>
      <trkpt lat="44.56719" lon="1.93315">
        <ele>348</ele>
        <time>2017-09-19T14:36:26Z</time>
      </trkpt>
      <trkpt lat="44.56739" lon="1.93338">
        <ele>344</ele>
        <time>2017-09-19T14:36:48Z</time>
      </trkpt>
      <trkpt lat="44.56744" lon="1.93344">
        <ele>344</ele>
        <time>2017-09-19T14:36:56Z</time>
      </trkpt>
      <trkpt lat="44.56747" lon="1.93347">
        <ele>344</ele>
        <time>2017-09-19T14:36:59Z</time>
      </trkpt>
      <trkpt lat="44.56751" lon="1.9335">
        <ele>342</ele>
        <time>2017-09-19T14:37:03Z</time>
      </trkpt>
      <trkpt lat="44.56766" lon="1.93365">
        <ele>340</ele>
        <time>2017-09-19T14:37:22Z</time>
      </trkpt>
      <trkpt lat="44.56774" lon="1.93371">
        <ele>340</ele>
        <time>2017-09-19T14:37:30Z</time>
      </trkpt>
      <trkpt lat="44.56783" lon="1.93378">
        <ele>339</ele>
        <time>2017-09-19T14:37:41Z</time>
      </trkpt>
      <trkpt lat="44.56786" lon="1.9338">
        <ele>339</ele>
        <time>2017-09-19T14:37:44Z</time>
      </trkpt>
      <trkpt lat="44.56788" lon="1.93381">
        <ele>339</ele>
        <time>2017-09-19T14:37:49Z</time>
      </trkpt>
      <trkpt lat="44.5679" lon="1.93383">
        <ele>339</ele>
        <time>2017-09-19T14:37:53Z</time>
      </trkpt>
      <trkpt lat="44.56817" lon="1.934">
        <ele>337</ele>
        <time>2017-09-19T14:38:25Z</time>
      </trkpt>
      <trkpt lat="44.56821" lon="1.93403">
        <ele>336</ele>
        <time>2017-09-19T14:38:29Z</time>
      </trkpt>
      <trkpt lat="44.56824" lon="1.93407">
        <ele>336</ele>
        <time>2017-09-19T14:38:33Z</time>
      </trkpt>
      <trkpt lat="44.56828" lon="1.93408">
        <ele>336</ele>
        <time>2017-09-19T14:38:36Z</time>
      </trkpt>
      <trkpt lat="44.56832" lon="1.9341">
        <ele>335</ele>
        <time>2017-09-19T14:38:39Z</time>
      </trkpt>
      <trkpt lat="44.56836" lon="1.93411">
        <ele>334</ele>
        <time>2017-09-19T14:38:42Z</time>
      </trkpt>
      <trkpt lat="44.56839" lon="1.93412">
        <ele>334</ele>
        <time>2017-09-19T14:38:45Z</time>
      </trkpt>
      <trkpt lat="44.56868" lon="1.93411">
        <ele>333</ele>
        <time>2017-09-19T14:39:06Z</time>
      </trkpt>
      <trkpt lat="44.56871" lon="1.93411">
        <ele>333</ele>
        <time>2017-09-19T14:39:10Z</time>
      </trkpt>
      <trkpt lat="44.56875" lon="1.93413">
        <ele>333</ele>
        <time>2017-09-19T14:39:14Z</time>
      </trkpt>
      <trkpt lat="44.5689" lon="1.93416">
        <ele>332</ele>
        <time>2017-09-19T14:39:25Z</time>
      </trkpt>
      <trkpt lat="44.56898" lon="1.93418">
        <ele>329</ele>
        <time>2017-09-19T14:39:30Z</time>
      </trkpt>
      <trkpt lat="44.56927" lon="1.93436">
        <ele>326</ele>
        <time>2017-09-19T14:39:57Z</time>
      </trkpt>
      <trkpt lat="44.56931" lon="1.93439">
        <ele>326</ele>
        <time>2017-09-19T14:40:00Z</time>
      </trkpt>
      <trkpt lat="44.56952" lon="1.93457">
        <ele>324</ele>
        <time>2017-09-19T14:40:19Z</time>
      </trkpt>
      <trkpt lat="44.56957" lon="1.93463">
        <ele>324</ele>
        <time>2017-09-19T14:40:25Z</time>
      </trkpt>
      <trkpt lat="44.56993" lon="1.9348">
        <ele>323</ele>
        <time>2017-09-19T14:40:58Z</time>
      </trkpt>
      <trkpt lat="44.57011" lon="1.93486">
        <ele>321</ele>
        <time>2017-09-19T14:41:13Z</time>
      </trkpt>
      <trkpt lat="44.57033" lon="1.93487">
        <ele>320</ele>
        <time>2017-09-19T14:41:31Z</time>
      </trkpt>
      <trkpt lat="44.57042" lon="1.93488">
        <ele>320</ele>
        <time>2017-09-19T14:41:38Z</time>
      </trkpt>
      <trkpt lat="44.57053" lon="1.93488">
        <ele>320</ele>
        <time>2017-09-19T14:41:46Z</time>
      </trkpt>
      <trkpt lat="44.57058" lon="1.93487">
        <ele>320</ele>
        <time>2017-09-19T14:41:50Z</time>
      </trkpt>
      <trkpt lat="44.57078" lon="1.93486">
        <ele>319</ele>
        <time>2017-09-19T14:42:06Z</time>
      </trkpt>
      <trkpt lat="44.57087" lon="1.93488">
        <ele>320</ele>
        <time>2017-09-19T14:42:12Z</time>
      </trkpt>
      <trkpt lat="44.5709" lon="1.93488">
        <ele>320</ele>
        <time>2017-09-19T14:42:15Z</time>
      </trkpt>
      <trkpt lat="44.57094" lon="1.9349">
        <ele>320</ele>
        <time>2017-09-19T14:42:18Z</time>
      </trkpt>
      <trkpt lat="44.57098" lon="1.93491">
        <ele>320</ele>
        <time>2017-09-19T14:42:23Z</time>
      </trkpt>
      <trkpt lat="44.57129" lon="1.93506">
        <ele>320</ele>
        <time>2017-09-19T14:42:53Z</time>
      </trkpt>
      <trkpt lat="44.57165" lon="1.9352">
        <ele>321</ele>
        <time>2017-09-19T14:43:24Z</time>
      </trkpt>
      <trkpt lat="44.57175" lon="1.93524">
        <ele>321</ele>
        <time>2017-09-19T14:43:30Z</time>
      </trkpt>
      <trkpt lat="44.57179" lon="1.93526">
        <ele>321</ele>
        <time>2017-09-19T14:43:33Z</time>
      </trkpt>
      <trkpt lat="44.57183" lon="1.93528">
        <ele>320</ele>
        <time>2017-09-19T14:43:36Z</time>
      </trkpt>
      <trkpt lat="44.57187" lon="1.93529">
        <ele>320</ele>
        <time>2017-09-19T14:43:39Z</time>
      </trkpt>
      <trkpt lat="44.57191" lon="1.93531">
        <ele>320</ele>
        <time>2017-09-19T14:43:43Z</time>
      </trkpt>
      <trkpt lat="44.57212" lon="1.93538">
        <ele>320</ele>
        <time>2017-09-19T14:44:00Z</time>
      </trkpt>
      <trkpt lat="44.57215" lon="1.9354">
        <ele>320</ele>
        <time>2017-09-19T14:44:03Z</time>
      </trkpt>
      <trkpt lat="44.57219" lon="1.93542">
        <ele>320</ele>
        <time>2017-09-19T14:44:07Z</time>
      </trkpt>
      <trkpt lat="44.57224" lon="1.93546">
        <ele>320</ele>
        <time>2017-09-19T14:44:12Z</time>
      </trkpt>
      <trkpt lat="44.57227" lon="1.93549">
        <ele>319</ele>
        <time>2017-09-19T14:44:15Z</time>
      </trkpt>
      <trkpt lat="44.57232" lon="1.93551">
        <ele>319</ele>
        <time>2017-09-19T14:44:19Z</time>
      </trkpt>
      <trkpt lat="44.57235" lon="1.93555">
        <ele>319</ele>
        <time>2017-09-19T14:44:24Z</time>
      </trkpt>
      <trkpt lat="44.57238" lon="1.93557">
        <ele>319</ele>
        <time>2017-09-19T14:44:28Z</time>
      </trkpt>
      <trkpt lat="44.57243" lon="1.93558">
        <ele>319</ele>
        <time>2017-09-19T14:44:31Z</time>
      </trkpt>
      <trkpt lat="44.57245" lon="1.93561">
        <ele>318</ele>
        <time>2017-09-19T14:44:33Z</time>
      </trkpt>
      <trkpt lat="44.57255" lon="1.9357">
        <ele>316</ele>
        <time>2017-09-19T14:44:51Z</time>
      </trkpt>
      <trkpt lat="44.57257" lon="1.93574">
        <ele>316</ele>
        <time>2017-09-19T14:44:57Z</time>
      </trkpt>
      <trkpt lat="44.57261" lon="1.93579">
        <ele>316</ele>
        <time>2017-09-19T14:45:05Z</time>
      </trkpt>
      <trkpt lat="44.57264" lon="1.93584">
        <ele>313</ele>
        <time>2017-09-19T14:45:10Z</time>
      </trkpt>
      <trkpt lat="44.57265" lon="1.93588">
        <ele>313</ele>
        <time>2017-09-19T14:45:13Z</time>
      </trkpt>
      <trkpt lat="44.5727" lon="1.93593">
        <ele>312</ele>
        <time>2017-09-19T14:45:21Z</time>
      </trkpt>
      <trkpt lat="44.57273" lon="1.93596">
        <ele>311</ele>
        <time>2017-09-19T14:45:26Z</time>
      </trkpt>
      <trkpt lat="44.57275" lon="1.936">
        <ele>311</ele>
        <time>2017-09-19T14:45:29Z</time>
      </trkpt>
      <trkpt lat="44.57278" lon="1.93603">
        <ele>311</ele>
        <time>2017-09-19T14:45:33Z</time>
      </trkpt>
      <trkpt lat="44.57304" lon="1.93638">
        <ele>309</ele>
        <time>2017-09-19T14:46:04Z</time>
      </trkpt>
      <trkpt lat="44.57309" lon="1.93647">
        <ele>308</ele>
        <time>2017-09-19T14:46:12Z</time>
      </trkpt>
      <trkpt lat="44.57311" lon="1.93651">
        <ele>308</ele>
        <time>2017-09-19T14:46:15Z</time>
      </trkpt>
      <trkpt lat="44.57313" lon="1.93656">
        <ele>308</ele>
        <time>2017-09-19T14:46:19Z</time>
      </trkpt>
      <trkpt lat="44.57334" lon="1.93686">
        <ele>304</ele>
        <time>2017-09-19T14:46:44Z</time>
      </trkpt>
      <trkpt lat="44.57336" lon="1.93688">
        <ele>303</ele>
        <time>2017-09-19T14:46:46Z</time>
      </trkpt>
      <trkpt lat="44.57337" lon="1.9369">
        <ele>303</ele>
        <time>2017-09-19T14:46:49Z</time>
      </trkpt>
      <trkpt lat="44.57339" lon="1.93691">
        <ele>303</ele>
        <time>2017-09-19T14:46:52Z</time>
      </trkpt>
      <trkpt lat="44.5734" lon="1.93692">
        <ele>303</ele>
        <time>2017-09-19T14:46:55Z</time>
      </trkpt>
      <trkpt lat="44.57343" lon="1.93692">
        <ele>303</ele>
        <time>2017-09-19T14:47:00Z</time>
      </trkpt>
      <trkpt lat="44.57346" lon="1.93692">
        <ele>303</ele>
        <time>2017-09-19T14:47:03Z</time>
      </trkpt>
      <trkpt lat="44.5735" lon="1.93689">
        <ele>303</ele>
        <time>2017-09-19T14:47:08Z</time>
      </trkpt>
      <trkpt lat="44.57355" lon="1.93687">
        <ele>303</ele>
        <time>2017-09-19T14:47:14Z</time>
      </trkpt>
      <trkpt lat="44.57362" lon="1.93686">
        <ele>302</ele>
        <time>2017-09-19T14:47:21Z</time>
      </trkpt>
      <trkpt lat="44.57366" lon="1.93686">
        <ele>302</ele>
        <time>2017-09-19T14:47:24Z</time>
      </trkpt>
      <trkpt lat="44.57384" lon="1.93666">
        <ele>302</ele>
        <time>2017-09-19T14:47:50Z</time>
      </trkpt>
      <trkpt lat="44.57386" lon="1.93662">
        <ele>302</ele>
        <time>2017-09-19T14:47:54Z</time>
      </trkpt>
      <trkpt lat="44.57396" lon="1.93648">
        <ele>302</ele>
        <time>2017-09-19T14:48:07Z</time>
      </trkpt>
      <trkpt lat="44.57399" lon="1.93646">
        <ele>302</ele>
        <time>2017-09-19T14:48:09Z</time>
      </trkpt>
      <trkpt lat="44.57404" lon="1.93639">
        <ele>302</ele>
        <time>2017-09-19T14:48:15Z</time>
      </trkpt>
      <trkpt lat="44.57408" lon="1.93637">
        <ele>302</ele>
        <time>2017-09-19T14:48:18Z</time>
      </trkpt>
      <trkpt lat="44.57424" lon="1.93631">
        <ele>299</ele>
        <time>2017-09-19T14:48:33Z</time>
      </trkpt>
      <trkpt lat="44.57431" lon="1.93632">
        <ele>299</ele>
        <time>2017-09-19T14:48:40Z</time>
      </trkpt>
      <trkpt lat="44.57458" lon="1.93641">
        <ele>298</ele>
        <time>2017-09-19T14:49:06Z</time>
      </trkpt>
      <trkpt lat="44.57462" lon="1.93641">
        <ele>298</ele>
        <time>2017-09-19T14:49:09Z</time>
      </trkpt>
      <trkpt lat="44.57473" lon="1.93643">
        <ele>298</ele>
        <time>2017-09-19T14:49:21Z</time>
      </trkpt>
      <trkpt lat="44.57485" lon="1.9364">
        <ele>298</ele>
        <time>2017-09-19T14:49:32Z</time>
      </trkpt>
      <trkpt lat="44.57489" lon="1.93638">
        <ele>298</ele>
        <time>2017-09-19T14:49:36Z</time>
      </trkpt>
      <trkpt lat="44.57496" lon="1.93637">
        <ele>298</ele>
        <time>2017-09-19T14:49:52Z</time>
      </trkpt>
      <trkpt lat="44.57504" lon="1.93634">
        <ele>297</ele>
        <time>2017-09-19T14:50:00Z</time>
      </trkpt>
      <trkpt lat="44.57506" lon="1.93633">
        <ele>297</ele>
        <time>2017-09-19T14:50:02Z</time>
      </trkpt>
      <trkpt lat="44.57533" lon="1.93626">
        <ele>298</ele>
        <time>2017-09-19T14:50:27Z</time>
      </trkpt>
      <trkpt lat="44.57572" lon="1.93626">
        <ele>297</ele>
        <time>2017-09-19T14:50:59Z</time>
      </trkpt>
      <trkpt lat="44.57589" lon="1.93624">
        <ele>299</ele>
        <time>2017-09-19T14:51:12Z</time>
      </trkpt>
      <trkpt lat="44.57603" lon="1.93622">
        <ele>299</ele>
        <time>2017-09-19T14:51:24Z</time>
      </trkpt>
      <trkpt lat="44.57606" lon="1.93619">
        <ele>299</ele>
        <time>2017-09-19T14:51:30Z</time>
      </trkpt>
      <trkpt lat="44.57608" lon="1.93621">
        <ele>299</ele>
        <time>2017-09-19T14:51:46Z</time>
      </trkpt>
      <trkpt lat="44.57611" lon="1.93623">
        <ele>300</ele>
        <time>2017-09-19T14:51:55Z</time>
      </trkpt>
      <trkpt lat="44.57615" lon="1.93623">
        <ele>300</ele>
        <time>2017-09-19T14:51:58Z</time>
      </trkpt>
      <trkpt lat="44.57628" lon="1.93615">
        <ele>300</ele>
        <time>2017-09-19T14:52:10Z</time>
      </trkpt>
      <trkpt lat="44.57662" lon="1.93608">
        <ele>301</ele>
        <time>2017-09-19T14:52:40Z</time>
      </trkpt>
      <trkpt lat="44.57666" lon="1.93608">
        <ele>301</ele>
        <time>2017-09-19T14:52:43Z</time>
      </trkpt>
      <trkpt lat="44.57669" lon="1.93609">
        <ele>305</ele>
        <time>2017-09-19T14:52:46Z</time>
      </trkpt>
      <trkpt lat="44.57695" lon="1.93609">
        <ele>307</ele>
        <time>2017-09-19T14:53:08Z</time>
      </trkpt>
      <trkpt lat="44.57698" lon="1.9361">
        <ele>307</ele>
        <time>2017-09-19T14:53:11Z</time>
      </trkpt>
      <trkpt lat="44.57714" lon="1.93607">
        <ele>308</ele>
        <time>2017-09-19T14:53:24Z</time>
      </trkpt>
      <trkpt lat="44.57716" lon="1.93607">
        <ele>308</ele>
        <time>2017-09-19T14:53:26Z</time>
      </trkpt>
      <trkpt lat="44.57719" lon="1.93605">
        <ele>308</ele>
        <time>2017-09-19T14:53:29Z</time>
      </trkpt>
      <trkpt lat="44.5775" lon="1.93587">
        <ele>311</ele>
        <time>2017-09-19T14:54:00Z</time>
      </trkpt>
      <trkpt lat="44.57753" lon="1.93588">
        <ele>312</ele>
        <time>2017-09-19T14:54:03Z</time>
      </trkpt>
      <trkpt lat="44.57755" lon="1.93591">
        <ele>313</ele>
        <time>2017-09-19T14:54:07Z</time>
      </trkpt>
      <trkpt lat="44.57757" lon="1.93598">
        <ele>313</ele>
        <time>2017-09-19T14:54:12Z</time>
      </trkpt>
      <trkpt lat="44.57757" lon="1.93602">
        <ele>313</ele>
        <time>2017-09-19T14:54:15Z</time>
      </trkpt>
      <trkpt lat="44.57759" lon="1.93614">
        <ele>314</ele>
        <time>2017-09-19T14:54:22Z</time>
      </trkpt>
      <trkpt lat="44.57761" lon="1.93621">
        <ele>314</ele>
        <time>2017-09-19T14:54:27Z</time>
      </trkpt>
      <trkpt lat="44.57763" lon="1.93631">
        <ele>314</ele>
        <time>2017-09-19T14:54:34Z</time>
      </trkpt>
      <trkpt lat="44.57765" lon="1.93631">
        <ele>314</ele>
        <time>2017-09-19T14:54:39Z</time>
      </trkpt>
      <trkpt lat="44.57767" lon="1.93629">
        <ele>314</ele>
        <time>2017-09-19T14:54:57Z</time>
      </trkpt>
      <trkpt lat="44.57768" lon="1.93626">
        <ele>314</ele>
        <time>2017-09-19T14:55:22Z</time>
      </trkpt>
      <trkpt lat="44.57768" lon="1.93625">
        <ele>314</ele>
        <time>2017-09-19T14:57:47Z</time>
      </trkpt>
      <trkpt lat="44.57762" lon="1.93629">
        <ele>314</ele>
        <time>2017-09-19T14:57:55Z</time>
      </trkpt>
      <trkpt lat="44.57756" lon="1.93633">
        <ele>314</ele>
        <time>2017-09-19T14:58:03Z</time>
      </trkpt>
      <trkpt lat="44.57753" lon="1.93635">
        <ele>314</ele>
        <time>2017-09-19T14:58:07Z</time>
      </trkpt>
      <trkpt lat="44.57751" lon="1.93639">
        <ele>314</ele>
        <time>2017-09-19T15:00:25Z</time>
      </trkpt>
      <trkpt lat="44.57748" lon="1.9365">
        <ele>311</ele>
        <time>2017-09-19T14:58:22Z</time>
      </trkpt>
      <trkpt lat="44.5775" lon="1.93648">
        <ele>310</ele>
        <time>2017-09-19T14:59:10Z</time>
      </trkpt>
      <trkpt lat="44.57751" lon="1.93636">
        <ele>314</ele>
        <time>2017-09-19T14:59:16Z</time>
      </trkpt>
      <trkpt lat="44.57751" lon="1.93639">
        <ele>314</ele>
        <time>2017-09-19T15:00:25Z</time>
      </trkpt>
      <trkpt lat="44.5775" lon="1.93642">
        <ele>310</ele>
        <time>2017-09-19T15:00:27Z</time>
      </trkpt>
      <trkpt lat="44.57748" lon="1.93646">
        <ele>310</ele>
        <time>2017-09-19T15:00:32Z</time>
      </trkpt>
      <trkpt lat="44.57749" lon="1.9365">
        <ele>311</ele>
        <time>2017-09-19T15:00:38Z</time>
      </trkpt>
      <trkpt lat="44.57747" lon="1.93649">
        <ele>311</ele>
        <time>2017-09-19T15:01:45Z</time>
      </trkpt>
      <trkpt lat="44.57747" lon="1.93652">
        <ele>311</ele>
        <time>2017-09-19T15:01:59Z</time>
      </trkpt>
    </trkseg>
  </trk>
</gpx>